[[{"header":{"parameterUnit":"m.s-1","parameterCategory":1,"la1":30.6,"la2":29.2853,"lo1":-89.7004,"lo2":-87.6739,"dy":0.0162,"dx":0.0183,"nx":112,"ny":82,"refTime":"2025-02-27T06:00:00:Z","depth":0,"parameterNumber":2,"parameterNumberName":"U-component_of_WINDS"},"data":[0.0,0.0,0.0,0.0,0.0,0.0,0.0,0.0,0.0,0.0,0.0,0.0,0.0,0.0,0.0,0.0,0.0,0.0,0.0,0.0,0.0,0.0,0.0,0.0,0.0,0.0,0.0,0.0,0.0,0.0,0.0,0.0,0.0,0.0,0.0,0.0,0.0,0.0,0.0,0.0,0.0,0.0,0.0,0.0,0.0,0.0,0.0,0.0,0.0,0.0,0.0,0.0,0.0,0.0,0.0,0.0,0.0,0.0,0.0,0.0,0.0,0.0,0.0,0.0,0.0,0.0,0.0,0.0,0.0,0.0,0.0,0.0,0.0,0.0,0.0,0.0,0.0,0.0,0.0,0.0,0.0,0.0,0.0,0.0,0.0,0.0,0.0,0.0,0.0,0.0,0.1729,0.1796,0.0803,-0.0133,-0.0847,-0.1457,-0.1905,-0.2128,0.0,0.0,0.0,0.0,0.0,0.0,0.0,0.0,0.0,0.0,0.0,0.0,0.0,0.0,0.0,0.0,0.0,0.0,0.0,0.0,0.0,0.0,0.0,0.0,0.0,0.0,0.0,0.0,0.0,0.0,0.0,0.0,0.0,0.0,0.0,0.0,0.0,0.0,0.0,0.0,0.0,0.0,0.0,0.0,0.0,0.0,0.0,0.0,0.0,0.0,0.0,0.0,0.0,0.0,0.0,0.0,0.0,0.0,0.0,0.0,0.0,0.0,0.0,0.0,0.0,0.0,0.0,0.0,0.0,0.0,0.0,0.0,0.0,0.0,0.0,0.0,0.0,0.0,0.0,0.0,0.0,0.0,0.0,0.0,0.0,0.0,0.0,0.0,0.0,0.0,0.0,0.0,0.0,0.0,0.0,0.0,0.0,0.0,0.0,0.0,0.0,0.0,0.0,0.0,0.1414,0.1772,0.1188,0.0311,-0.0803,-0.1457,-0.1816,-0.1847,0.0,0.0,0.0,0.0,0.0,0.0,0.0,0.0,0.0,0.0,0.0,0.0,0.0,0.0,0.0,0.0,0.0,0.0,0.0,0.0,0.0,0.0,0.0,0.0,0.0,0.0,0.0,0.0,0.0,0.0,0.0,0.0,0.0,0.0,0.0,0.0,0.0,0.0,0.0,0.0,0.0,0.0,0.0,0.0,0.0,0.0,0.0,0.0,0.0,0.0,0.0,0.0,0.0,0.0,0.0,0.0,0.0,0.0,0.0,0.0,0.0,0.0,0.0,0.0,0.0,0.0,0.0,0.0,0.0,0.0,0.0,0.0,0.0,0.0,0.0,0.0,0.0,0.0,0.0,0.0,0.0,0.0,0.0,0.0,0.0,0.0,0.0,0.0,0.0,0.0,0.0,0.0,0.0,0.0,0.0,0.0,0.0,0.0,0.0,0.0,0.0,0.0,0.0,0.0329,0.0881,0.1715,0.1552,0.0758,-0.0781,-0.1457,-0.1861,-0.2,-0.1558,0.0,0.0,0.0,0.0,0.0,0.0,0.0,0.0,0.0,0.0,0.0,0.0,0.0,0.0,0.0,0.0,0.0,0.0,0.0,0.0,0.0,0.0,0.0,0.0,0.0,0.0,0.0,0.0,0.0,0.0,0.0,0.0,0.0,0.0,0.0,0.0,0.0,0.0,0.0,0.0,0.0,0.0,0.0,0.0,0.0,0.0,0.0,0.0,0.0,0.0,0.0,0.0,0.0,0.0,0.0,0.0,0.0,0.0,0.0,0.0,0.0,0.0,0.0,0.0,0.0,0.0,0.0,0.0,0.0,0.0,0.0,0.0,0.0,0.0,0.0,0.0,0.0,0.0,0.0,0.0,0.0,0.0,0.0,0.0,0.0,0.0,0.0,0.0,0.0,0.0,0.0,0.0,0.0,0.0,0.0,0.0,0.0,0.0,0.0,0.0,0.0,0.0,-0.0,0.0357,0.1286,0.1622,0.1072,-0.0736,-0.1457,-0.1883,-0.2092,-0.1632,0.0,0.0,0.0,0.0,0.0,0.0,0.0,0.0,0.0,0.0,0.0,0.0,0.0,0.0,0.0,0.0,0.0,0.0,0.0,0.0,0.0,0.0,0.0,0.0,0.0,0.0,0.0,0.0,0.0,0.0,0.0,0.0,0.0,0.0,0.0,0.0,0.0,0.0,0.0,0.0,0.0,0.0,0.0,0.0,0.0,0.0,0.0,0.0,0.0,0.0,0.0,0.0,0.0,0.0,0.0,0.0,0.0,0.0,0.0,0.0,0.0,0.0,0.0,0.0,0.0,0.0,0.0,0.0,0.0,0.0,0.0,0.0,0.0,0.0,0.0,0.0,0.0,0.0,0.0,0.0,0.0,0.0,0.0,0.0,0.0,0.0,0.0,0.0,0.0,0.0,0.0,0.0,0.0,0.0,0.0,0.0,0.0,0.0,0.0,0.0,0.0,0.0,-0.0,0.0022,0.0112,0.1121,0.1072,-0.0736,-0.1457,-0.1798,-0.182,-0.1606,0.0,0.0,0.0,0.0,0.0,0.0,0.0,0.0,0.0,0.0,0.0,0.0,0.0,0.0,0.0,0.0,0.0,0.0,0.0,0.0,0.0,0.0,0.0,0.0,0.0,0.0,0.0,0.0,0.0,0.0,0.0,0.0,0.0,0.0,0.0,0.0,0.0,0.0,0.0,0.0,0.0,0.0,0.0,0.0,0.0,0.0,0.0,0.0,0.0,0.0,0.0,0.0,0.0,0.0,0.0,0.0,0.0,0.0,0.0,0.0,0.0,0.0,0.0,0.0,0.0,0.0,0.0,0.0,0.0,0.0,0.0,0.0,0.0,0.0,0.0,0.0,0.0,0.0,0.0,0.0,0.0,0.0,0.0,0.0,0.0,0.0,0.0,0.0,0.0,0.0,0.0,0.0,0.0,0.0,0.0,0.0,0.0,0.0,0.0,0.0,0.0,0.0,-0.0,-0.0,0.0,0.0404,0.0403,-0.0289,-0.123,-0.1639,-0.1252,0.0,0.0,0.0,0.0,0.0,0.0,0.0,0.0,0.0,0.0,0.0,0.0,0.0,0.0,0.0,0.0,0.0,0.0,0.0,0.0,0.0,0.0,0.0,0.0,0.0,0.0,0.0,0.0,0.0,0.0,0.0,0.0,0.0,0.0,0.0,0.0,0.0,0.0,0.0,0.0,0.0,0.0,0.0,0.0,0.0,0.0,0.0,0.0,0.0,0.0,0.0,0.0,0.0,0.0,0.0,0.0,0.0,0.0,0.0,0.0,0.0,0.0,0.0,0.0,0.0,0.0,0.0,0.0,0.0,0.0,0.0,0.0,0.0,0.0,0.0,0.0,0.0,0.0,0.0,0.0,0.0,0.0,0.0,0.0,0.0,0.0,0.0,0.0,0.0,0.0,0.0,0.0,0.0,0.0,0.0,0.0,0.0,0.0,0.0,0.0,0.0,0.0,-0.0,-0.0,-0.0,0.0,-0.0337,-0.0492,-0.0311,-0.105,-0.141,-0.1208,0.0,0.0,0.0,0.0,0.0,0.0,0.0,0.0,0.0,0.0,0.0,0.0,0.0,0.0,0.0,0.0,0.0,0.0,0.0,0.0,0.0,0.0,0.0,0.0,0.0,0.0,0.0,0.0,0.0,0.0,0.0,0.0,0.0,0.0,0.0,0.0,0.0,0.0,0.0,0.0,0.0,0.0,0.0,0.0,0.0,0.0,0.0,0.0,0.0,0.0,0.0,0.0,0.0,0.0,0.0,0.0,0.0,0.0,0.0,0.0,0.0,0.0,0.0,0.0,0.0,0.0,0.0,0.0,0.0,0.0,0.0,0.0,0.0,0.0,0.0,0.0,0.0,0.0,0.0,0.0,0.0,0.0,0.0,0.0,0.0,0.0,0.0,0.0,0.0,0.0,0.0,0.0,0.0,0.0,0.0,0.0,0.0,0.0,0.0,0.0,0.0,0.0,-0.0,-0.0,-0.0,-0.0022,-0.1098,-0.1547,-0.0961,-0.0914,-0.1163,0.0,0.0,0.0,0.0,0.0,0.0,0.0,0.0,0.0,0.0,0.0,0.0,0.0,0.0,0.0,0.0,0.0,0.0,0.0,0.0,0.0,0.0,0.0,0.0,0.0,0.0,0.0,0.0,0.0,0.0,0.0,0.0,0.0,0.0,0.0,0.0,0.0,0.0,0.0,0.0,0.0,0.0,0.0,0.0,0.0,0.0,0.0,0.0,0.0,0.0,0.0,0.0,0.0,0.0,0.0,0.0,0.0,0.0,0.0,0.0,0.0,0.0,0.0,0.0,0.0,0.0,0.0,0.0,0.0,0.0,0.0,0.0,0.0,0.0,0.0,0.0,0.0,0.0,0.0,0.0,0.0,0.0,0.0,0.0,0.0,0.0,0.0,0.0,0.0,0.0,0.0,0.0,0.0,0.0,0.0,0.0,0.0,0.0,0.0,0.0,0.0,0.0,0.0,-0.011,-0.0,-0.0335,-0.1188,-0.1594,-0.1731,-0.1547,-0.1524,-0.1616,-0.1798,0.0,0.0,0.0,0.0,0.0,0.0,0.0,0.0,0.0,0.0,0.0,0.0,0.0,0.0,0.0,0.0,0.0,0.0,0.0,0.0,0.0,0.0,0.0,0.0,0.0,0.0,0.0,0.0,0.0,0.0,0.0,0.0,0.0,0.0,0.0,0.0,0.0,0.0,0.0,0.0,0.0,0.0,0.0,0.0,0.0,0.0,0.0,0.0,0.0,0.0,0.0,0.0,0.0,0.0,0.0,0.0,0.0,0.0,0.0,0.0,0.0,0.0,0.0,0.0,0.0,0.0,0.0,0.0,0.0,0.0,0.0,0.0,0.0,0.0,0.0,0.0,0.0,0.0,0.0,0.0,0.0,0.0,0.0,0.0,0.0,0.0,0.0,0.0,0.0,0.0,0.0,0.0,0.0,0.0,0.0,0.0,0.0,0.0,0.0,0.0,0.0,0.0,-0.0813,-0.0513,-0.0646,-0.1366,-0.1661,-0.1798,-0.1798,-0.1794,-0.1791,-0.1791,0.0,0.0,0.0,0.0,0.0,0.0,0.0,0.0,0.0,0.0,0.0,0.0,0.0,0.0,0.0,0.0,0.0,0.0,0.0,0.0,0.0,0.0,0.0,0.0,0.0,0.0,0.0,0.0,0.0,0.0,0.0,0.0,0.0,0.0,0.0,0.0,0.0,0.0,0.0,0.0,0.0,0.0,0.0,0.0,0.0,0.0,0.0,0.0,0.0,0.0,0.0,0.0,0.0,0.0,0.0,0.0,0.0,0.0,0.0,0.0,0.0,0.0,0.0,0.0,0.0,0.0,0.0,0.0,0.0,0.0,0.0,0.0,0.0,0.0,0.0,0.0,0.0,0.0,0.0,0.0,0.0,0.0,0.0,0.0,0.0,0.0,0.0,0.0,0.0,0.0,0.0,0.0,0.0,0.0,0.0,0.0,0.0,0.0,0.0,0.0,0.0,0.0,-0.1785,-0.1321,-0.0983,-0.0983,-0.148,-0.1798,-0.1798,-0.1809,-0.1803,-0.1803,0.0,0.0,0.0,0.0,0.0,0.0,0.0,0.0,0.0,0.0,0.0,0.0,0.0,0.0,0.0,0.0,0.0,0.0,0.0,0.0,0.0,0.0,0.0,0.0,0.0,0.0,0.0,0.0,0.0,0.0,0.0,0.0,0.0,0.0,0.0,0.0,0.0,0.0,0.0,0.0,0.0,0.0,0.0,0.0,0.0,0.0,0.0,0.0,0.0,0.0,0.0,0.0,0.0,0.0,0.0,0.0,0.0,0.0,0.0,0.0,0.1501,0.0,0.0,0.0,0.0,0.0,0.0,0.0,0.0,0.0,0.0,0.0,0.0,0.0,0.0,0.0,0.0,0.0,0.0,0.0,0.0,0.0,0.0,0.0,0.0,0.0,0.0,0.0,0.0,0.0,0.0,0.0,0.0,0.0,0.0,0.0,0.0,0.0,0.0,0.0,0.0,0.0,-0.173,-0.1683,-0.1616,-0.1616,-0.1731,-0.1794,-0.1809,-0.1806,-0.1803,-0.1803,-0.1761,0.0,0.0,0.0,0.0,0.0,0.0,0.0,0.0,0.0,0.0,0.0,0.0,0.0,0.0,0.0,0.0,0.0,0.0,0.0,0.0,0.0,0.0,0.0,0.0,0.0,0.0,0.0,0.0,0.0,0.0,0.0,0.0,0.0,0.0,0.0,0.0,0.0,0.0,0.0,0.0,0.0,0.0,0.0,0.0,0.0,0.0,0.0,0.0,0.0,0.0,0.0,0.0,0.0,0.0,0.0,0.0,0.0,0.0,0.0,0.0,0.1468,0.0,0.0,0.0,0.0,0.0,0.0,0.0,0.0,0.0,0.0,0.0,0.0,0.0,0.0,0.0,0.0,0.0,0.0,0.0,0.0,0.0,0.0,0.0,0.0,0.0,0.0,0.0,0.0,0.0,0.0,0.0,0.0,0.0,0.0,0.0,0.0,0.0,0.0,0.0,0.0,-0.1902,-0.1887,-0.1818,-0.1892,-0.1835,-0.1809,-0.1803,-0.1803,-0.1803,-0.1803,-0.1733,0.0,0.0,0.0,0.0,0.0,0.0,0.0,0.0,0.0,0.0,0.0,0.0,0.0,0.0,0.0,0.0,0.0,0.0,0.0,0.0,0.0,0.0,0.0,0.0,0.0,0.0,0.0,0.0,0.0,0.0,0.0,0.0,0.0,0.0,0.0,0.0,0.0,0.0,0.0,0.0,0.0,0.0,0.0,0.0,0.0,0.0,0.0,0.0,0.0,0.0,0.0,0.0,0.0,0.1744,0.1796,0.1778,0.1182,0.0795,0.0609,0.053,0.0855,0.1353,0.0389,0.0,0.0,0.0,0.0,0.0,0.0,0.0,0.0,0.0,0.0,0.0,0.0,0.0,0.0,0.0,0.0,0.0,0.0,0.0,0.0,0.0,0.0,0.0,0.0,0.0504,-0.0191,0.0,0.0,0.0,0.0,0.0,0.0,0.0,0.0,0.0,0.0,0.0,0.0,-0.2093,-0.2001,-0.1909,-0.201,-0.1913,-0.1844,-0.1844,-0.182,-0.1803,-0.1803,-0.1693,-0.1687,0.0,0.0,0.0,0.0,0.0,0.0,0.0,0.0,0.0,0.0,0.0,0.0,0.0,0.0,0.0,0.0,0.0,0.0,0.0,0.0,0.0,0.0,0.0,0.0,0.0,0.0,0.0,0.0,0.0,0.0,0.0,0.0,0.206,0.1745,0.0,0.0,0.0,0.0,0.0,0.0,0.0,0.0,0.0,0.0,0.0,0.0,0.0,0.0709,0.0984,0.1485,0.1492,0.1019,0.155,0.1789,0.1747,0.0413,-0.0915,-0.2137,-0.1357,0.0,-0.0108,-0.0025,0.0,0.0,0.0,0.0,0.0,0.0,0.0,0.0,0.0,0.0,0.0,0.0,0.0,0.0,0.0,0.0,0.0,0.0,0.0,0.0,0.0,0.0,-0.2109,-0.1125,-0.1001,-0.0913,0.0,-0.0,-0.0311,-0.1363,-0.1689,0.0,0.0,0.0,0.0,0.0,0.0,0.0,-0.2107,-0.2139,-0.2157,-0.2181,-0.2047,-0.1981,-0.1981,-0.1859,-0.1803,-0.1803,-0.1785,-0.1775,-0.1797,-0.1638,0.0,0.0,0.0,0.0,0.0,0.0,0.0,0.0,0.0,0.0,0.0,0.0,0.0,0.0,0.0,0.0,0.0,0.0,0.0,0.0,0.0,0.0,0.0,0.0,0.0,0.0,0.0,0.0,0.0,0.2384,0.2096,0.1825,0.1995,0.197,0.0,0.0,0.0,0.0,0.0,0.0,0.0,0.0,0.0,0.1176,0.0522,0.024,0.04,-0.0347,-0.0406,0.0223,0.0116,0.0265,0.0589,-0.0427,-0.1556,-0.2665,-0.2277,-0.1931,-0.1669,-0.1564,-0.1604,-0.176,0.0,0.0,0.0,0.0,-0.1845,-0.1973,-0.2345,-0.2517,0.0,0.0,0.0,0.0,0.0,0.0,0.0,0.0,0.0,0.0,0.0,0.0,0.0,-0.2144,-0.2085,-0.199,-0.1614,-0.1509,-0.1665,0.0,-0.2146,-0.2091,-0.2271,0.0,0.0,0.0,0.0,-0.2652,-0.2458,-0.2526,-0.2629,-0.2698,-0.2792,-0.2833,-0.2833,-0.2648,-0.2535,-0.2535,-0.2386,-0.2307,-0.2307,-0.2059,-0.1892,0.0,0.0,0.0,0.0,0.0,0.0,0.0,0.0,0.0,0.0,0.0,0.0,0.0,0.0,0.0,0.0,0.0,0.0,0.0,0.0,0.0,0.0,0.0,0.0,0.0,0.0,0.0,0.0,0.2157,0.2026,0.1817,0.2056,0.2073,0.0,0.0,0.0,0.0,0.0,0.0,0.0333,0.0105,0.018,0.0644,-0.0,-0.0322,-0.0343,-0.1669,-0.1969,-0.1253,-0.1747,-0.1721,-0.1281,-0.1956,-0.2629,-0.3297,-0.3269,-0.3255,-0.3257,-0.2954,-0.2786,-0.267,-0.2676,-0.268,-0.2695,-0.2771,-0.2879,-0.2997,-0.319,-0.3183,-0.3107,-0.3107,0.0,-0.3108,-0.3457,0.0,0.0,0.0,0.0,-0.3714,-0.337,-0.3155,-0.3086,-0.3223,-0.3255,-0.3144,-0.2788,-0.2805,-0.2862,0.0,-0.2665,-0.2671,-0.2736,0.0,0.0,0.0,0.0,-0.3256,-0.3026,-0.3102,-0.321,-0.333,-0.3476,-0.359,-0.359,-0.3351,-0.3167,-0.3109,-0.2923,-0.2781,-0.2702,-0.2367,-0.2156,-0.2065,0.0,0.0,0.0,0.0,0.0,0.0,0.0,0.0,0.0,0.0,0.0,0.0,0.0,0.0,0.0,0.0,0.0,0.0,0.0,0.0,0.0,0.0,0.0,0.0,0.0,0.0,0.0,0.0,0.0,0.1794,0.1818,0.0,0.0,0.0,0.0,0.1757,0.178,0.124,0.0075,-0.1604,-0.2505,-0.2471,-0.167,-0.1229,-0.1249,-0.1312,-0.2199,-0.3803,-0.385,-0.3845,-0.3836,-0.4506,-0.4835,-0.4882,-0.4798,-0.4771,-0.4718,-0.363,-0.3278,-0.3483,-0.3801,-0.4061,-0.4285,-0.4418,-0.4498,-0.4501,-0.4708,-0.4792,-0.4792,-0.4792,-0.4635,-0.4485,-0.4504,-0.4565,0.0,0.0,-0.4952,-0.5367,-0.493,-0.4792,-0.4798,-0.4771,-0.4771,-0.4408,-0.2995,-0.3108,-0.331,0.0,-0.336,-0.37,-0.3018,0.0,-0.3467,-0.343,-0.3635,-0.3763,-0.3744,-0.3863,-0.3931,-0.3941,-0.3863,-0.3782,-0.3782,-0.3594,-0.3361,-0.3119,-0.3093,-0.2965,-0.2707,-0.2367,-0.2189,-0.2181,-0.18,0.0,0.0,0.0,0.0,0.0,0.0,0.0,0.0,0.0,0.0,0.0,0.0,0.0,0.0,0.0,0.0,0.0,0.0,0.0,0.0,0.0,0.0,0.0,0.0,0.0,0.0,0.0,0.0,0.233,0.237,0.0,0.184,0.1254,0.0346,-0.0992,-0.0546,-0.0374,-0.0803,-0.1455,-0.2346,-0.3487,-0.3203,-0.3039,-0.3047,-0.3456,-0.4005,-0.4631,-0.4591,-0.4577,-0.4572,-0.4844,-0.4919,-0.4924,-0.4926,-0.492,-0.4899,-0.4749,-0.4554,-0.4408,-0.4538,-0.4624,-0.4741,-0.4791,-0.4787,-0.4803,-0.4888,-0.492,-0.492,-0.492,-0.5042,-0.5189,-0.5189,-0.5425,-0.5589,-0.5275,-0.5347,-0.5419,-0.5012,-0.492,-0.492,-0.492,-0.492,-0.4759,-0.4234,-0.4495,-0.4875,-0.4951,-0.458,-0.4135,-0.3801,-0.4005,-0.4144,-0.3986,-0.4148,-0.4212,-0.3967,-0.4194,-0.4377,-0.4377,-0.4615,-0.4778,-0.4778,-0.4493,-0.4214,-0.3948,-0.3768,-0.3551,-0.3236,-0.2939,-0.2697,-0.2524,-0.2177,-0.1813,0.0,0.0,0.0,0.0,0.0,0.0,0.0,0.0,0.0,0.0,0.0,0.0,0.0,0.0,0.0,0.0,0.0,0.0,0.0,0.0,0.0,0.0,0.0,0.0,0.0,0.0,0.1511,0.204,0.1916,0.1597,0.1115,0.0509,-0.0597,-0.2406,-0.2336,-0.221,-0.2214,-0.2299,-0.2905,-0.4106,-0.4124,-0.4129,-0.412,-0.4865,-0.5311,-0.5454,-0.5566,-0.564,-0.5621,-0.5707,-0.5635,-0.5462,-0.5588,-0.5623,-0.5623,-0.5896,-0.5857,-0.5617,-0.5491,-0.5508,-0.5623,-0.5623,-0.5623,-0.5623,-0.5623,-0.574,-0.5896,-0.5896,-0.6201,-0.6542,-0.6362,-0.6523,-0.6684,-0.6169,-0.6013,-0.5935,-0.5662,-0.5623,-0.5623,-0.5623,-0.5623,-0.5623,-0.5623,-0.577,-0.6047,-0.6393,-0.5734,-0.4991,-0.4563,-0.478,-0.4869,-0.4606,-0.4716,-0.473,-0.4473,-0.4666,-0.4826,-0.4826,-0.5119,-0.5309,-0.5309,-0.5003,-0.4728,-0.4535,-0.4188,-0.3904,-0.3687,-0.3223,-0.2875,-0.2697,-0.2325,-0.2055,-0.1864,0.0,0.0,0.0,0.0,0.0,0.0,0.0,0.0,0.0,0.0,0.0,0.0,0.0,0.0,0.0,0.0,0.0,0.0,0.0,0.0,0.0,0.0,0.0,0.0058,0.0312,0.0486,0.0798,0.0313,-0.0162,-0.0475,-0.1009,-0.1615,-0.2235,-0.3337,-0.4009,-0.4014,-0.4263,-0.4422,-0.4416,-0.4456,-0.4463,-0.4468,-0.5329,-0.5965,-0.6375,-0.6875,-0.7106,-0.7044,-0.7289,-0.7097,-0.662,-0.6901,-0.6979,-0.6979,-0.6979,-0.6979,-0.6994,-0.6713,-0.6774,-0.7021,-0.7021,-0.7021,-0.7063,-0.7063,-0.7447,-0.7919,-0.7919,-0.8275,-0.8602,-0.8077,-0.7912,-0.7787,-0.7196,-0.7021,-0.6979,-0.6979,-0.7021,-0.7021,-0.7021,-0.7021,-0.7021,-0.7021,-0.6841,-0.6732,-0.7004,-0.68,-0.627,-0.5297,-0.5449,-0.5631,-0.5383,-0.5329,0.0,-0.5329,-0.5316,-0.5309,-0.5309,-0.5309,-0.5309,-0.5309,-0.4987,-0.4814,-0.4794,-0.4295,-0.4005,-0.3992,-0.3191,-0.2729,-0.2729,-0.2272,-0.2167,-0.242,0.0,0.0,0.0,0.0,0.0,0.0,0.0,0.0,0.0,0.0,0.0,0.0,0.0,0.0,0.0,0.0,0.0,0.0,0.0,0.0,0.0,-0.2254,-0.2022,-0.0746,-0.0557,-0.0578,-0.0675,-0.0852,-0.1382,-0.2542,-0.2661,-0.2982,-0.3748,-0.3828,-0.39,-0.4008,-0.4345,-0.464,-0.4916,-0.557,-0.6047,-0.6285,-0.7115,-0.7583,-0.7666,-0.7694,-0.7666,-0.7641,-0.727,-0.7018,-0.6907,-0.6987,-0.6979,-0.6979,-0.6979,-0.6979,-0.6972,-0.6934,-0.6954,-0.7063,-0.7489,-0.7904,-0.8218,-0.8218,-0.8349,-0.848,-0.848,-0.8602,-0.8675,-0.8521,-0.8201,-0.787,-0.7704,-0.7321,-0.6979,-0.6979,-0.7321,-0.7663,-0.7663,-0.7743,-0.7788,-0.7788,-0.7754,-0.7878,-0.8464,-0.8342,-0.7625,-0.6156,-0.5996,-0.6048,-0.5961,-0.5731,0.0,-0.5591,-0.5411,-0.5309,-0.5309,-0.5309,-0.5309,-0.5309,-0.5204,-0.4977,-0.4549,-0.4369,-0.4188,-0.4005,-0.3771,-0.3534,-0.3295,-0.3157,-0.2978,0.0,0.0,0.0,0.0,0.0,0.0,0.0,0.0,0.0,0.0,0.0,0.0,0.0,0.0,0.0,0.0,0.0,0.0,0.0,0.0,0.0,0.0,-0.2651,-0.262,-0.1919,-0.1612,-0.1625,-0.2157,-0.2146,-0.2568,-0.3771,-0.3766,-0.3848,-0.4202,-0.4654,-0.4897,-0.4802,-0.5505,-0.6031,-0.6222,-0.6873,-0.732,-0.7507,-0.8324,-0.8751,-0.8751,-0.8856,-0.8797,-0.8561,-0.8218,-0.7923,0.0,-0.7724,-0.7607,-0.7405,-0.7599,-0.7565,0.0,0.0,0.0,0.0,0.0,-0.8439,-0.8716,-0.8716,-0.8837,-0.9039,-0.9039,-0.9199,-0.9319,-0.9119,-0.8797,-0.8521,-0.8316,-0.7979,-0.7724,-0.7724,-0.7979,-0.8234,-0.8234,-0.8179,-0.814,-0.8326,-0.8472,-0.8773,-0.9528,0.0,0.0,-0.7432,-0.713,-0.6848,-0.6283,-0.6221,-0.6124,-0.5759,-0.5564,-0.5411,-0.5329,-0.5309,-0.5309,-0.5309,-0.5164,0.0,0.0,0.0,-0.427,-0.4005,-0.3999,0.0,0.0,0.0,0.0,0.0,0.0,0.0,0.0,-0.2654,-0.2478,0.0,0.0,0.0,0.0,0.0,0.0,0.0,0.0,0.0,0.0,0.0,0.0,0.0,0.0,0.0,0.0,-0.2924,-0.3211,-0.319,-0.2749,-0.271,-0.3453,-0.3382,-0.3581,-0.4424,-0.4495,-0.446,-0.4361,-0.5716,-0.6446,-0.6127,0.0,0.0,0.0,0.0,-0.8337,-0.8341,-0.9181,-0.9625,-0.967,-1.0067,-1.0056,-0.9654,-0.9573,-0.9281,-0.884,-0.884,-0.8551,-0.8143,-0.8634,-0.8551,-0.8059,-0.7504,-0.7644,-0.8268,-0.8717,-0.8896,0.0,0.0,0.0,0.0,-0.967,-1.0016,-1.0341,-0.9895,-0.9667,-0.9462,-0.8977,-0.879,-0.8716,-0.8716,-0.8756,-0.8797,-0.8797,-0.8545,-0.844,-0.878,-0.9122,-0.9533,-1.0155,-0.9533,-0.8878,-0.8797,-0.849,-0.7815,-0.6593,-0.6768,-0.6737,-0.5915,-0.5785,-0.5665,-0.5443,0.0,0.0,-0.5363,-0.5084,-0.4987,-0.5217,-0.4736,-0.4342,-0.4094,-0.415,-0.4025,-0.3717,-0.4055,-0.4481,-0.4889,-0.4828,-0.5001,-0.538,-0.4066,-0.3409,0.0,0.0,0.0,0.0,0.0,0.0,0.0,0.0,0.0,0.0,0.0,0.0,0.0,0.0,0.0,-0.3709,-0.3771,-0.3823,-0.3837,-0.3833,-0.3792,-0.374,-0.3714,-0.4033,-0.4958,-0.5033,-0.546,-0.6422,-0.6803,-0.7115,-0.7427,-0.7974,-0.8228,-0.8127,-0.8912,-0.9301,-0.9243,-0.9836,-1.0291,-1.0618,0.0,0.0,-1.0513,-1.0022,-0.9756,-0.9659,-0.9659,-0.9623,-0.9534,-0.9623,-0.9623,-0.9464,-0.9039,-0.9408,-1.0215,-0.9938,-1.0114,-1.0447,-1.0115,-1.0259,-1.0618,-1.0618,-1.0942,-1.1309,-1.1223,-1.0634,0.0,-0.9864,-0.9271,-0.8716,-0.8716,-0.9039,-0.9359,-0.9359,-0.9628,-0.9894,-0.9952,-1.0049,-1.0147,-1.0264,-1.0147,-0.9843,-0.9439,-0.8939,-0.8351,-0.7691,-0.7437,-0.7121,-0.6503,-0.625,-0.6088,-0.6028,-0.6021,-0.5927,-0.5651,-0.5578,-0.5332,-0.492,-0.4787,-0.4693,-0.4635,-0.511,-0.5248,-0.4957,-0.5504,-0.5683,-0.5523,-0.576,-0.594,-0.5993,-0.5056,-0.4485,0.0,0.0,0.0,0.0,0.0,0.0,0.0,0.0,0.0,0.0,0.0,-0.465,-0.4481,0.0,-0.4373,-0.4497,-0.4431,-0.4476,-0.4665,-0.4915,-0.4804,-0.417,-0.4352,-0.4778,-0.548,-0.6112,-0.6666,-0.7065,-0.7875,-0.8369,-0.8396,-0.9004,-0.9319,-0.9249,-0.9725,-1.0041,-1.0214,-1.0475,-1.0811,-1.123,-1.0975,-1.0993,-1.1192,-1.0873,-1.074,-1.074,-1.074,-1.0606,-1.0328,-1.0328,-1.0632,-1.1031,-1.0831,-1.0749,-1.0811,-1.0835,-1.1018,-1.1201,-1.1038,-1.1096,-1.123,-1.123,-1.143,-1.1606,-1.1606,-1.1233,-1.0837,-1.0837,-1.0326,-0.9808,-0.9808,-0.9833,-0.9883,-0.9883,-1.0127,-1.0283,-1.0283,-1.0283,-1.0283,-1.0283,-1.0283,-1.0196,-0.9961,-0.9677,-0.9119,-0.8077,-0.7762,-0.739,-0.6686,-0.6505,-0.6357,-0.6209,-0.6196,-0.6135,-0.5981,-0.5932,-0.5812,-0.5518,-0.5498,-0.5498,-0.5498,-0.5778,-0.59,-0.5759,-0.6041,-0.6189,-0.6152,-0.6337,-0.6485,-0.6587,-0.615,-0.565,0.0,0.0,0.0,0.0,0.0,0.0,0.0,-0.5354,-0.5435,-0.5027,-0.524,-0.5491,-0.5477,-0.5164,-0.4972,-0.5166,-0.5114,-0.519,-0.5557,-0.586,-0.5717,-0.49,-0.5267,-0.5768,-0.623,-0.7265,-0.7822,-0.7592,-0.8833,-0.9512,-0.9263,-0.9935,-1.0283,-1.0283,-1.0283,-1.0478,-1.0908,-1.0908,-1.1172,-1.1734,-1.1734,-1.1783,-1.1861,-1.1861,-1.1861,-1.1861,-1.1861,-1.1628,-1.1213,-1.1213,-1.1738,-1.253,-1.253,-1.2109,-1.1589,-1.1832,-1.19,-1.189,-1.193,-1.1994,-1.2075,-1.2075,-1.2037,-1.2073,-1.2152,-1.1969,-1.1734,-1.1856,-1.1496,-1.1035,-1.1035,-1.0781,-1.0547,-1.043,-1.0351,-1.0312,-1.0293,-1.0283,-1.0283,-1.0283,-1.0283,-1.0283,-1.0283,-1.0196,-0.9686,-0.8275,-0.8036,-0.7732,-0.678,-0.6673,-0.658,-0.6391,-0.6364,-0.6337,-0.6283,-0.623,-0.6196,-0.6196,-0.6196,-0.6196,-0.6196,-0.625,-0.6277,-0.6277,-0.6337,-0.6478,-0.6673,-0.6673,-0.6794,-0.7021,-0.7081,-0.6729,-0.7909,-0.7065,-0.6332,-0.664,-0.639,-0.6157,0.0,-0.6382,-0.6048,-0.581,-0.5619,-0.553,-0.5641,-0.5476,-0.548,-0.5913,-0.5954,-0.6067,-0.6351,-0.6403,-0.638,-0.6279,-0.6641,-0.7064,-0.7551,-0.8042,-0.8588,-0.9274,-0.9498,-0.9768,-1.0147,-1.0254,-1.0283,-1.0283,-1.0283,-1.0478,-1.0908,-1.0908,-1.1328,-1.2112,-1.2112,-1.2353,-1.2734,-1.2734,-1.2734,-1.2734,-1.2734,-1.2734,-1.2686,-1.2686,-1.3022,-1.3611,-1.3611,-1.3896,-1.4156,-1.3284,-1.2947,-1.2939,-1.3136,-1.3491,-1.3816,-1.3816,-1.3703,-1.3657,-1.4176,-1.3303,-1.224,-1.2779,-1.224,-1.1528,-1.1528,-1.1498,-1.1361,-1.0928,-1.0567,-1.0312,-1.0303,-1.0283,-1.0283,-1.0283,-1.0283,-1.0283,-1.0283,-0.9922,-0.9359,-0.8724,-0.8594,-0.8211,-0.7099,-0.6974,-0.6961,-0.6927,-0.6927,-0.682,-0.6567,-0.6344,-0.6196,-0.6196,-0.6196,-0.6196,-0.6196,-0.6445,-0.654,-0.654,-0.6794,-0.6941,-0.6974,-0.6974,-0.6987,-0.6985,-0.7295,-0.7402,-0.8585,-0.7972,-0.7489,-0.7585,-0.7283,-0.7011,-0.7261,-0.7216,-0.7074,-0.6833,-0.6833,-0.6954,-0.7127,-0.6883,-0.6815,0.0,-0.7121,-0.7092,-0.7444,-0.7492,-0.7579,-0.7829,-0.8239,-0.8426,-0.8216,-0.8777,-0.9528,-1.04,-1.0733,-1.0967,-1.1169,-1.118,-1.1155,-1.1113,-1.1123,-1.1307,-1.167,-1.168,-1.1992,-1.2607,-1.2956,-1.3226,-1.342,-1.3789,-1.3931,-1.3931,-1.3931,-1.3931,-1.3931,-1.3931,-1.4107,-1.4329,-1.4329,-1.4468,-1.463,-1.4191,-1.4023,-1.4036,-1.4116,-1.4272,-1.4451,-1.4451,-1.4405,-1.4329,-1.419,-1.3689,-1.3087,-1.3003,-1.246,-1.1953,-1.1953,-1.1802,-1.1557,-1.1328,-1.0807,-1.0375,-1.0583,-1.0459,-1.0283,-1.0283,-1.0283,-1.0283,-1.0283,-1.0118,-0.9804,-0.9239,-0.8635,-0.7946,-0.7105,-0.6979,-0.6979,-0.6979,-0.6979,-0.6974,-0.6854,-0.6727,-0.666,-0.666,-0.666,-0.666,-0.666,-0.6774,-0.684,-0.684,-0.6961,-0.6979,-0.6979,-0.6979,-0.6979,-0.6985,-0.7328,-0.7562,-0.8925,-0.8601,-0.8374,-0.8224,-0.8116,-0.805,-0.8035,-0.823,-0.8314,-0.8059,-0.8037,-0.8112,-0.8381,-0.8066,-0.7886,-0.8293,-0.8254,-0.8199,-0.835,-0.8503,-0.8702,-0.899,-0.9314,-0.9495,-0.9414,-0.9777,-1.0396,-1.1238,-1.1608,-1.1811,-1.1811,-1.1945,-1.1981,-1.194,-1.208,-1.2331,-1.2711,-1.2711,-1.2935,-1.3382,-1.3826,-1.405,-1.405,-1.4514,-1.4698,-1.4698,-1.4698,-1.4698,-1.4698,-1.4698,-1.4789,-1.4971,-1.4971,-1.5062,-1.5197,-1.5197,-1.5107,-1.4971,-1.5152,-1.5197,-1.5197,-1.5197,-1.5062,-1.4926,-1.4641,-1.4318,-1.3967,-1.3525,-1.3007,-1.2579,-1.2449,-1.2168,-1.1939,-1.1822,-1.1388,-1.1022,-1.1062,-1.085,-1.0675,-1.0675,-1.0537,-1.0459,-1.0459,-1.0352,-1.0118,-0.9597,-0.8837,-0.807,-0.7363,-0.7112,-0.6979,-0.6979,-0.6979,-0.6979,-0.6979,-0.6979,-0.6979,-0.6979,-0.6979,-0.6979,-0.6979,-0.6979,-0.6979,-0.6979,-0.6979,-0.6979,-0.6979,-0.6979,-0.7061,-0.7154,-0.7455,-0.7762,-0.8889,-0.8749,-0.8628,-0.8454,-0.8925,-0.9391,-0.9184,-0.9512,-0.9778,-0.9578,-0.8932,-0.8512,-0.8889,-0.8549,-0.8308,-0.8711,-0.9209,-0.9354,-0.8856,-0.922,-0.9552,-0.9581,-0.9604,-1.0141,0.0,-1.1183,-1.1133,-1.1718,-1.1799,-1.1811,-1.1811,-1.2309,-1.2569,-1.2591,-1.3094,-1.3549,-1.4024,-1.4036,-1.4227,-1.4663,-1.4663,-1.4652,-1.4652,-1.4709,-1.4698,-1.4698,-1.4698,-1.4698,-1.4698,-1.4698,-1.505,-1.5588,-1.5588,-1.5908,-1.6436,-1.6436,-1.6107,-1.5676,-1.6238,-1.6436,-1.6436,-1.6436,-1.6051,-1.5676,-1.6238,-1.5611,-1.4652,-1.4663,-1.4226,-1.3616,-1.3045,-1.2852,-1.2734,-1.2305,-1.2517,-1.2574,-1.1748,-1.1577,-1.1567,-1.1567,-1.1182,-1.0889,-1.0889,-1.0547,-1.0118,-0.9597,-0.9478,-0.9079,-0.7995,-0.7363,-0.6979,-0.6979,-0.6979,-0.6979,-0.6979,-0.6979,-0.6979,-0.6979,-0.6979,-0.6979,-0.6979,-0.6979,-0.6979,-0.6979,-0.6979,-0.6979,-0.6979,-0.6979,-0.7168,-0.7506,-0.7776,-0.8076,-0.8951,-0.92,-0.953,-0.9363,-0.9891,-1.037,-1.0158,-1.0425,-1.054,-0.9975,-0.9749,-0.9675,-0.9717,-0.9338,-0.9251,-1.0044,-1.0519,-1.0826,-1.086,-1.1137,-1.1336,-1.1336,-1.1085,0.0,0.0,0.0,0.0,-1.2684,-1.272,-1.2913,-1.3289,-1.3484,-1.3756,-1.4047,-1.4245,-1.4359,-1.4508,-1.4508,-1.4586,-1.4698,-1.5096,-1.5511,-1.5876,-1.5876,-1.5876,-1.5876,-1.5876,-1.5876,-1.5876,-1.5876,-1.6008,-1.6194,-1.6194,-1.6337,-1.6522,-1.6522,-1.638,-1.6238,-1.6423,-1.6522,-1.6522,-1.6522,-1.638,-1.6151,-1.5952,-1.5632,-1.5141,-1.4329,-1.3956,-1.3637,-1.3065,-1.2881,-1.2842,-1.2695,-1.2765,-1.2817,-1.2524,-1.2133,-1.1786,-1.1616,-1.1489,-1.1338,-1.1338,-1.1263,-1.1081,-1.0912,-0.9482,-0.8316,-0.7961,-0.7363,-0.6979,-0.6979,-0.6979,-0.6979,-0.6979,-0.6979,-0.6979,-0.6979,-0.6979,-0.6979,-0.6979,-0.6979,-0.6979,-0.6979,-0.6979,-0.7121,-0.7315,-0.7315,-0.7475,-0.7782,-0.8083,-0.8277,-0.9392,-0.9778,-1.0213,-1.0348,-1.0933,-1.1429,-1.1249,-1.1301,-1.1254,-1.0778,-1.0345,-1.0106,-1.024,-0.9886,-0.9872,-1.0753,-1.1292,-1.1683,-1.1873,-1.2124,-1.2337,-1.2459,-1.2139,-1.2102,0.0,0.0,0.0,-1.3138,-1.3421,-1.3672,-1.4072,-1.4462,-1.4796,-1.512,-1.5296,-1.5377,-1.5332,-1.5344,-1.5344,-1.5332,-1.5732,-1.6139,-1.6522,-1.6522,-1.6522,-1.6522,-1.6522,-1.6522,-1.6522,-1.6522,-1.6522,-1.6522,-1.6522,-1.6522,-1.6522,-1.6522,-1.6522,-1.6522,-1.6522,-1.6522,-1.6522,-1.6522,-1.6522,-1.6423,-1.6051,-1.5908,-1.5688,-1.4457,-1.4097,-1.392,-1.3104,-1.2881,-1.2881,-1.2881,-1.2916,-1.2909,-1.2909,-1.2603,-1.2262,-1.2086,-1.1949,-1.1797,-1.1797,-1.1714,-1.1606,-1.1606,-1.0089,-0.8851,-0.8594,-0.8034,-0.7556,-0.7238,-0.7181,-0.7134,-0.7027,-0.6979,-0.6979,-0.6979,-0.6979,-0.6979,-0.6979,-0.6979,-0.7074,-0.7174,-0.7181,-0.7328,-0.7629,-0.7629,-0.7789,-0.8096,-0.8283,-0.843,-1.0164,-1.046,-1.0762,-1.1326,-1.2029,-1.2532,-1.2341,-1.2105,-1.191,-1.1811,-1.0626,-0.9777,-1.0416,-1.0178,-1.0123,-1.0833,-1.1576,-1.2056,-1.2038,-1.2308,-1.2654,-1.3041,-1.2704,-1.2634,-1.3185,-1.3248,0.0,-1.3273,0.0,-1.411,-1.4173,-1.5167,-1.5706,-1.5731,-1.6245,-1.6522,-1.6522,-1.6522,-1.6522,-1.6522,-1.6522,-1.6522,-1.6522,-1.6522,-1.6522,-1.6522,-1.6522,-1.6522,-1.6522,-1.6522,-1.6522,-1.6522,-1.6522,-1.6522,-1.6522,-1.6522,-1.6522,-1.6522,-1.6522,-1.6522,-1.6522,-1.6522,-1.6522,-1.6522,-1.6522,-1.6522,-1.625,-1.5062,-1.4698,-1.4433,-1.3248,-1.2929,-1.2881,-1.2881,-1.2881,-1.2881,-1.2881,-1.2881,-1.2881,-1.2881,-1.2549,-1.2219,-1.2219,-1.1904,-1.1675,-1.1675,-1.1214,-1.0606,-0.9831,-0.929,-0.8623,-0.774,-0.7578,-0.7456,-0.7172,-0.7096,-0.709,-0.7152,-0.7096,-0.709,-0.711,-0.711,-0.7244,-0.7527,-0.7578,-0.7734,-0.7997,-0.7997,-0.82,-0.8497,-0.8497,-0.8595,-1.044,-1.1305,-1.2256,-1.2401,-1.2992,-1.3359,-1.2618,-1.2393,-1.1994,-1.0737,-0.9986,-0.9561,-0.9687,-0.9603,-0.9991,-1.1351,-1.2359,-1.3213,-1.395,-1.4006,-1.3984,-1.411,-1.3461,-1.3245,-1.3821,-1.3871,0.0,0.0,-1.4236,-1.445,-1.5229,-1.5542,-1.5881,-1.6296,-1.6446,-1.6522,-1.6522,-1.6522,-1.6522,-1.6522,-1.6522,-1.6522,-1.6522,-1.6522,-1.6522,-1.6522,-1.6522,-1.6522,-1.6522,-1.6522,-1.6522,-1.6522,-1.6522,-1.6522,-1.6522,-1.6522,-1.6522,-1.6522,-1.6522,-1.6522,-1.6522,-1.6522,-1.6522,-1.6522,-1.6522,-1.6522,-1.6337,-1.5588,-1.5062,-1.4525,-1.3779,-1.3238,-1.2881,-1.2881,-1.2881,-1.2881,-1.2881,-1.2881,-1.2881,-1.2881,-1.2793,-1.2715,-1.2715,-1.2617,-1.2586,-1.2586,-1.2444,-1.1921,-1.0687,-1.0013,-0.9571,-0.9292,-0.8837,-0.8716,-0.9112,-0.8444,-0.8326,-0.9133,-0.8393,-0.8114,-0.8392,-0.8399,-0.8222,-0.7809,-0.8792,-0.919,-0.9021,-0.9539,-0.966,-0.9446,-0.9446,-0.9186,-1.1481,-1.2327,-1.3076,-1.3362,-1.3734,-1.3787,-1.2805,-1.2286,-1.1646,-1.0347,-0.9524,-0.9085,-0.9348,-0.9517,-1.0004,-1.1165,-1.2419,-1.3522,-1.4251,-1.4294,-1.431,-1.447,-1.3958,-1.3709,-1.406,-1.4311,-1.4777,0.0,-1.5095,-1.504,-1.5668,-1.5919,-1.6195,-1.6509,-1.6522,-1.6522,-1.6522,-1.6522,-1.6522,-1.6522,-1.6752,-1.6837,-1.6837,-1.6837,-1.6837,-1.6837,0.0,-1.6522,-1.6522,-1.6522,-1.6522,-1.6522,-1.6522,-1.6522,-1.6522,-1.6522,-1.6522,-1.6522,-1.6522,-1.6522,-1.6522,-1.6522,-1.6522,-1.6522,-1.6522,-1.6522,-1.638,-1.5776,-1.5186,-1.456,-1.3956,-1.3324,-1.2881,-1.2881,-1.2881,-1.2881,-1.2881,-1.2881,-1.2881,-1.2881,-1.2881,-1.2881,-1.2881,-1.2881,-1.2881,-1.2881,-1.2881,-1.2599,-1.1827,-1.1118,-1.057,-1.0183,-0.9792,-0.9634,-0.9885,-0.9334,-0.9265,-0.9914,-0.9379,-0.9138,-0.932,-0.9328,-0.9221,-0.9004,-0.9745,-1.0066,-1.0037,-1.0368,-1.0324,-0.9814,-0.9814,-0.9614,-1.2779,-1.3289,-1.3578,-1.4101,-1.4245,-1.3941,-1.2842,-1.2002,-1.118,-1.0244,-0.9176,-0.861,-0.9284,-0.9664,-1.0159,-1.0932,-1.2317,-1.3452,-1.3983,-1.4048,-1.4181,-1.4533,-1.4335,-1.4256,-1.4392,-1.4765,-1.5466,-1.6638,-1.6228,-1.5916,-1.5916,-1.633,-1.6552,-1.6522,-1.6522,-1.6522,-1.6522,-1.6552,-1.6552,-1.6522,-1.7105,-1.7394,-1.7312,-1.7394,-1.7394,-1.7325,0.0,0.0,-1.6522,-1.6607,-1.6607,-1.6522,-1.6595,-1.6552,-1.6522,-1.6522,-1.6522,-1.6522,-1.6522,-1.6522,-1.6522,-1.6522,-1.6522,-1.6522,-1.6522,-1.6522,-1.638,-1.5864,-1.5276,-1.4698,-1.4097,-1.3467,-1.3027,-1.2929,-1.2881,-1.2881,-1.2881,-1.2881,-1.2881,-1.2881,-1.2881,-1.2881,-1.2881,-1.2881,-1.2881,-1.2881,-1.2881,-1.2881,-1.2881,-1.2344,-1.1639,-1.0828,-1.064,-1.0513,-1.0329,-1.016,-1.0152,-1.0357,-1.0214,-1.016,-1.0157,-1.0157,-1.0263,-1.0439,-1.0649,-1.0802,-1.0914,-1.0914,-1.0568,-0.9909,-0.9909,-0.9865,-1.3204,-1.3772,-1.4323,-1.4428,-1.4453,-1.4015,-1.2419,-1.1828,-1.1187,-0.9606,-0.8809,-0.861,-0.9284,-0.9664,-1.0458,-1.2164,-1.3148,-1.4106,-1.5276,-1.5124,-1.4907,-1.4982,-1.4775,-1.4946,-1.582,-1.5711,0.0,0.0,-1.7316,-1.7003,-1.7003,-1.7094,-1.6951,-1.6522,-1.6522,-1.6522,-1.6522,-1.6951,-1.6951,-1.6522,-1.7504,-1.7747,-1.7312,-1.7747,-1.7828,-1.7555,-1.7472,0.0,-1.6565,-1.7154,-1.707,-1.6552,-1.6993,-1.6879,-1.6522,-1.6522,-1.6522,-1.6522,-1.6522,-1.6522,-1.6522,-1.6522,-1.6522,-1.6522,-1.6522,-1.6522,-1.6466,-1.638,-1.5908,-1.532,-1.4698,-1.4233,-1.371,-1.3075,-1.2881,-1.2881,-1.2881,-1.2881,-1.2881,-1.2881,-1.2881,-1.2881,-1.2881,-1.2881,-1.2881,-1.2881,-1.2881,-1.2881,-1.2881,-1.2774,-1.2638,-1.2473,-1.1929,-1.1795,-1.2349,-1.1526,-1.1377,-1.233,-1.1526,-1.1131,-1.1452,-1.1461,-1.1251,-1.0722,-1.1889,-1.2181,-1.1616,-1.1616,-1.1266,-1.0618,-1.0618,-1.032,-1.3692,-1.4205,-1.4488,-1.4488,-1.4488,-1.4055,-1.2383,-1.1855,-1.1237,-0.9545,-0.8852,-0.8614,-0.8834,-0.9483,-1.0285,-1.1137,-1.2403,-1.3615,-1.4618,-1.4672,-1.4831,-1.5552,-1.5563,-1.5855,-1.6747,-1.6898,-1.7396,-1.843,-1.8302,-1.8027,-1.7747,-1.7463,-1.7188,-1.6909,-1.6909,-1.7034,-1.7353,-1.7585,-1.7585,-1.7353,-1.8145,-1.838,-1.8145,-1.8419,-1.8366,-1.8092,-1.7746,0.0,-1.7111,-1.7464,-1.7313,-1.6951,-1.7188,-1.6951,-1.6522,-1.6522,-1.6522,-1.6522,-1.6522,-1.6522,-1.6522,-1.6522,-1.6522,-1.6522,-1.6522,-1.6522,-1.6522,-1.6522,-1.6051,-1.5531,-1.5095,-1.4571,-1.3926,-1.308,-1.2899,-1.2881,-1.2881,-1.2881,-1.2881,-1.2881,-1.2881,-1.2881,-1.2881,-1.2881,-1.2881,-1.2881,-1.2881,-1.2881,-1.2881,-1.2881,-1.2881,-1.2881,-1.2559,-1.251,-1.2881,-1.2378,-1.2301,-1.2871,-1.2378,-1.2195,-1.2335,-1.2344,-1.2197,-1.19,-1.2569,-1.2715,-1.2344,-1.2344,-1.1832,-1.0813,-1.1166,-1.0965,-1.4129,-1.4545,-1.4556,-1.4578,-1.4567,-1.4121,-1.2511,-1.1939,-1.128,-0.9641,-0.8994,-0.8697,-0.8634,-0.9312,-0.9999,-1.0345,-1.1623,-1.2936,-1.3945,-1.4195,-1.4703,-1.5895,-1.6264,-1.6669,-1.7325,-1.7817,0.0,-1.9006,-1.908,0.0,-1.8302,-1.7747,-1.7463,-1.7463,-1.7463,-1.7666,-1.8106,-1.8224,-1.8224,-1.8106,-1.8765,-1.9006,-1.8893,-1.9006,-1.8991,-1.8812,-1.8296,0.0,0.0,-1.8048,-1.7759,-1.7312,-1.7422,-1.7076,-1.6522,-1.6522,-1.6522,-1.6522,-1.6522,-1.6522,-1.6522,-1.6522,-1.6522,-1.6522,-1.6522,-1.6522,-1.6522,-1.6522,-1.6151,-1.5708,-1.5404,-1.4971,-1.4337,-1.3158,-1.3022,-1.3123,-1.2929,-1.2881,-1.2929,-1.3065,-1.3104,-1.3104,-1.3104,-1.3104,-1.3065,-1.2929,-1.2881,-1.2881,-1.2881,-1.2881,-1.2881,-1.2881,-1.2881,-1.2881,-1.2881,-1.2881,-1.2881,-1.2881,-1.2881,-1.2881,-1.2881,-1.2881,-1.2881,-1.2881,-1.2881,-1.2881,-1.2881,-1.2725,-1.2098,-1.1015,-1.1566,-1.1516,-1.4414,-1.4687,-1.4717,-1.4822,-1.4766,-1.4268,-1.2655,-1.2059,-1.1394,-0.966,-0.9023,-0.8893,-0.9246,-0.9234,-0.9805,-1.1671,-1.1946,-1.2629,-1.4781,-1.4883,-1.5024,-1.5741,-1.6416,-1.7069,-1.7626,-1.7916,-1.8535,-1.9566,-1.9639,0.0,-1.8855,-1.8341,-1.8027,-1.8027,-1.8027,-1.8066,-1.8106,-1.8574,-1.8574,-1.8106,-1.9132,-1.9369,-1.893,-1.9406,-1.9627,-1.9625,-1.9534,0.0,0.0,-1.9508,-1.863,-1.7353,-1.7827,-1.7394,-1.6522,-1.6522,-1.6522,-1.6522,-1.6522,-1.6522,-1.6522,-1.6522,-1.6522,-1.6522,-1.6522,-1.6522,-1.6522,-1.6522,-1.6479,-1.6225,-1.5504,-1.5772,-1.5688,-1.344,-1.3449,-1.3805,-1.3075,-1.2881,-1.3055,-1.36,-1.3732,-1.3732,-1.3732,-1.3732,-1.3552,-1.2968,-1.2881,-1.2881,-1.2881,-1.2881,-1.2881,-1.2881,-1.2881,-1.2881,-1.2881,-1.2881,-1.2881,-1.2881,-1.2881,-1.2881,-1.2881,-1.2881,-1.2881,-1.2881,-1.2881,-1.2881,-1.2881,-1.2236,-1.1814,-1.1715,-1.1765,-1.1774,-1.3629,-1.4274,-1.4717,-1.4766,-1.4794,-1.4372,-1.2689,-1.2141,-1.1506,-0.9689,-0.9122,-0.8942,-0.8821,-0.9123,-0.9748,-1.0823,-1.1212,-1.1978,-1.3737,-1.4106,-1.4588,-1.5679,-1.6751,-1.7619,-1.8235,0.0,-1.9244,-1.969,0.0,0.0,-1.9406,-1.8855,-1.8574,-1.8574,-1.8574,-1.8727,-1.9043,-1.9281,-1.9281,-1.908,-1.9479,-1.9603,-1.9406,-1.9603,-1.9713,-1.9693,-1.9693,0.0,0.0,-1.9701,-1.9145,-1.8263,-1.8145,-1.7626,-1.6951,-1.6637,-1.6522,-1.6522,-1.6522,-1.6522,-1.6522,-1.6522,-1.6522,-1.6522,-1.6522,-1.6522,-1.6522,-1.6522,-1.6522,-1.6423,-1.6114,-1.6274,-1.6268,-1.5315,-1.4576,-1.4078,-1.3988,-1.3695,-1.36,-1.4236,-1.4329,-1.4236,-1.3862,-1.3815,-1.36,-1.2968,-1.2881,-1.2881,-1.2881,-1.2881,-1.2881,-1.2881,-1.2881,-1.2881,-1.2881,-1.2881,-1.2881,-1.2881,-1.2881,-1.2881,-1.2881,-1.2881,-1.2881,-1.2881,-1.2881,-1.2881,-1.2881,-1.2618,-1.2236,-1.1814,-1.2236,-1.2246,-1.3129,-1.4023,-1.4717,-1.4756,-1.4616,-1.409,-1.2641,-1.201,-1.1288,-0.9644,-0.9218,-0.9026,-0.8575,-0.8958,-0.9563,-1.0288,-1.0638,-1.1513,-1.3483,-1.3772,-1.4367,-1.59,-1.6864,-1.7717,-1.8495,-1.9251,-1.969,-1.969,0.0,0.0,-1.969,-1.9332,-1.9132,-1.9132,-1.9132,-1.9332,-1.969,-1.969,-1.969,-1.969,-1.969,-1.969,-1.969,-1.969,-1.969,-1.969,0.0,0.0,0.0,-1.969,-1.9354,-1.876,-1.8288,-1.7666,-1.7014,-1.6642,-1.6522,-1.6522,-1.6522,-1.6522,-1.6522,-1.6522,-1.6522,-1.6522,-1.6522,-1.6522,-1.6522,-1.6522,-1.6522,-1.6522,-1.6522,-1.6492,-1.6522,-1.652,-1.5487,-1.4558,-1.4663,-1.4376,-1.4236,-1.4824,-1.4971,-1.4789,-1.419,-1.405,-1.3779,-1.3017,-1.2881,-1.2881,-1.2881,-1.2881,-1.2881,-1.2881,-1.2881,-1.2881,-1.2881,-1.2881,-1.2881,-1.2881,-1.2881,-1.2881,-1.2881,-1.2666,-1.2666,-1.2881,-1.2666,-1.2666,-1.2881,-1.2881,-1.2618,-1.2138,-1.2666,-1.2608,-1.3244,-1.4092,-1.4737,-1.485,-1.4203,-1.3308,-1.2485,-1.1585,-1.0621,-0.9519,-0.9303,-0.9169,-0.8771,-0.8693,-0.9184,-1.065,-1.0447,-1.1273,-1.4607,-1.4335,-1.4531,-1.6553,-1.6734,-1.7105,-1.81,-1.9122,-1.969,-1.969,0.0,0.0,-1.969,-1.969,-1.969,-1.969,-1.969,-1.969,-1.969,-1.969,-1.969,-1.969,-1.969,-1.969,-1.969,-1.969,-1.969,0.0,0.0,0.0,0.0,-1.969,-1.9273,-1.8584,-1.8221,-1.7424,-1.6491,-1.6506,-1.6522,-1.6522,-1.6522,-1.6522,-1.6522,-1.6522,-1.6522,-1.6522,-1.6522,-1.6522,-1.6522,-1.6522,-1.6522,-1.6522,-1.6522,-1.6522,-1.6485,-1.651,-1.6021,-1.541,-1.4835,-1.4698,-1.488,-1.5454,-1.5588,-1.541,-1.4789,-1.4709,-1.4294,-1.3065,-1.2881,-1.2881,-1.2881,-1.2881,-1.2881,-1.2881,-1.2881,-1.2881,-1.2881,-1.2881,-1.2881,-1.2881,-1.2881,-1.2881,-1.2881,-1.2187,-1.2129,-1.2881,-1.2187,-1.2187,-1.2881,-1.2881,-1.2881,-1.2881,-1.2881,-1.2881,-1.1708,-1.2404,-1.3064,-1.3107,-1.2922,-1.2523,-1.1674,-1.119,-1.06,-0.951,-0.9218,-0.9057,-0.8748,-0.8771,-0.9455,-1.1359,-1.1466,-1.223,-1.4809,-1.4956,-1.5133,-1.6015,-1.7345,-1.8455,0.0,0.0,-2.0124,0.0,0.0,0.0,-2.0565,-2.0296,-2.0124,-2.0124,-1.9839,-1.9839,-2.0089,-1.9839,-1.969,-1.969,-1.969,-1.969,-1.969,-1.969,0.0,0.0,0.0,0.0,0.0,-1.969,-1.9551,-1.9339,-1.9246,-1.8683,-1.7871,-1.7411,-1.7179,-1.7034,-1.7034,-1.6795,-1.6522,-1.6522,-1.6522,-1.6522,-1.6522,-1.6522,-1.6522,-1.6522,-1.6522,-1.6522,-1.6522,-1.6522,-1.6491,-1.651,-1.6057,-1.5676,-1.5876,-1.5599,-1.5499,-1.6095,-1.6238,-1.5876,-1.488,-1.4698,-1.4294,-1.3065,-1.2881,-1.2881,-1.2881,-1.2881,-1.2881,-1.2881,-1.2881,-1.2881,-1.2881,-1.2881,-1.2881,-1.2881,-1.2881,-1.2881,-1.2881,-1.2666,-1.2666,-1.2881,-1.2666,-1.2666,-1.2881,-1.2881,-1.2881,-1.2881,-1.2881,-1.2881,-1.0923,-1.1623,-1.2265,-1.2231,-1.202,-1.1686,-1.115,-1.0724,-1.0241,-0.952,-0.9312,-0.9159,-0.8902,-0.8913,-0.9468,-1.0999,-1.1379,-1.2289,-1.4602,-1.5018,-1.5453,-1.6481,-1.8055,0.0,0.0,-2.0276,0.0,0.0,0.0,0.0,-2.0959,-2.0715,-2.0649,-2.0797,-2.0227,-2.007,-2.0314,-1.9909,-1.969,-1.969,-1.969,-1.969,-1.969,-1.969,0.0,0.0,0.0,0.0,0.0,-1.969,-1.969,-1.9705,-1.9678,-1.9409,-1.8936,-1.8221,-1.7826,-1.7585,-1.7394,-1.7076,-1.6752,-1.6552,-1.6522,-1.6522,-1.6522,-1.6522,-1.6522,-1.6522,-1.6522,-1.6522,-1.6522,-1.6522,-1.6522,-1.6522,-1.6194,-1.6051,-1.6423,-1.6194,-1.6051,-1.6423,-1.6522,-1.6107,-1.4926,-1.4698,-1.4294,-1.3065,-1.2881,-1.2881,-1.2881,-1.2881,-1.2881,-1.2881,-1.2881,-1.2881,-1.2881,-1.2881,-1.2881,-1.2881,-1.2881,-1.2881,-1.2881,-1.2618,-1.2608,-1.2881,-1.2618,-1.2608,-1.2881,-1.2881,-1.2881,-1.2881,-1.2881,-1.2969,0.0,-1.1477,-1.2011,-1.1958,-1.1379,-1.082,-1.082,-1.0233,0.0,-0.9525,-0.9491,-0.9412,-0.9226,-0.914,-0.9336,-1.0111,-1.0627,-1.1777,-1.4307,-1.4817,-1.5686,-1.7733,-1.8855,0.0,-2.0042,-2.0654,0.0,0.0,0.0,0.0,-2.1103,-2.1055,-2.1213,-2.1628,-2.083,-2.0366,-2.0366,-2.0,-1.9782,-1.9747,-1.9747,-1.9726,-1.969,-1.969,0.0,0.0,0.0,0.0,0.0,-1.969,-1.969,-1.9705,-1.9701,-1.9677,-1.9625,-1.8921,-1.8481,-1.812,-1.7585,-1.7394,-1.7271,-1.671,-1.6522,-1.6522,-1.6522,-1.6522,-1.6522,-1.6522,-1.6522,-1.6522,-1.6522,-1.6522,-1.6522,-1.6522,-1.6522,-1.6522,-1.6522,-1.6522,-1.6522,-1.6522,-1.6522,-1.6107,-1.4926,-1.4698,-1.4294,-1.3065,-1.2881,-1.2881,-1.2881,-1.2881,-1.2881,-1.2881,-1.2881,-1.2881,-1.2881,-1.2881,-1.2881,-1.2881,-1.2881,-1.2881,-1.2881,-1.2236,-1.2187,-1.2881,-1.2236,-1.2236,-1.2881,-1.2881,-1.29,-1.293,-1.293,-1.3194,-1.0198,0.0,-1.0339,-1.0273,-1.0121,-0.9992,0.0,-0.9745,-0.9534,-0.9508,-0.934,-0.9351,-0.9846,-0.9406,-0.9752,-1.2194,-1.2216,-1.2941,-1.5781,-1.6706,-1.7467,-1.8547,-1.9382,-2.0102,-2.0702,-2.1178,0.0,0.0,0.0,-2.1291,-2.1945,-2.1628,-2.1658,-2.2106,-2.1598,-2.129,-2.129,-2.0894,-2.0532,-2.0158,-2.0158,-2.0,-1.969,-1.969,0.0,0.0,0.0,0.0,-1.969,-1.969,-1.969,-1.969,-1.9713,-1.9707,-1.967,-1.9516,-1.9382,-1.9257,-1.8721,-1.8263,-1.7827,-1.7312,-1.6837,-1.6522,-1.6522,-1.6522,-1.6522,-1.6522,-1.6522,-1.6522,-1.6522,-1.6522,-1.6522,-1.6522,-1.6522,-1.6522,-1.6522,-1.6522,-1.6522,-1.6522,-1.6522,-1.6107,-1.4926,-1.4698,-1.4294,-1.3065,-1.2881,-1.2881,-1.2881,-1.2881,-1.2881,-1.2881,-1.2881,-1.2881,-1.2881,-1.2881,-1.2881,-1.2881,-1.2881,-1.2881,-1.2881,-1.2715,-1.2715,-1.2881,-1.2715,-1.2715,-1.2881,-1.2881,-1.3047,-1.3359,-1.3359,-1.3871,-0.9971,-0.9875,-0.9784,-0.9754,-0.9728,-0.9698,-0.9698,-0.9641,-0.9601,-0.9601,-0.9421,-0.9388,-0.9729,-0.9617,-1.0015,-1.1584,-1.2381,-1.3718,-1.6326,-1.732,-1.8212,-1.9289,-1.9762,-2.0418,0.0,0.0,0.0,0.0,0.0,-2.1781,-2.2265,-2.2061,-2.2032,-2.2282,-2.2032,-2.1823,-2.1582,-2.1213,-2.0862,-2.0616,-2.0616,-2.0302,-1.9693,-1.9693,-1.9697,0.0,0.0,0.0,-1.969,-1.969,-1.969,-1.969,-1.969,-1.969,-1.969,-1.969,-1.9707,-1.9612,-1.9101,-1.838,-1.7706,-1.7475,-1.7031,-1.6522,-1.6522,-1.6522,-1.6522,-1.6522,-1.6522,-1.6522,-1.6522,-1.6522,-1.6522,-1.6522,-1.6522,-1.6522,-1.6522,-1.6522,-1.6522,-1.6522,-1.6522,-1.6194,-1.5287,-1.488,-1.4376,-1.3467,-1.3055,-1.2881,-1.2881,-1.2881,-1.2881,-1.2881,-1.2881,-1.2881,-1.2881,-1.2881,-1.2881,-1.2881,-1.2881,-1.2881,-1.2881,-1.2881,-1.2881,-1.2881,-1.2881,-1.2881,-1.2881,-1.3076,-1.3281,-1.3506,-1.4042,-1.4718,-0.9933,-0.9869,-0.9798,-0.9798,-0.9747,-0.9706,-0.9721,-0.9713,-0.9698,-0.9698,-0.9601,-0.9546,-0.9652,-0.9995,-1.0354,-1.0719,-1.2576,0.0,-1.6445,-1.732,-1.8295,-1.9664,-1.9934,0.0,0.0,0.0,0.0,0.0,0.0,-2.231,-2.231,-2.231,-2.231,-2.231,-2.231,-2.2106,-2.1718,-2.1385,-2.115,-2.1086,-2.1086,-2.067,-1.9888,-1.9777,-1.9695,0.0,0.0,0.0,-1.969,-1.969,-1.969,-1.969,-1.969,-1.969,-1.969,-1.969,-1.969,-1.9639,-1.9169,-1.838,-1.7571,-1.7719,-1.717,-1.6502,-1.6509,-1.6522,-1.6522,-1.6522,-1.6522,-1.6522,-1.6522,-1.6522,-1.6522,-1.6522,-1.6522,-1.6522,-1.6522,-1.6522,-1.6522,-1.6522,-1.6522,-1.6293,-1.572,-1.5186,-1.4606,-1.3909,-1.3372,-1.3017,-1.2929,-1.2881,-1.2881,-1.2881,-1.2881,-1.2881,-1.2881,-1.2881,-1.2881,-1.2881,-1.2881,-1.2881,-1.2881,-1.2881,-1.2881,-1.2881,-1.2939,-1.2978,-1.2978,-1.3398,-1.3684,-1.3908,-1.4863,-1.569,-0.9982,-0.9899,-0.9798,-0.9798,-0.9747,-0.9721,-0.9775,-0.9739,-0.9698,-0.9698,-0.9601,-0.9888,-1.1172,-1.0881,-1.13,-1.3899,-1.5557,-1.657,0.0,0.0,-1.8132,-1.8961,0.0,0.0,0.0,0.0,0.0,0.0,0.0,-2.231,-2.231,-2.231,-2.231,-2.231,-2.231,-2.2282,-2.218,-2.2135,-2.1899,-2.1491,-2.1491,-2.1243,-2.0782,-2.0049,-1.9692,0.0,0.0,-1.9697,-1.969,-1.969,-1.969,-1.969,-1.969,-1.969,-1.969,-1.969,-1.969,-1.969,-1.9603,-1.9169,-1.864,-1.8484,-1.7558,-1.6485,-1.6489,-1.6522,-1.6522,-1.6522,-1.6522,-1.6522,-1.6522,-1.6522,-1.6522,-1.6522,-1.6522,-1.6522,-1.6522,-1.6522,-1.6522,-1.6522,-1.6522,-1.6293,-1.572,-1.5543,-1.5084,-1.3956,-1.3732,-1.3457,-1.2978,-1.2881,-1.2881,-1.2881,-1.2881,-1.2881,-1.2881,-1.2881,-1.2881,-1.2881,-1.2881,-1.2881,-1.2881,-1.2881,-1.2881,-1.2881,-1.3232,-1.3408,-1.3408,-1.3828,-1.453,-1.5519,-1.5689,-1.6655,-1.0006,-0.991,-0.9805,-0.985,-1.0154,-1.0465,-1.0461,-1.0781,-1.1084,-1.102,-1.0895,-1.1019,-1.1721,-1.1792,-1.2573,-1.5117,0.0,-1.698,-1.7258,-1.7591,-1.8082,0.0,0.0,0.0,0.0,0.0,0.0,0.0,0.0,0.0,-2.231,-2.231,-2.231,-2.231,-2.231,-2.231,-2.231,-2.231,-2.218,-2.1974,-2.1974,-2.1893,-2.1691,-2.129,-2.1086,-2.1034,0.0,-1.9714,-1.9712,-1.9687,-1.969,-1.969,-1.969,-1.969,-1.969,-1.969,-1.969,-1.969,-1.969,-1.9288,-1.8803,-1.9077,-1.7976,-1.6504,-1.6476,-1.6522,-1.6522,-1.6522,-1.6522,-1.6522,-1.6522,-1.6522,-1.6522,-1.6522,-1.6522,-1.6522,-1.6522,-1.6522,-1.6522,-1.6522,-1.6522,-1.6423,-1.6139,-1.582,-1.541,-1.4858,-1.4724,-1.4484,-1.3826,-1.3981,-1.3993,-1.3606,-1.3555,-1.3555,-1.3555,-1.3555,-1.3467,-1.3232,-1.359,-1.3938,-1.4124,-1.4134,-1.4134,-1.4134,-1.4328,-1.4234,-1.3848,-1.4677,-1.5368,-1.589,-1.6515,-1.7506,-1.0015,-0.9914,-0.985,-0.9881,-1.0351,-1.0811,-1.0964,-1.1504,-1.2,-1.2087,-1.2018,-1.1994,-1.2194,-1.307,-1.4264,-1.5801,-1.6718,-1.7391,-1.782,-1.7883,-1.8087,-1.8665,0.0,0.0,0.0,0.0,0.0,0.0,0.0,0.0,-2.204,-2.2226,-2.231,-2.231,-2.231,-2.231,-2.231,-2.231,-2.231,-2.231,-2.231,-2.2298,-2.2295,-2.2295,-2.2294,-2.2229,-2.0906,-2.0079,-1.9687,-1.9713,-1.969,-1.969,-1.969,-1.969,-1.969,-1.969,-1.969,-1.969,-1.969,-1.931,-1.8939,-1.9517,-1.8597,-1.7165,-1.6663,-1.6514,-1.6522,-1.6522,-1.6522,-1.6522,-1.6522,-1.6522,-1.6522,-1.6522,-1.6522,-1.6522,-1.6522,-1.6522,-1.6522,-1.6522,-1.6522,-1.6559,-1.6697,-1.6348,-1.6005,-1.599,-1.5787,-1.5459,-1.4967,-1.4912,-1.4778,-1.4377,-1.4184,-1.4184,-1.4334,-1.4387,-1.434,-1.4317,-1.4581,-1.4967,-1.5483,-1.5493,-1.5493,-1.5493,-1.5549,-1.5353,-1.4803,-1.5827,-1.6364,-1.6591,-1.7454,-1.8232,-1.0048,-0.9987,-0.9967,-0.991,-0.9854,-1.0012,-1.0818,-1.0996,-1.1204,-1.1948,-1.2095,-1.2305,-1.3068,-1.5062,-1.6575,-1.6468,-1.78,-1.8681,-1.8232,0.0,-1.8184,0.0,0.0,0.0,0.0,0.0,0.0,0.0,0.0,0.0,-2.1288,-2.1921,-2.231,-2.231,-2.231,-2.231,-2.231,-2.231,-2.231,-2.231,-2.231,-2.2299,-2.2316,-2.2316,-2.2308,-2.2278,-2.218,-2.118,-1.9687,-1.9713,-1.969,-1.969,-1.969,-1.969,-1.969,-1.969,-1.969,-1.969,-1.969,-1.969,-1.9647,-1.9685,-1.96,-1.9089,-1.7085,-1.649,-1.6522,-1.6522,-1.6522,-1.6522,-1.6522,-1.6522,-1.6522,-1.6522,-1.6522,-1.6522,-1.6522,-1.6522,-1.6522,-1.6522,-1.6522,-1.6685,-1.7225,-1.7313,-1.7248,-1.7195,-1.6596,-1.6182,-1.6243,-1.5039,-1.443,-1.5029,-1.4536,-1.4387,-1.5081,-1.5133,-1.5561,-1.6677,-1.5739,-1.5512,-1.63,-1.63,-1.63,-1.63,-1.6688,-1.686,-1.6807,-1.7233,-1.785,-1.8496,-1.8584,-1.9044,-1.0148,-1.0094,-1.0052,-0.9986,-1.0301,-1.0857,-1.1678,-1.2207,-1.2743,-1.3559,-1.3645,-1.3692,-1.3985,-1.5468,-1.6627,-1.652,-1.7769,-1.8678,-1.8469,-1.845,0.0,0.0,0.0,0.0,0.0,0.0,0.0,0.0,0.0,0.0,0.0,-2.1904,-2.231,-2.231,-2.231,-2.231,-2.231,-2.231,-2.231,-2.231,-2.231,-2.231,-2.231,-2.231,-2.232,-2.2322,-2.2309,-2.1293,-1.9687,-1.9713,-1.969,-1.969,-1.969,-1.969,-1.969,-1.969,-1.969,-1.969,-1.969,-1.969,-1.9698,-1.9708,-1.9706,-1.9279,-1.7167,-1.6519,-1.6522,-1.6522,-1.6522,-1.6522,-1.6522,-1.6522,-1.6522,-1.6522,-1.6522,-1.6522,-1.6522,-1.6522,-1.6522,-1.6522,-1.6522,-1.6697,-1.7287,-1.7388,-1.7518,-1.7807,-1.7922,-1.7781,-1.7404,-1.7092,-1.6902,-1.6688,-1.6429,-1.6375,-1.6698,-1.6688,-1.7087,-1.7984,-1.7416,-1.7226,-1.7809,-1.7821,-1.7821,-1.7821,-1.7955,-1.7836,-1.7353,-1.7978,-1.8447,-1.8715,-1.8715,-1.9097,-1.0197,-1.0169,-1.0129,-1.0057,-1.0649,-1.144,-1.2242,-1.2994,-1.3773,-1.4598,-1.4656,-1.4641,-1.4899,-1.5859,0.0,0.0,-1.8031,-1.8807,-1.8734,0.0,0.0,0.0,0.0,0.0,0.0,0.0,0.0,0.0,0.0,0.0,0.0,-2.1177,-2.1701,-2.1938,-2.1955,-2.2073,-2.231,-2.231,-2.231,-2.231,-2.231,-2.231,-2.231,-2.231,-2.232,-2.2258,-2.1711,-2.0795,-1.9687,-1.9713,-1.969,-1.969,-1.969,-1.969,-1.969,-1.969,-1.969,-1.969,-1.969,-1.969,-1.972,-1.9716,-1.9689,-1.9309,-1.7156,-1.6517,-1.6494,-1.6497,-1.6522,-1.6522,-1.6522,-1.6522,-1.6522,-1.6522,-1.6522,-1.6522,-1.6522,-1.666,-1.6785,-1.6785,-1.6936,-1.7225,-1.7802,-1.7903,-1.8091,-1.8631,-1.8821,-1.8792,-1.8551,-1.8383,-1.8167,-1.7633,-1.7578,-1.7677,-1.7961,-1.7961,-1.8286,-1.898,-1.8809,-1.8773,-1.9032,-1.9044,-1.9044,-1.9044,-1.9044,-1.8821,-1.8286,-1.8821,-1.9044,-1.9044,-1.9044,-1.9307,-1.021,-1.0201,-1.0183,-1.0129,-1.0717,-1.152,-1.2336,-1.3073,-1.386,-1.4715,-1.4794,-1.4939,-1.5737,-1.6442,0.0,-1.7968,-1.8757,-1.9227,0.0,0.0,0.0,0.0,0.0,0.0,0.0,0.0,0.0,0.0,0.0,0.0,0.0,-1.9604,-2.0382,-2.117,-2.1204,-2.1532,-2.2276,-2.2293,-2.2293,-2.2293,-2.231,-2.231,-2.231,-2.231,-2.232,-2.2209,-2.0464,-1.9696,-1.9703,-1.9713,-1.969,-1.969,-1.969,-1.969,-1.969,-1.969,-1.969,-1.969,-1.969,-1.969,-1.969,-1.969,-1.9723,-1.9304,-1.7166,-1.6491,-1.6517,-1.6489,-1.6522,-1.6522,-1.6522,-1.6522,-1.6522,-1.6522,-1.6522,-1.6522,-1.6522,-1.6974,-1.7388,-1.7388,-1.7827,-1.838,-1.8932,-1.8983,-1.9196,-1.9723,-1.9202,-1.898,-1.9695,-1.8501,-1.7633,-1.7633,-1.7633,-1.7907,-1.8661,-1.8715,-1.9044,-1.9747,-1.9798,-1.9798,-1.9798,-1.9798,-1.9798,-1.9798,-1.9798,-1.9798,-1.9798,-1.9798,-1.9798,-1.9798,-1.9811,-1.9811,-1.0195,-1.0192,-1.0339,-1.0948,-1.1721,-1.2574,-1.3371,-1.3577,-1.386,-1.4715,-1.4877,-1.4907,-1.5142,-1.5732,0.0,-1.7262,-1.7983,0.0,0.0,0.0,0.0,0.0,0.0,0.0,0.0,0.0,0.0,0.0,0.0,0.0,0.0,-1.9993,-2.0391,0.0,-2.045,-2.0467,-2.0677,-2.1245,-2.1421,-2.1258,-2.1961,-2.231,-2.231,-2.231,-2.232,-2.2242,-2.1118,-2.0603,-2.0569,-1.9955,-1.969,-1.969,-1.969,-1.969,-1.969,-1.969,-1.969,-1.969,-1.969,-1.969,-1.969,-1.969,-1.9723,-1.9304,-1.7166,-1.6491,-1.6517,-1.6489,-1.6522,-1.6522,-1.6522,-1.6522,-1.6522,-1.6522,-1.6522,-1.6522,-1.6522,-1.6974,-1.7388,-1.7388,-1.7827,-1.838,-1.8932,-1.8983,-1.9196,-1.9723,-1.9592,-1.9527,-1.9747,-1.9423,-1.915,-1.915,-1.915,-1.9254,-1.9475,-1.9475,-1.9579,-1.9798,-1.9798,-1.9798,-1.9798,-1.9798,-1.9798,-1.9798,-1.9798,-1.9798,-1.9798,-1.9798,-1.9798,-1.9811,-2.0245,-2.0425,-1.0205,-1.0195,-1.0407,-1.1272,-1.2154,-1.3106,-1.4248,-1.4363,-1.4382,-1.4901,-1.4984,-1.5047,-1.5352,-1.5725,0.0,-1.6983,-1.7712,0.0,0.0,0.0,0.0,0.0,0.0,0.0,0.0,0.0,0.0,0.0,0.0,0.0,0.0,-1.9531,0.0,0.0,-1.9818,-1.9804,-2.0002,-2.0483,-2.0737,-2.0814,-2.1829,-2.199,-2.1404,-2.204,-2.232,-2.2242,-2.1007,-2.0469,-2.0423,-1.9904,-1.969,-1.969,-1.969,-1.969,-1.969,-1.969,-1.969,-1.969,-1.969,-1.969,-1.969,-1.969,-1.9685,-1.9286,-1.7165,-1.6506,-1.6499,-1.6494,-1.6522,-1.6522,-1.6522,-1.6522,-1.6522,-1.6522,-1.6522,-1.6522,-1.6522,-1.7149,-1.7714,-1.7714,-1.8317,-1.8945,-1.9284,-1.9334,-1.9447,-1.9761,-1.9798,-1.9798,-1.9798,-1.9798,-1.9798,-1.9798,-1.9798,-1.9798,-1.9798,-1.9798,-1.9798,-1.9798,-1.9798,-1.9798,-1.9798,-1.9798,-1.9798,-1.9798,-1.9798,-1.9798,-1.9798,-1.9798,-1.9798,-1.9811,-2.0425,-2.0695,-1.0191,-1.0209,-1.0425,-1.1382,-1.2324,-1.3423,-1.495,-1.5255,-1.5201,-1.5195,-1.5095,-1.5243,-1.5975,-1.6043,-1.6214,-1.6899,0.0,0.0,0.0,0.0,0.0,0.0,0.0,0.0,0.0,0.0,0.0,0.0,0.0,0.0,0.0,0.0,0.0,-1.9217,-1.9213,-1.9401,-1.9832,-1.9891,-2.0111,0.0,-2.16,-2.1276,-1.985,-2.1387,-2.2168,-2.2205,-2.0606,-1.9857,-1.9691,-1.9703,-1.9696,-1.969,-1.969,-1.969,-1.969,-1.969,-1.969,-1.969,-1.969,-1.969,-1.969,-1.969,-1.9705,-1.931,-1.7256,-1.6599,-1.6492,-1.6498,-1.6522,-1.6522,-1.6522,-1.6522,-1.6522,-1.6522,-1.6522,-1.6534,-1.6584,-1.7438,-1.8216,-1.8267,-1.9108,-1.9798,-1.9798,-1.9798,-1.9798,-1.9798,-1.9798,-1.9798,-1.9798,-1.9798,-1.9798,-1.9798,-1.9798,-1.9798,-1.9798,-1.9798,-1.9798,-1.9798,-1.9798,-1.9798,-1.9798,-1.9798,-1.9798,-1.9798,-1.9798,-1.9798,-1.9798,-1.9875,-1.9888,-1.99,-2.0527,-2.0823,-1.0194,-1.0193,-1.0571,-1.2125,-1.3689,-1.4914,-1.5235,-1.5284,-1.5265,-1.5207,-1.5177,-1.5204,-1.5389,-1.5322,-1.5486,0.0,0.0,0.0,0.0,0.0,0.0,0.0,0.0,0.0,0.0,0.0,0.0,0.0,0.0,0.0,-1.9146,0.0,0.0,-1.8737,-1.8554,-1.8495,-1.8603,-1.896,-1.89,0.0,-1.9838,-1.9706,-1.831,-1.9823,-2.116,-2.2287,-2.1882,-2.097,-1.9692,-1.9706,-1.9693,-1.969,-1.969,-1.969,-1.969,-1.969,-1.969,-1.969,-1.969,-1.969,-1.969,-1.969,-1.9715,-1.947,-1.814,-1.7156,-1.6481,-1.6519,-1.6522,-1.6522,-1.6522,-1.6522,-1.6522,-1.6522,-1.6522,-1.6635,-1.7099,-1.7727,-1.8329,-1.8769,-1.9359,-1.9798,-1.9798,-1.9798,-1.9798,-1.9798,-1.9798,-1.9798,-1.9798,-1.9798,-1.9798,-1.9798,-1.9798,-1.9798,-1.9798,-1.9798,-1.9798,-1.9798,-1.9798,-1.9798,-1.9798,-1.9798,-1.9798,-1.9798,-1.9798,-1.9798,-1.9798,-2.0258,-2.0515,-2.0527,-2.1523,-2.1964,-1.0131,-1.0174,-1.0629,-1.2399,-1.3826,-1.4884,-1.5262,-1.5316,-1.5289,-1.5255,-1.5218,-1.5189,-1.5189,-1.514,-1.5209,0.0,0.0,0.0,0.0,0.0,0.0,0.0,0.0,0.0,0.0,0.0,0.0,0.0,0.0,-1.9305,0.0,-1.9214,-1.9034,-1.8789,-1.8528,-1.833,-1.8208,-1.8319,-1.8166,-1.7822,-1.8589,-1.8538,-1.7845,-1.9336,-2.0306,-2.0863,-2.0866,-2.027,-1.9295,-1.9588,-1.9706,-1.9708,-1.9702,-1.969,-1.969,-1.969,-1.969,-1.969,-1.969,-1.969,-1.969,-1.969,-1.9723,-1.94,-1.7807,-1.6929,-1.6517,-1.6489,-1.6522,-1.6522,-1.6522,-1.6522,-1.6522,-1.6522,-1.6735,-1.7011,-1.7313,-1.8028,-1.8681,-1.897,-1.9447,-1.9798,-1.9798,-1.9798,-1.9798,-1.9798,-1.9798,-1.9798,-1.9798,-1.9798,-1.9798,-1.9798,-1.9798,-1.9798,-1.9798,-1.9798,-1.9798,-1.9798,-2.0062,-2.0087,-1.9811,-2.0326,-2.0363,-1.9811,-1.9798,-1.9964,-2.0233,-2.0527,-2.0818,-2.1113,-2.1898,-2.2318,-1.0082,-1.0244,-1.0813,-1.25,-1.3493,-1.4324,-1.5199,-1.536,-1.5307,-1.5295,-1.5255,-1.5189,-1.5189,-1.5189,0.0,0.0,0.0,0.0,0.0,0.0,0.0,0.0,0.0,0.0,0.0,0.0,0.0,0.0,0.0,-1.9305,-1.9305,-1.9305,-1.9214,-1.9019,-1.8789,-1.8565,-1.8304,-1.8031,-1.7951,-1.8058,-1.7867,-1.7811,-1.7845,-1.9056,-1.9411,-1.9043,-1.9055,-1.8876,-1.8712,-1.9719,-2.008,-1.9922,-1.9989,-1.9955,-1.9833,-1.9737,-1.9717,-1.969,-1.969,-1.969,-1.969,-1.969,-1.9723,-1.9304,-1.7166,-1.6491,-1.6517,-1.6489,-1.6522,-1.6522,-1.6522,-1.6522,-1.6522,-1.6522,-1.7036,-1.7526,-1.7526,-1.8317,-1.9008,-1.9096,-1.951,-1.9798,-1.9798,-1.9798,-1.9798,-1.9798,-1.9798,-1.9798,-1.9798,-1.9798,-1.9798,-1.9798,-1.9886,-1.9949,-1.9949,-2.0037,-2.01,-2.01,-2.0539,-2.063,-2.0114,-2.0995,-2.1071,-2.0112,-2.0114,-2.036,-2.0862,-2.0952,-2.1218,-2.1656,-2.2164,-2.2443,-1.0006,-1.0657,-1.158,-1.2636,-1.3496,-1.4335,-1.5203,-1.5389,-1.5379,0.0,-1.525,-1.5189,-1.5189,-1.5189,0.0,0.0,0.0,0.0,0.0,0.0,0.0,0.0,0.0,0.0,0.0,0.0,0.0,0.0,-1.9305,0.0,-1.9305,-1.9305,-1.9214,-1.9019,-1.8966,-1.8878,-1.8727,-1.8397,-1.8523,-1.908,-1.821,-1.7811,-1.7811,-1.7991,-1.8059,-1.8002,-1.8,-1.7988,-1.814,-2.0837,-2.1529,-2.0861,-2.1087,-2.0903,-2.0404,-1.9875,-1.9712,-1.969,-1.969,-1.969,-1.969,-1.969,-1.9723,-1.9304,-1.7166,-1.6491,-1.6517,-1.6489,-1.6522,-1.6522,-1.6522,-1.6522,-1.6522,-1.6522,-1.7325,-1.8091,-1.8091,-1.8581,-1.9158,-1.961,-1.9748,-1.9798,-1.9798,-1.9798,-1.9798,-1.9798,-1.9798,-1.9798,-1.9798,-1.9798,-1.9798,-1.9798,-2.025,-2.0605,-2.0605,-2.0991,-2.1255,-2.1255,-2.1343,-2.1378,-2.1288,-2.1428,-2.1407,-2.1267,-2.1255,-2.1311,-2.1419,-2.1836,-2.2105,-2.2236,-2.2747,-2.2967,-1.0034,-1.0412,-1.0991,-1.1889,-1.2752,-1.3593,-1.4471,-1.5049,-1.5392,-1.5362,-1.5299,-1.5255,-1.5255,0.0,0.0,0.0,0.0,0.0,0.0,0.0,0.0,0.0,0.0,0.0,0.0,0.0,0.0,0.0,-1.9305,-1.9305,-1.9305,-1.9305,-1.9259,-1.9166,-1.8998,-1.8861,-1.88,-1.8296,-1.8159,-1.8439,-1.8002,-1.7811,-1.7811,-1.7811,-1.7811,-1.7789,-1.7805,-1.7809,-1.7938,-1.9826,-2.1048,-2.1702,-2.147,-2.1051,-2.0537,-2.0169,-1.9893,-1.969,-1.969,-1.969,-1.969,-1.969,-1.9723,-1.952,-1.8598,-1.745,-1.6558,-1.6844,-1.671,-1.6522,-1.6522,-1.6522,-1.6597,-1.6923,-1.7626,-1.8292,-1.8593,-1.9083,-1.9522,-1.9761,-1.9798,-1.9798,-1.9798,-1.9798,-1.9798,-1.9798,-1.9798,-1.9798,-1.9798,-2.0087,-2.0288,-2.0288,-2.079,-2.1129,-2.1129,-2.1343,-2.1499,-2.1496,-2.1781,-2.1819,-2.1534,-2.2072,-2.2268,-2.1962,-2.1635,-2.1632,-2.1927,-2.2188,-2.2479,-2.2747,-2.2967,-2.3078,-0.9992,-1.0117,-1.0388,-1.1263,-1.1978,-1.2707,-1.3573,-1.4433,-1.5072,0.0,-1.5212,-1.5338,-1.5338,0.0,0.0,0.0,0.0,0.0,0.0,0.0,0.0,0.0,0.0,0.0,0.0,0.0,0.0,0.0,-1.9305,-1.9305,-1.9305,-1.9305,-1.9305,-1.9305,-1.9048,-1.8914,-1.8945,-1.818,-1.7795,-1.7811,-1.7811,-1.7811,-1.7811,-1.7811,-1.7811,-1.7811,-1.7811,-1.7788,-1.7866,-1.8825,-2.021,-2.1681,-2.1434,-2.1134,-2.0842,-2.0581,-2.0147,-1.9692,-1.9696,-1.969,-1.969,-1.969,-1.9715,-1.9693,-1.9692,-1.8584,-1.7303,-1.7313,-1.6993,-1.671,-1.671,-1.6595,-1.6746,-1.7612,-1.8007,-1.8392,-1.9083,-1.9522,-1.9798,-1.9798,-1.9798,-1.9798,-1.9798,-1.9798,-1.9798,-1.9798,-1.9924,-2.0024,-2.0024,-2.0526,-2.092,-2.092,-2.1368,-2.1681,-2.1713,-2.1807,-2.1901,-2.1919,-2.2261,-2.2317,-2.192,-2.2698,-2.2883,-2.2515,-2.211,-2.2082,-2.2484,-2.2484,-2.27,-2.3078,-2.3078,-2.3078,-0.9881,-0.9999,-1.0313,-1.1188,-1.1495,-1.1809,-1.2668,0.0,-1.4177,-1.418,-1.4818,-1.5391,-1.5391,0.0,0.0,0.0,0.0,0.0,0.0,0.0,0.0,0.0,0.0,0.0,0.0,0.0,0.0,0.0,-1.9305,-1.9305,-1.9305,-1.9305,-1.9305,-1.9305,-1.9281,-1.9255,-1.9268,-1.8297,-1.7794,-1.7811,-1.7811,-1.7811,-1.7811,-1.7811,-1.7811,-1.7811,-1.7811,-1.7789,-1.7856,-1.8616,-1.9393,-2.0187,-2.0931,-2.1356,-2.1491,-2.1118,-2.0442,-1.9699,-1.9692,-1.969,-1.969,-1.969,-1.969,-1.9713,-1.9708,-1.9616,-1.9209,-1.7733,-1.7271,-1.7271,-1.7271,-1.6879,-1.6935,-1.8617,-1.86,-1.8493,-1.9535,-1.9786,-1.9798,-1.9798,-1.9798,-1.9798,-1.9798,-1.9798,-1.9798,-1.9798,-2.0275,-2.0668,-2.0668,-2.1104,-2.1443,-2.1443,-2.1945,-2.2234,-2.2248,-2.2686,-2.305,-2.3037,-2.3062,-2.3075,-2.299,-2.304,-2.3113,-2.3075,-2.3062,-2.3037,-2.3072,-2.3072,-2.305,-2.3078,-2.3078,-2.3078,-0.9698,-0.983,-1.0053,-1.0362,-1.0888,-1.1411,-1.1806,-1.2588,-1.3363,-1.398,-1.4353,-1.4749,-1.5296,0.0,0.0,0.0,0.0,0.0,0.0,0.0,0.0,0.0,0.0,0.0,0.0,0.0,0.0,0.0,0.0,0.0,-1.8469,-1.8999,-1.9286,-1.9286,-1.9302,-1.8984,-1.8341,-1.7979,-1.7811,-1.7811,-1.7811,-1.7811,-1.7811,-1.7811,-1.7811,-1.7811,-1.7811,-1.7811,-1.7862,-1.8589,-1.9063,-1.9418,-2.0686,-2.091,-2.0553,-2.0863,-2.0452,-1.9682,-1.9681,-1.969,-1.969,-1.969,-1.969,-1.9705,-1.9685,-1.9361,-1.8898,-1.8458,-1.8066,-1.7827,-1.7827,-1.7666,-1.7799,-1.8819,-1.9115,-1.9334,-1.9723,-1.9798,-1.9798,-1.9798,-1.9798,-1.9798,-1.9798,-1.9798,-1.9924,-2.03,-2.0539,-2.079,-2.1154,-2.1681,-2.202,-2.202,-2.251,-2.2824,-2.2786,-2.3,-2.3078,-2.3078,-2.3078,-2.3078,-2.3078,-2.3078,-2.3078,-2.3078,-2.3078,-2.3078,-2.3078,-2.3078,-2.3078,-2.3078,-2.3078,-2.3078,-0.9602,-0.9705,-0.9819,-0.9865,-1.0323,-1.0785,-1.088,-1.1596,-1.2489,-1.3412,-1.3866,-1.4372,-1.5233,0.0,0.0,0.0,0.0,0.0,0.0,0.0,0.0,0.0,0.0,0.0,0.0,0.0,0.0,0.0,0.0,0.0,-1.7647,-1.87,-1.88,-1.7729,-1.8744,-1.8968,-1.8307,-1.7968,-1.7868,-1.7983,-1.7856,-1.7811,-1.7811,-1.7811,-1.7811,-1.7811,-1.7811,-1.7811,-1.7845,-1.8335,-1.8674,-1.9029,-2.0297,-2.06,-2.0394,-2.0845,-2.0632,-2.007,-1.9782,-1.969,-1.969,-1.969,-1.969,-1.969,-1.969,-1.9361,-1.8956,-1.8916,-1.865,-1.838,-1.838,-1.8675,-1.8921,-1.876,-1.9436,-2.0042,-1.985,-1.9798,-1.9798,-1.9798,-1.9798,-1.9798,-1.9798,-1.9962,-2.0225,-2.0655,-2.1033,-2.1355,-2.1719,-2.2246,-2.2585,-2.2585,-2.2912,-2.3078,-2.3078,-2.3078,-2.3078,-2.3078,-2.3078,-2.3078,-2.3078,-2.3078,-2.3078,-2.3078,-2.3078,-2.3078,-2.3078,-2.3078,-2.3078,-2.3078,-2.3078,-2.3078,0.0,0.0,0.0,-0.9764,-0.9844,0.0,-0.9891,0.0,-1.1505,-1.2384,-1.3346,-1.4289,-1.5161,0.0,0.0,0.0,0.0,0.0,0.0,0.0,0.0,0.0,0.0,0.0,0.0,0.0,0.0,0.0,0.0,-1.738,-1.6867,-1.8305,-1.7725,-1.4612,-1.7506,-1.913,-1.9165,-1.8227,-1.7922,-1.826,-1.7944,-1.7811,-1.7811,-1.7811,-1.7811,-1.7811,-1.7811,-1.7811,-1.7811,-1.7811,-1.8217,-1.8944,-1.9664,-2.0441,-2.1147,-2.103,-2.0975,-2.0878,-1.998,-1.969,-1.969,-1.969,-1.969,-1.969,-1.969,-1.969,-1.9603,-1.908,-1.893,-1.893,-1.8893,-1.9789,-2.0259,-1.8588,-1.9545,-2.0597,-1.9952,-1.9811,-1.9798,-1.9798,-1.9798,-1.9798,-1.985,-2.0328,-2.0731,-2.0743,-2.1662,-2.2309,-2.2334,-2.2811,-2.3078,-2.3078,-2.3078,-2.3078,-2.3078,-2.3078,-2.3078,-2.3078,-2.3078,-2.3078,-2.3078,-2.3078,-2.3078,-2.3078,-2.3078,-2.3078,-2.3078,-2.3078,-2.3078,-2.3078,-2.3078,-2.3078,-0.9237,0.0,0.0,0.0,0.0,0.0,0.0,0.0,-1.0498,-1.1525,-1.1947,-1.2421,-1.3349,0.0,0.0,0.0,0.0,0.0,0.0,0.0,0.0,0.0,0.0,0.0,0.0,0.0,0.0,0.0,-1.5536,-1.5503,-1.5455,-1.569,-1.5417,-1.4525,-1.4845,-1.5289,-1.5821,-1.6422,-1.6932,-1.7371,-1.765,-1.7811,-1.7811,-1.7811,-1.7811,-1.7811,-1.7811,-1.7811,-1.7811,-1.7811,-1.7929,-1.8183,-1.8927,-1.9479,-1.9921,-2.012,-2.0337,-2.0416,-1.9874,-1.969,-1.969,-1.969,-1.969,-1.969,-1.969,-1.969,-1.969,-1.953,-1.9479,-1.9406,-1.9006,-1.9468,-1.9842,-1.8989,-1.9436,-2.0055,-1.985,-2.0207,-2.0396,-1.9901,-1.9798,-1.9952,-2.0446,-2.108,-2.1603,-2.1861,-2.2604,-2.3044,-2.2908,-2.2977,-2.3078,-2.3078,-2.3078,-2.3078,-2.3078,-2.3078,-2.3078,-2.3078,-2.3078,-2.3078,-2.3078,-2.3078,-2.3078,-2.3078,-2.3078,-2.3078,-2.3078,-2.3078,-2.3078,-2.3078,-2.3078,-2.3078,-0.9149,-0.9189,-0.9237,-0.9385,0.0,0.0,-0.9654,-0.9729,-1.008,0.0,-1.1308,-1.1599,-1.2547,0.0,0.0,0.0,0.0,0.0,0.0,0.0,0.0,0.0,0.0,0.0,0.0,-1.5042,0.0,-1.4871,-1.4718,-1.4653,-1.4728,-1.4581,-1.4488,-1.4488,-1.3792,-1.3917,-1.4998,-1.5471,-1.6012,-1.6595,-1.7109,-1.7337,-1.7354,-1.7659,-1.7811,-1.7811,-1.7811,-1.7811,-1.7811,-1.7811,-1.7811,-1.7879,-1.8606,-1.9227,-1.9688,-2.002,-2.0352,-2.0516,-2.0104,-1.9839,-1.969,-1.969,-1.969,-1.969,-1.969,-1.969,-1.969,-1.969,-1.969,-1.9566,-1.9043,-1.9549,-2.0059,-1.9489,-2.0019,-2.0607,-2.0607,-2.0904,-2.0966,-2.0346,-2.0434,-2.0799,-2.1498,-2.215,-2.2744,-2.3205,-2.3548,-2.3712,-2.361,-2.3305,-2.3078,-2.3078,-2.3078,-2.3078,-2.3078,-2.3078,-2.3078,-2.3078,-2.3078,-2.3078,-2.3078,-2.3078,-2.3078,-2.3078,-2.3078,-2.3078,-2.3078,-2.3078,-2.3078,-2.3138,-2.3457,-2.358,-0.9189,-0.9159,-0.9099,-0.9237,-0.9367,0.0,-0.9483,-0.962,-0.9989,0.0,-1.0998,-1.1293,-1.2131,0.0,0.0,0.0,0.0,0.0,0.0,0.0,0.0,0.0,0.0,0.0,-1.5035,-1.5028,-1.4927,-1.4747,-1.4586,-1.4495,-1.4499,-1.4488,-1.4488,-1.4488,-1.3822,-1.4105,-1.5415,-1.5059,-1.5193,-1.587,-1.6385,-1.6655,-1.6757,-1.7415,-1.7749,-1.7839,-1.7811,-1.7811,-1.7811,-1.7811,-1.7811,-1.7879,-1.8606,-1.935,-2.0035,-2.0317,-2.0689,-2.0926,-2.0416,-2.0,-1.969,-1.969,-1.969,-1.969,-1.969,-1.969,-1.969,-1.969,-1.969,-1.9566,-1.9043,-1.9789,-2.0556,-2.0031,-2.0826,-2.1697,-2.1697,-2.1758,-2.1663,-2.1126,-2.139,-2.1924,-2.2603,-2.3284,-2.3923,-2.4438,-2.4517,-2.4509,-2.435,-2.3649,-2.3198,-2.3138,-2.3078,-2.3078,-2.3078,-2.3078,-2.3078,-2.3078,-2.3078,-2.3078,-2.3078,-2.3078,-2.3078,-2.3078,-2.3078,-2.3078,-2.3078,-2.3078,-2.3078,-2.3138,-2.3914,-2.4301,-0.8968,-0.8957,-0.8979,-0.9099,-0.9149,0.0,-0.9321,-0.9456,-0.9615,0.0,-0.9994,-1.016,-1.0374,-1.047,0.0,0.0,0.0,0.0,0.0,0.0,0.0,0.0,0.0,0.0,-1.5101,-1.5152,-1.5088,-1.4943,-1.4663,-1.4495,-1.4499,-1.4488,-1.4488,-1.4488,-1.4046,-1.3823,-1.3841,-1.4328,-1.4743,-1.5038,-1.5726,-1.6398,-1.7026,-1.7122,-1.7515,-1.8103,-1.7883,-1.7811,-1.7811,-1.7811,-1.7811,-1.7879,-1.8606,-1.935,-2.0009,-1.9991,-2.043,-2.091,-2.007,-1.9782,-1.969,-1.969,-1.969,-1.969,-1.969,-1.969,-1.969,-1.969,-1.969,-1.9566,-1.9043,-1.9789,-2.0556,-2.0031,-2.0826,-2.1697,-2.1697,-2.21,-2.2452,-2.236,-2.2007,-2.1894,-2.2562,-2.3688,-2.4476,-2.449,-2.5384,-2.5618,-2.4452,-2.4176,-2.3826,-2.3198,-2.3078,-2.3078,-2.3078,-2.3078,-2.3078,-2.3078,-2.3078,-2.3078,-2.3078,-2.3078,-2.3078,-2.3078,-2.3078,-2.3078,-2.3078,-2.3078,-2.3078,-2.3113,-2.3932,-2.4298,-0.8891,-0.8891,-0.8913,-0.899,0.0,0.0,0.0,-0.9312,-0.9412,-0.9431,-0.9502,-0.9596,-0.9725,0.0,0.0,0.0,0.0,0.0,0.0,0.0,0.0,0.0,0.0,0.0,-1.4526,-1.4598,-1.4691,-1.4927,-1.4738,-1.4579,-1.4499,-1.4488,-1.4488,-1.4488,-1.4116,-1.3832,-1.3663,-1.3953,-1.4139,-1.4224,-1.5053,-1.5819,-1.651,-1.6853,-1.736,-1.7992,-1.7878,-1.7811,-1.7811,-1.7811,-1.7811,-1.7845,-1.8217,-1.9046,-1.9959,-1.9743,-2.0217,-2.0894,-2.0227,-1.9874,-1.969,-1.969,-1.969,-1.969,-1.969,-1.969,-1.969,-1.969,-1.969,-1.9639,-1.9369,-2.025,-2.1137,-2.0835,-2.1744,-2.2651,-2.2651,-2.2891,-2.3143,-2.3143,-2.2905,-2.2857,-2.3538,-2.4496,-2.5246,-2.5521,-2.6097,-2.6229,-2.5508,-2.4738,-2.4125,-2.3726,-2.37,-2.3526,-2.3125,-2.347,-2.3555,-2.315,-2.347,-2.3495,-2.3138,-2.3482,-2.3482,-2.3138,-2.3511,-2.367,-2.367,-2.4059,-2.4071,-2.3728,-2.486,-2.5431,-0.9281,-0.9315,-0.9281,-0.9145,0.0,-0.9237,0.0,0.0,0.0,-0.9257,-0.9293,0.0,0.0,0.0,0.0,0.0,0.0,0.0,0.0,0.0,0.0,0.0,0.0,0.0,0.0,-1.3745,-1.3936,-1.4398,-1.4475,-1.4426,-1.4294,-1.4366,-1.4422,-1.4422,-1.4013,-1.3823,-1.3864,-1.3736,-1.3663,-1.3678,-1.4473,-1.5266,-1.6063,-1.66,-1.7242,-1.7949,-1.7839,-1.7811,-1.7811,-1.7811,-1.7811,-1.7805,-1.7963,-1.8795,-1.9848,-1.9591,-2.0084,-2.0797,-2.0348,-1.9965,-1.969,-1.969,-1.969,-1.969,-1.969,-1.969,-1.969,-1.969,-1.969,-1.972,-1.9854,-2.0782,-2.1724,-2.1859,-2.2757,-2.3595,-2.3595,-2.3595,-2.3595,-2.3595,-2.3595,-2.3774,-2.4328,-2.5091,-2.5794,-2.6318,-2.66,-2.6616,-2.6336,-2.5342,-2.4616,-2.4307,-2.4443,-2.4262,-2.3619,-2.4136,-2.4185,-2.3371,-2.3974,-2.3966,-2.3147,-2.3842,-2.4064,-2.3548,-2.4159,-2.4532,-2.453,-2.5222,-2.5259,-2.4559,-2.5853,-2.65,0.0,0.0,0.0,0.0,-0.9878,0.0,0.0,0.0,-0.9119,-0.9119,0.0,0.0,0.0,0.0,0.0,0.0,0.0,0.0,0.0,0.0,0.0,0.0,0.0,0.0,0.0,0.0,-1.2839,-1.277,-1.3349,-1.3672,-1.3522,-1.3913,-1.416,-1.416,-1.3701,-1.3534,-1.3712,-1.3654,-1.3706,-1.387,-1.4154,-1.508,-1.6522,-1.6374,-1.7099,-1.8489,-1.8014,-1.7811,-1.7811,-1.7811,-1.7811,-1.7856,-1.8521,-1.9069,-1.9482,-1.9763,-2.0067,-2.0314,-1.9909,-1.9747,-1.969,-1.969,-1.969,-1.969,-1.969,-1.969,-1.969,-1.969,-1.969,-1.9824,-2.0438,-2.1141,-2.1844,-2.2428,-2.3101,-2.3595,-2.3595,-2.3595,-2.3595,-2.3595,-2.3595,-2.3625,-2.3699,-2.4762,-2.563,-2.5704,-2.6718,-2.7019,-2.5673,-2.596,-2.5755,-2.4473,-2.4859,-2.5218,-2.5142,-2.5195,-2.4957,-2.421,-2.4223,-2.3966,-2.3114,-2.3879,-2.4563,-2.5137,-2.525,-2.5269,-2.5289,-2.6,-2.5992,-2.5308,-2.6101,-2.6497,0.0,0.0,0.0,0.0,0.0,0.0,-0.9061,0.0,-0.899,0.0,0.0,0.0,0.0,0.0,0.0,0.0,-0.9617,0.0,0.0,0.0,0.0,0.0,0.0,0.0,0.0,0.0,0.0,0.0,0.0,-1.3629,-1.3402,-1.3952,-1.4283,-1.4338,-1.3993,-1.3863,-1.3931,-1.4056,-1.4092,-1.4029,-1.4252,-1.5129,-1.6535,-1.63,-1.6993,-1.8351,-1.7971,-1.7811,-1.7811,-1.7811,-1.7811,-1.7845,-1.8149,-1.8882,-1.9734,-1.9649,-2.0213,-2.1007,-2.0599,-2.0261,-2.0,-1.9782,-1.969,-1.969,-1.969,-1.969,-1.969,-1.969,-1.969,-1.9839,-2.0543,-2.1201,-2.1859,-2.2559,-2.3146,-2.3595,-2.3595,-2.3595,-2.3595,-2.3595,-2.3595,-2.3595,-2.3595,-2.4717,-2.5734,-2.6123,-2.6976,-2.7408,-2.6759,-2.6549,-2.6289,-2.5643,-2.5861,-2.5856,-2.5438,-2.5792,-2.5534,-2.4354,-2.43,-2.4334,-2.4442,-2.4792,-2.5057,-2.5366,-2.5799,-2.6017,-2.6029,-2.6798,-2.6967,-2.6688,-2.7018,-2.7157,-1.1519,0.0,0.0,0.0,0.0,0.0,0.0,0.0,0.0,0.0,0.0,0.0,0.0,0.0,0.0,0.0,0.0,-0.9602,0.0,0.0,0.0,0.0,0.0,0.0,0.0,0.0,0.0,0.0,0.0,0.0,-1.3149,-1.3678,-1.4146,-1.4462,-1.4134,-1.4011,-1.4103,-1.4314,-1.4356,-1.4216,-1.4623,-1.5457,-1.6613,-1.6612,-1.724,-1.829,-1.8053,-1.7878,-1.7811,-1.7811,-1.7811,-1.7828,-1.8031,-1.887,-1.9934,-1.9551,-2.0262,-2.1399,-2.1086,-2.0797,-2.0416,-2.0,-1.9874,-1.9839,-1.9711,-1.969,-1.969,-1.969,-1.969,-1.9884,-2.0752,-2.1335,-2.1904,-2.2742,-2.3266,-2.3595,-2.3595,-2.3595,-2.3595,-2.3595,-2.3595,-2.3655,-2.3849,-2.4837,-2.5779,-2.6243,-2.7036,-2.7524,-2.7306,-2.6982,-2.6709,-2.6521,-2.6703,-2.6578,-2.6046,-2.6482,-2.6272,-2.5012,-2.4713,-2.4939,-2.569,-2.5682,-2.5785,-2.6002,-2.6547,-2.6811,-2.6811,-2.7324,-2.7625,-2.7625,-2.7625,-2.7625,0.0,0.0,0.0,-1.1434,0.0,0.0,0.0,0.0,-0.976,0.0,0.0,0.0,0.0,0.0,0.0,-0.9109,0.0,0.0,0.0,0.0,0.0,0.0,0.0,0.0,0.0,0.0,0.0,0.0,0.0,0.0,-1.2486,-1.2808,-1.3398,-1.4364,-1.3888,-1.3777,-1.4103,-1.4183,-1.4295,-1.4506,-1.5288,-1.6096,-1.6913,-1.7421,-1.7984,-1.8584,-1.8363,-1.8091,-1.7811,-1.7811,-1.7811,-1.7879,-1.8589,-1.9333,-1.9934,-1.9551,-2.0088,-2.1023,-2.0991,-2.0991,-2.0894,-2.0449,-2.028,-2.0227,-1.9818,-1.969,-1.969,-1.969,-1.969,-1.9989,-2.1321,-2.168,-2.2024,-2.3266,-2.3595,-2.3595,-2.3595,-2.3595,-2.3595,-2.3595,-2.3595,-2.3819,-2.4433,-2.5151,-2.5615,-2.563,-2.6737,-2.7357,-2.6616,-2.7137,-2.7306,-2.6602,-2.7137,-2.756,-2.753,-2.7545,-2.7263,-2.6462,-2.5782,-2.5707,-2.6418,-2.6482,-2.6811,-2.753,-2.7545,-2.7545,-2.7545,-2.756,-2.7625,-2.7625,-2.7625,-2.7625,0.0,0.0,-1.3159,-1.2145,0.0,0.0,0.0,0.0,0.0,0.0,0.0,0.0,0.0,0.0,-0.9001,-0.9078,-0.9247,0.0,0.0,0.0,0.0,0.0,0.0,0.0,0.0,0.0,0.0,0.0,-1.146,0.0,0.0,-1.3489,-1.4204,-1.4579,-1.4154,-1.4069,-1.435,-1.4399,-1.4422,-1.4506,-1.5325,-1.6114,-1.6913,-1.7227,-1.7873,-1.8717,-1.8423,-1.8113,-1.7808,-1.7988,-1.7971,-1.7879,-1.8606,-1.935,-2.0069,-2.0454,-2.1122,-2.1827,-2.1507,-2.1213,-2.0959,-2.0829,-2.0364,-1.9945,-2.0054,-1.9909,-1.969,-1.969,-2.0019,-2.0572,-2.147,-2.2024,-2.2562,-2.34,-2.3595,-2.3595,-2.3595,-2.3595,-2.3595,-2.3595,-2.3595,-2.367,-2.3909,-2.4507,-2.5255,-2.6123,-2.7006,-2.7524,-2.7255,-2.7458,-2.7509,-2.7255,-2.7458,-2.7625,-2.7625,-2.7155,-2.6748,-2.6547,-2.6272,-2.6242,-2.6497,-2.695,-2.7375,-2.7625,-2.7625,-2.7625,-2.7625,-2.7625,-2.7625,-2.7625,-2.7625,-2.7625,-1.3278,-1.3396,0.0,-1.2483,-1.1908,0.0,-1.022,0.0,0.0,0.0,0.0,0.0,0.0,0.0,0.0,-0.9372,-0.9321,0.0,0.0,-0.9617,0.0,0.0,0.0,0.0,0.0,0.0,-0.9865,-1.0178,-1.0934,0.0,0.0,0.0,-1.4036,-1.4757,-1.4343,-1.4228,-1.4506,-1.4488,-1.4683,-1.508,-1.5784,-1.6555,-1.7348,-1.7754,-1.8294,-1.8876,-1.859,-1.827,-1.7956,-1.8031,-1.7949,-1.7912,-1.891,-1.9587,-2.0086,-2.0889,-2.1667,-2.2254,-2.1957,-2.1675,-2.1415,-2.1291,-2.0731,-2.0174,-2.028,-2.0035,-1.969,-1.969,-2.0183,-2.0857,-2.153,-2.2188,-2.2832,-2.3445,-2.3595,-2.3595,-2.3595,-2.3595,-2.3595,-2.3595,-2.3595,-2.3595,-2.3595,-2.4358,-2.527,-2.6108,-2.6797,-2.7355,-2.7595,-2.7625,-2.7625,-2.7625,-2.7625,-2.7625,-2.7625,-2.717,-2.6905,-2.6905,-2.6905,-2.6905,-2.6905,-2.7375,-2.7625,-2.7625,-2.7625,-2.7625,-2.7625,-2.7625,-2.7625,-2.7625,-2.7625,-2.7625]},{"header":{"parameterUnit":"m.s-1","parameterCategory":1,"la1":30.6,"la2":29.2853,"lo1":-89.7004,"lo2":-87.6739,"dy":0.0162,"dx":0.0183,"nx":112,"ny":82,"refTime":"2025-02-27T06:00:00:Z","depth":0,"parameterNumber":3,"parameterNumberName":"V-component_of_WINDS"},"data":[0.0,0.0,0.0,0.0,0.0,0.0,0.0,0.0,0.0,0.0,0.0,0.0,0.0,0.0,0.0,0.0,0.0,0.0,0.0,0.0,0.0,0.0,0.0,0.0,0.0,0.0,0.0,0.0,0.0,0.0,0.0,0.0,0.0,0.0,0.0,0.0,0.0,0.0,0.0,0.0,0.0,0.0,0.0,0.0,0.0,0.0,0.0,0.0,0.0,0.0,0.0,0.0,0.0,0.0,0.0,0.0,0.0,0.0,0.0,0.0,0.0,0.0,0.0,0.0,0.0,0.0,0.0,0.0,0.0,0.0,0.0,0.0,0.0,0.0,0.0,0.0,0.0,0.0,0.0,0.0,0.0,0.0,0.0,0.0,0.0,0.0,0.0,0.0,0.0,0.0,-0.8498,-1.0056,-1.0203,-1.0194,-1.0199,-1.0209,-1.0155,-1.0011,0.0,0.0,0.0,0.0,0.0,0.0,0.0,0.0,0.0,0.0,0.0,0.0,0.0,0.0,0.0,0.0,0.0,0.0,0.0,0.0,0.0,0.0,0.0,0.0,0.0,0.0,0.0,0.0,0.0,0.0,0.0,0.0,0.0,0.0,0.0,0.0,0.0,0.0,0.0,0.0,0.0,0.0,0.0,0.0,0.0,0.0,0.0,0.0,0.0,0.0,0.0,0.0,0.0,0.0,0.0,0.0,0.0,0.0,0.0,0.0,0.0,0.0,0.0,0.0,0.0,0.0,0.0,0.0,0.0,0.0,0.0,0.0,0.0,0.0,0.0,0.0,0.0,0.0,0.0,0.0,0.0,0.0,0.0,0.0,0.0,0.0,0.0,0.0,0.0,0.0,0.0,0.0,0.0,0.0,0.0,0.0,0.0,0.0,0.0,0.0,0.0,0.0,0.0,0.0,-0.9189,-1.0179,-1.0224,-1.0191,-1.0203,-1.0209,-1.0171,-1.0086,0.0,0.0,0.0,0.0,0.0,0.0,0.0,0.0,0.0,0.0,0.0,0.0,0.0,0.0,0.0,0.0,0.0,0.0,0.0,0.0,0.0,0.0,0.0,0.0,0.0,0.0,0.0,0.0,0.0,0.0,0.0,0.0,0.0,0.0,0.0,0.0,0.0,0.0,0.0,0.0,0.0,0.0,0.0,0.0,0.0,0.0,0.0,0.0,0.0,0.0,0.0,0.0,0.0,0.0,0.0,0.0,0.0,0.0,0.0,0.0,0.0,0.0,0.0,0.0,0.0,0.0,0.0,0.0,0.0,0.0,0.0,0.0,0.0,0.0,0.0,0.0,0.0,0.0,0.0,0.0,0.0,0.0,0.0,0.0,0.0,0.0,0.0,0.0,0.0,0.0,0.0,0.0,0.0,0.0,0.0,0.0,0.0,0.0,0.0,0.0,0.0,0.0,0.0,-0.9428,-0.9824,-1.0248,-1.0234,-1.0206,-1.0205,-1.0209,-1.0163,-1.0057,-0.8511,0.0,0.0,0.0,0.0,0.0,0.0,0.0,0.0,0.0,0.0,0.0,0.0,0.0,0.0,0.0,0.0,0.0,0.0,0.0,0.0,0.0,0.0,0.0,0.0,0.0,0.0,0.0,0.0,0.0,0.0,0.0,0.0,0.0,0.0,0.0,0.0,0.0,0.0,0.0,0.0,0.0,0.0,0.0,0.0,0.0,0.0,0.0,0.0,0.0,0.0,0.0,0.0,0.0,0.0,0.0,0.0,0.0,0.0,0.0,0.0,0.0,0.0,0.0,0.0,0.0,0.0,0.0,0.0,0.0,0.0,0.0,0.0,0.0,0.0,0.0,0.0,0.0,0.0,0.0,0.0,0.0,0.0,0.0,0.0,0.0,0.0,0.0,0.0,0.0,0.0,0.0,0.0,0.0,0.0,0.0,0.0,0.0,0.0,0.0,0.0,0.0,0.0,-1.0234,-1.0228,-1.0291,-1.0243,-1.0198,-1.0208,-1.0209,-1.0159,-1.0058,-0.8497,0.0,0.0,0.0,0.0,0.0,0.0,0.0,0.0,0.0,0.0,0.0,0.0,0.0,0.0,0.0,0.0,0.0,0.0,0.0,0.0,0.0,0.0,0.0,0.0,0.0,0.0,0.0,0.0,0.0,0.0,0.0,0.0,0.0,0.0,0.0,0.0,0.0,0.0,0.0,0.0,0.0,0.0,0.0,0.0,0.0,0.0,0.0,0.0,0.0,0.0,0.0,0.0,0.0,0.0,0.0,0.0,0.0,0.0,0.0,0.0,0.0,0.0,0.0,0.0,0.0,0.0,0.0,0.0,0.0,0.0,0.0,0.0,0.0,0.0,0.0,0.0,0.0,0.0,0.0,0.0,0.0,0.0,0.0,0.0,0.0,0.0,0.0,0.0,0.0,0.0,0.0,0.0,0.0,0.0,0.0,0.0,0.0,0.0,0.0,0.0,0.0,0.0,-1.0234,-1.0234,-1.0292,-1.0232,-1.0198,-1.0208,-1.0209,-1.0194,-1.019,-0.8562,0.0,0.0,0.0,0.0,0.0,0.0,0.0,0.0,0.0,0.0,0.0,0.0,0.0,0.0,0.0,0.0,0.0,0.0,0.0,0.0,0.0,0.0,0.0,0.0,0.0,0.0,0.0,0.0,0.0,0.0,0.0,0.0,0.0,0.0,0.0,0.0,0.0,0.0,0.0,0.0,0.0,0.0,0.0,0.0,0.0,0.0,0.0,0.0,0.0,0.0,0.0,0.0,0.0,0.0,0.0,0.0,0.0,0.0,0.0,0.0,0.0,0.0,0.0,0.0,0.0,0.0,0.0,0.0,0.0,0.0,0.0,0.0,0.0,0.0,0.0,0.0,0.0,0.0,0.0,0.0,0.0,0.0,0.0,0.0,0.0,0.0,0.0,0.0,0.0,0.0,0.0,0.0,0.0,0.0,0.0,0.0,0.0,0.0,0.0,0.0,0.0,0.0,-1.0273,-1.0273,0.0,-1.0285,-1.0246,-1.0191,-1.02,-1.0201,-1.0197,0.0,0.0,0.0,0.0,0.0,0.0,0.0,0.0,0.0,0.0,0.0,0.0,0.0,0.0,0.0,0.0,0.0,0.0,0.0,0.0,0.0,0.0,0.0,0.0,0.0,0.0,0.0,0.0,0.0,0.0,0.0,0.0,0.0,0.0,0.0,0.0,0.0,0.0,0.0,0.0,0.0,0.0,0.0,0.0,0.0,0.0,0.0,0.0,0.0,0.0,0.0,0.0,0.0,0.0,0.0,0.0,0.0,0.0,0.0,0.0,0.0,0.0,0.0,0.0,0.0,0.0,0.0,0.0,0.0,0.0,0.0,0.0,0.0,0.0,0.0,0.0,0.0,0.0,0.0,0.0,0.0,0.0,0.0,0.0,0.0,0.0,0.0,0.0,0.0,0.0,0.0,0.0,0.0,0.0,0.0,0.0,0.0,0.0,0.0,0.0,0.0,0.0,-1.0078,-1.0293,-1.0293,0.0,-1.0287,-1.0242,-1.0191,-1.02,-1.0196,-1.0202,0.0,0.0,0.0,0.0,0.0,0.0,0.0,0.0,0.0,0.0,0.0,0.0,0.0,0.0,0.0,0.0,0.0,0.0,0.0,0.0,0.0,0.0,0.0,0.0,0.0,0.0,0.0,0.0,0.0,0.0,0.0,0.0,0.0,0.0,0.0,0.0,0.0,0.0,0.0,0.0,0.0,0.0,0.0,0.0,0.0,0.0,0.0,0.0,0.0,0.0,0.0,0.0,0.0,0.0,0.0,0.0,0.0,0.0,0.0,0.0,0.0,0.0,0.0,0.0,0.0,0.0,0.0,0.0,0.0,0.0,0.0,0.0,0.0,0.0,0.0,0.0,0.0,0.0,0.0,0.0,0.0,0.0,0.0,0.0,0.0,0.0,0.0,0.0,0.0,0.0,0.0,0.0,0.0,0.0,0.0,0.0,0.0,0.0,0.0,0.0,0.0,0.0,-1.0078,-1.0293,-1.0293,-1.0293,-1.0234,-1.0196,-1.0209,-1.0193,-1.0207,0.0,0.0,0.0,0.0,0.0,0.0,0.0,0.0,0.0,0.0,0.0,0.0,0.0,0.0,0.0,0.0,0.0,0.0,0.0,0.0,0.0,0.0,0.0,0.0,0.0,0.0,0.0,0.0,0.0,0.0,0.0,0.0,0.0,0.0,0.0,0.0,0.0,0.0,0.0,0.0,0.0,0.0,0.0,0.0,0.0,0.0,0.0,0.0,0.0,0.0,0.0,0.0,0.0,0.0,0.0,0.0,0.0,0.0,0.0,0.0,0.0,0.0,0.0,0.0,0.0,0.0,0.0,0.0,0.0,0.0,0.0,0.0,0.0,0.0,0.0,0.0,0.0,0.0,0.0,0.0,0.0,0.0,0.0,0.0,0.0,0.0,0.0,0.0,0.0,0.0,0.0,0.0,0.0,0.0,0.0,0.0,0.0,0.0,0.0,0.0,0.0,0.0,0.0,-1.0078,-1.0254,-1.0229,-1.0224,-1.0208,-1.0206,-1.0196,-1.0199,-1.0205,-1.0194,0.0,0.0,0.0,0.0,0.0,0.0,0.0,0.0,0.0,0.0,0.0,0.0,0.0,0.0,0.0,0.0,0.0,0.0,0.0,0.0,0.0,0.0,0.0,0.0,0.0,0.0,0.0,0.0,0.0,0.0,0.0,0.0,0.0,0.0,0.0,0.0,0.0,0.0,0.0,0.0,0.0,0.0,0.0,0.0,0.0,0.0,0.0,0.0,0.0,0.0,0.0,0.0,0.0,0.0,0.0,0.0,0.0,0.0,0.0,0.0,0.0,0.0,0.0,0.0,0.0,0.0,0.0,0.0,0.0,0.0,0.0,0.0,0.0,0.0,0.0,0.0,0.0,0.0,0.0,0.0,0.0,0.0,0.0,0.0,0.0,0.0,0.0,0.0,0.0,0.0,0.0,0.0,0.0,0.0,0.0,0.0,0.0,0.0,0.0,0.0,0.0,0.0,-1.0045,-1.0221,-1.0194,-1.0202,-1.0198,-1.0194,-1.0194,-1.0175,-1.0156,-1.0156,0.0,0.0,0.0,0.0,0.0,0.0,0.0,0.0,0.0,0.0,0.0,0.0,0.0,0.0,0.0,0.0,0.0,0.0,0.0,0.0,0.0,0.0,0.0,0.0,0.0,0.0,0.0,0.0,0.0,0.0,0.0,0.0,0.0,0.0,0.0,0.0,0.0,0.0,0.0,0.0,0.0,0.0,0.0,0.0,0.0,0.0,0.0,0.0,0.0,0.0,0.0,0.0,0.0,0.0,0.0,0.0,0.0,0.0,0.0,0.0,0.0,0.0,0.0,0.0,0.0,0.0,0.0,0.0,0.0,0.0,0.0,0.0,0.0,0.0,0.0,0.0,0.0,0.0,0.0,0.0,0.0,0.0,0.0,0.0,0.0,0.0,0.0,0.0,0.0,0.0,0.0,0.0,0.0,0.0,0.0,0.0,0.0,0.0,0.0,0.0,0.0,0.0,-0.9998,-1.0208,-1.0207,-1.0207,-1.0206,-1.0194,-1.0194,-1.0133,-1.0094,-1.0094,0.0,0.0,0.0,0.0,0.0,0.0,0.0,0.0,0.0,0.0,0.0,0.0,0.0,0.0,0.0,0.0,0.0,0.0,0.0,0.0,0.0,0.0,0.0,0.0,0.0,0.0,0.0,0.0,0.0,0.0,0.0,0.0,0.0,0.0,0.0,0.0,0.0,0.0,0.0,0.0,0.0,0.0,0.0,0.0,0.0,0.0,0.0,0.0,0.0,0.0,0.0,0.0,0.0,0.0,0.0,0.0,0.0,0.0,0.0,0.0,-0.8303,0.0,0.0,0.0,0.0,0.0,0.0,0.0,0.0,0.0,0.0,0.0,0.0,0.0,0.0,0.0,0.0,0.0,0.0,0.0,0.0,0.0,0.0,0.0,0.0,0.0,0.0,0.0,0.0,0.0,0.0,0.0,0.0,0.0,0.0,0.0,0.0,0.0,0.0,0.0,0.0,0.0,-1.0067,-1.0194,-1.0205,-1.0205,-1.0206,-1.0175,-1.0133,-1.0113,-1.0094,-1.0094,-0.9168,0.0,0.0,0.0,0.0,0.0,0.0,0.0,0.0,0.0,0.0,0.0,0.0,0.0,0.0,0.0,0.0,0.0,0.0,0.0,0.0,0.0,0.0,0.0,0.0,0.0,0.0,0.0,0.0,0.0,0.0,0.0,0.0,0.0,0.0,0.0,0.0,0.0,0.0,0.0,0.0,0.0,0.0,0.0,0.0,0.0,0.0,0.0,0.0,0.0,0.0,0.0,0.0,0.0,0.0,0.0,0.0,0.0,0.0,0.0,0.0,-0.9141,0.0,0.0,0.0,0.0,0.0,0.0,0.0,0.0,0.0,0.0,0.0,0.0,0.0,0.0,0.0,0.0,0.0,0.0,0.0,0.0,0.0,0.0,0.0,0.0,0.0,0.0,0.0,0.0,0.0,0.0,0.0,0.0,0.0,0.0,0.0,0.0,0.0,0.0,0.0,0.0,-1.0652,-1.0436,-1.031,-1.0733,-1.0406,-1.0133,-1.0094,-1.0094,-1.0094,-1.0094,-0.9352,0.0,0.0,0.0,0.0,0.0,0.0,0.0,0.0,0.0,0.0,0.0,0.0,0.0,0.0,0.0,0.0,0.0,0.0,0.0,0.0,0.0,0.0,0.0,0.0,0.0,0.0,0.0,0.0,0.0,0.0,0.0,0.0,0.0,0.0,0.0,0.0,0.0,0.0,0.0,0.0,0.0,0.0,0.0,0.0,0.0,0.0,0.0,0.0,0.0,0.0,0.0,0.0,0.0,-1.0283,-1.1027,-1.1721,-1.1737,-1.2122,-1.2681,-1.0553,-1.0022,-1.0637,-1.0481,0.0,0.0,0.0,0.0,0.0,0.0,0.0,0.0,0.0,0.0,0.0,0.0,0.0,0.0,0.0,0.0,0.0,0.0,0.0,0.0,0.0,0.0,0.0,0.0,-1.2822,-1.2479,0.0,0.0,0.0,0.0,0.0,0.0,0.0,0.0,0.0,0.0,0.0,0.0,-1.1292,-1.0932,-1.0829,-1.1545,-1.0848,-1.0325,-1.0325,-1.019,-1.0094,-1.0094,-0.9479,-0.9103,0.0,0.0,0.0,0.0,0.0,0.0,0.0,0.0,0.0,0.0,0.0,0.0,0.0,0.0,0.0,0.0,0.0,0.0,0.0,0.0,0.0,0.0,0.0,0.0,0.0,0.0,0.0,0.0,0.0,0.0,0.0,0.0,-0.5859,-0.594,0.0,0.0,0.0,0.0,0.0,0.0,0.0,0.0,0.0,0.0,0.0,0.0,0.0,-0.9544,-1.0972,-1.1092,-1.1525,-1.2262,-1.2403,-1.2529,-1.2634,-1.263,-1.2682,-1.2772,-1.2387,0.0,-1.2402,-1.1641,0.0,0.0,0.0,0.0,0.0,0.0,0.0,0.0,0.0,0.0,0.0,0.0,0.0,0.0,0.0,0.0,0.0,0.0,0.0,0.0,0.0,0.0,-1.3508,-1.2861,-1.2715,-1.2662,0.0,-1.1738,-1.0953,-1.0183,-0.9341,0.0,0.0,0.0,0.0,0.0,0.0,0.0,-1.1369,-1.1978,-1.2392,-1.2526,-1.1757,-1.1233,-1.1233,-1.054,-1.0094,-1.0094,-0.9998,-0.994,-0.9936,-0.9171,0.0,0.0,0.0,0.0,0.0,0.0,0.0,0.0,0.0,0.0,0.0,0.0,0.0,0.0,0.0,0.0,0.0,0.0,0.0,0.0,0.0,0.0,0.0,0.0,0.0,0.0,0.0,0.0,0.0,-0.565,-0.6219,-0.6811,-0.6844,-0.6872,0.0,0.0,0.0,0.0,0.0,0.0,0.0,0.0,0.0,-1.0324,-1.0397,-1.0993,-1.222,-1.2222,-1.2396,-1.2752,-1.3242,-1.3474,-1.3483,-1.3978,-1.4212,-1.4205,-1.4174,-1.4186,-1.4101,-1.2736,-1.218,-1.2139,0.0,0.0,0.0,0.0,-1.2166,-1.2284,-1.3132,-1.3418,0.0,0.0,0.0,0.0,0.0,0.0,0.0,0.0,0.0,0.0,0.0,0.0,0.0,-1.4135,-1.4164,-1.4158,-1.4166,-1.351,-1.2645,0.0,-1.1302,-1.0756,-0.9839,0.0,0.0,0.0,0.0,-1.2215,-1.2793,-1.27,-1.2779,-1.3263,-1.2465,-1.1914,-1.1914,-1.1135,-1.066,-1.066,-1.0233,-0.9991,-0.9991,-0.9686,-0.9302,0.0,0.0,0.0,0.0,0.0,0.0,0.0,0.0,0.0,0.0,0.0,0.0,0.0,0.0,0.0,0.0,0.0,0.0,0.0,0.0,0.0,0.0,0.0,0.0,0.0,0.0,0.0,0.0,-0.6177,-0.6733,-0.7719,-0.7739,-0.7735,0.0,0.0,0.0,0.0,0.0,0.0,-0.9545,-0.9628,-1.0311,-1.1799,-1.1855,-1.2281,-1.3101,-1.3117,-1.3174,-1.332,-1.3973,-1.4272,-1.4279,-1.5108,-1.5501,-1.5513,-1.5718,-1.5821,-1.5661,-1.3749,-1.3106,-1.3269,-1.3009,-1.3028,-1.3244,-1.3468,-1.3545,-1.3659,-1.4537,-1.4818,-1.4775,-1.4775,0.0,-1.4315,-1.3611,0.0,0.0,0.0,0.0,-1.3624,-1.4596,-1.4844,-1.4998,-1.5668,-1.5821,-1.5804,-1.5811,-1.5133,-1.4227,0.0,-1.2812,-1.2431,-1.1736,0.0,0.0,0.0,0.0,-1.3057,-1.3793,-1.3436,-1.337,-1.4004,-1.3202,-1.2624,-1.2624,-1.188,-1.1323,-1.1116,-1.054,-1.0113,-0.9912,-0.9957,-0.9725,-0.9125,0.0,0.0,0.0,0.0,0.0,0.0,0.0,0.0,0.0,0.0,0.0,0.0,0.0,0.0,0.0,0.0,0.0,0.0,0.0,0.0,0.0,0.0,0.0,0.0,0.0,0.0,0.0,0.0,0.0,-0.8624,-0.8739,0.0,0.0,0.0,0.0,-0.8831,-0.9602,-1.0474,-1.1406,-1.1411,-1.1787,-1.2711,-1.2683,-1.3067,-1.3928,-1.3942,-1.4285,-1.4974,-1.5022,-1.5003,-1.4965,-1.5714,-1.6065,-1.6092,-1.687,-1.7202,-1.7014,-1.4695,-1.4197,-1.4791,-1.3823,-1.3932,-1.4701,-1.5536,-1.5818,-1.5959,-1.6834,-1.7135,-1.7135,-1.7135,-1.6571,-1.5903,-1.5837,-1.529,0.0,0.0,-1.5825,-1.604,-1.6913,-1.7135,-1.7154,-1.7202,-1.7202,-1.7198,-1.7202,-1.6566,-1.557,0.0,-1.3111,-1.2491,-1.2452,0.0,-1.2294,-1.2264,-1.2997,-1.357,-1.3616,-1.4292,-1.4799,-1.4837,-1.4049,-1.3524,-1.3524,-1.2745,-1.1918,-1.1154,-1.106,-1.069,-0.9931,-0.9957,-0.9977,-0.9939,-0.926,0.0,0.0,0.0,0.0,0.0,0.0,0.0,0.0,0.0,0.0,0.0,0.0,0.0,0.0,0.0,0.0,0.0,0.0,0.0,0.0,0.0,0.0,0.0,0.0,0.0,0.0,0.0,0.0,-0.9524,-0.9594,0.0,-0.969,-0.9685,-0.9916,-1.0539,-1.0865,-1.142,-1.2259,-1.2297,-1.2656,-1.3482,-1.3472,-1.385,-1.4647,-1.5118,-1.5487,-1.5759,-1.6279,-1.6506,-1.6487,-1.6755,-1.6876,-1.6895,-1.7179,-1.7302,-1.7227,-1.6295,-1.6147,-1.6451,-1.6091,-1.6127,-1.6399,-1.6709,-1.6833,-1.6889,-1.7189,-1.7302,-1.7302,-1.7302,-1.7023,-1.6713,-1.6713,-1.6453,-1.6233,-1.6604,-1.6704,-1.6804,-1.7195,-1.7302,-1.7302,-1.7302,-1.7302,-1.7307,-1.7302,-1.7074,-1.6726,-1.6194,-1.498,-1.3849,-1.3255,-1.3521,-1.3663,-1.3139,-1.3784,-1.4335,-1.4425,-1.4625,-1.4776,-1.4776,-1.4416,-1.4177,-1.4177,-1.3428,-1.2595,-1.1798,-1.1261,-1.0613,-0.9812,-0.9844,-0.9893,-0.9938,-0.972,-0.9218,0.0,0.0,0.0,0.0,0.0,0.0,0.0,0.0,0.0,0.0,0.0,0.0,0.0,0.0,0.0,0.0,0.0,0.0,0.0,0.0,0.0,0.0,0.0,0.0,0.0,0.0,-0.9153,-1.0029,-1.0093,-1.0228,-1.0606,-1.0593,-1.0941,-1.1828,-1.1882,-1.2224,-1.3056,-1.3041,-1.338,-1.4203,-1.4503,-1.4887,-1.5376,-1.6036,-1.6346,-1.6299,-1.6756,-1.6978,-1.7046,-1.7306,-1.7473,-1.7589,-1.7857,-1.7969,-1.7969,-1.7881,-1.7894,-1.795,-1.7683,-1.7739,-1.7969,-1.7969,-1.7969,-1.7969,-1.7969,-1.7932,-1.7881,-1.7881,-1.7757,-1.7613,-1.7721,-1.7683,-1.7643,-1.7789,-1.7842,-1.7868,-1.7957,-1.7969,-1.7969,-1.7969,-1.7969,-1.7969,-1.7969,-1.7758,-1.7562,-1.7564,-1.6534,-1.5362,-1.4473,-1.4712,-1.4765,-1.3967,-1.4301,-1.4666,-1.4747,-1.4687,-1.4635,-1.4635,-1.4556,-1.4488,-1.4488,-1.3747,-1.3078,-1.2545,-1.1508,-1.0655,-1.0131,-0.9919,-0.9863,-0.9893,-0.9686,-0.9467,-0.9267,0.0,0.0,0.0,0.0,0.0,0.0,0.0,0.0,0.0,0.0,0.0,0.0,0.0,0.0,0.0,0.0,0.0,0.0,0.0,0.0,0.0,0.0,0.0,-0.8906,-0.892,-0.9265,-1.0144,-1.0249,-1.0585,-1.1455,-1.1538,-1.1863,-1.2676,-1.2674,-1.301,-1.3884,-1.3728,-1.4026,-1.4907,-1.5668,-1.6092,-1.6111,-1.6648,-1.6846,-1.6716,-1.6496,-1.644,-1.6594,-1.7381,-1.7902,-1.8188,-1.8959,-1.9305,-1.9305,-1.9305,-1.9305,-1.9216,-1.8445,-1.861,-1.9289,-1.9289,-1.9289,-1.9274,-1.9274,-1.915,-1.9002,-1.9002,-1.8807,-1.8659,-1.8914,-1.8984,-1.9035,-1.9246,-1.9289,-1.9305,-1.9305,-1.9289,-1.9289,-1.9289,-1.9289,-1.9289,-1.9289,-1.8669,-1.8126,-1.8128,-1.7599,-1.6881,-1.6063,-1.5826,-1.5472,-1.4689,-1.4543,0.0,-1.4543,-1.4506,-1.4488,-1.4488,-1.4488,-1.4488,-1.4488,-1.3794,-1.3317,-1.3262,-1.1801,-1.093,-1.0893,-1.0278,-0.9925,-0.9925,-0.9196,-0.9201,-0.9984,0.0,0.0,0.0,0.0,0.0,0.0,0.0,0.0,0.0,0.0,0.0,0.0,0.0,0.0,0.0,0.0,0.0,0.0,0.0,0.0,0.0,-0.8959,-0.9514,-0.8973,-0.9437,-1.0179,-1.1034,-1.1139,-1.146,-1.2219,-1.2254,-1.2541,-1.329,-1.3349,-1.3714,-1.4576,-1.4438,-1.4716,-1.5591,-1.5515,-1.5754,-1.6374,-1.6967,-1.7234,-1.7218,-1.7909,-1.8282,-1.8335,-1.8695,-1.8895,-1.8977,-1.9198,-1.9305,-1.9305,-1.9305,-1.9305,-1.9286,-1.9051,-1.9106,-1.9274,-1.9134,-1.8966,-1.8789,-1.8789,-1.8753,-1.8715,-1.8715,-1.8659,-1.8604,-1.8697,-1.8861,-1.9001,-1.9069,-1.9198,-1.9305,-1.9305,-1.9198,-1.9086,-1.9086,-1.8927,-1.8802,-1.8802,-1.8605,-1.8447,-1.8465,-1.8306,-1.7854,-1.6798,-1.6586,-1.6505,-1.6266,-1.5747,0.0,-1.5362,-1.4866,-1.4488,-1.4488,-1.4488,-1.4488,-1.4488,-1.4297,-1.3673,-1.2499,-1.2003,-1.1508,-1.093,-1.0723,-1.0639,-1.0695,-1.1103,-1.0829,0.0,0.0,0.0,0.0,0.0,0.0,0.0,0.0,0.0,0.0,0.0,0.0,0.0,0.0,0.0,0.0,0.0,0.0,0.0,0.0,0.0,0.0,-0.9642,-1.0317,-0.9874,-1.0324,-1.0875,-1.136,-1.1719,-1.2213,-1.2938,-1.2919,-1.3201,-1.4073,-1.4219,-1.4529,-1.5115,-1.5227,-1.5509,-1.6001,-1.6094,-1.6346,-1.6861,-1.7452,-1.7745,-1.7745,-1.8259,-1.8547,-1.8678,-1.8789,-1.8894,0.0,-1.8998,-1.9066,-1.9166,-1.9048,-1.9082,0.0,0.0,0.0,0.0,0.0,-1.8734,-1.8585,-1.8585,-1.8528,-1.843,-1.843,-1.8351,-1.829,-1.8391,-1.8547,-1.8697,-1.8789,-1.8913,-1.8998,-1.8998,-1.8913,-1.8825,-1.8825,-1.8699,-1.861,-1.8592,-1.859,-1.8601,-1.86,0.0,0.0,-1.7724,-1.732,-1.7056,-1.6918,-1.642,-1.5955,-1.5716,-1.5288,-1.4866,-1.4543,-1.4488,-1.4488,-1.4488,-1.4187,0.0,0.0,0.0,-1.1893,-1.1469,-1.1451,0.0,0.0,0.0,0.0,0.0,0.0,0.0,0.0,-1.1053,-1.1414,0.0,0.0,0.0,0.0,0.0,0.0,0.0,0.0,0.0,0.0,0.0,0.0,0.0,0.0,0.0,0.0,-1.0113,-1.1108,-1.1215,-1.1452,-1.1622,-1.1566,-1.2196,-1.2911,-1.3616,-1.3531,-1.383,-1.4841,-1.5086,-1.5278,-1.5555,0.0,0.0,0.0,0.0,-1.7381,-1.7488,-1.7922,-1.8197,-1.8284,-1.8068,-1.8141,-1.8447,-1.8489,-1.8615,-1.885,-1.885,-1.8983,-1.9183,-1.8946,-1.8983,-1.9218,-1.9295,-1.9282,-1.9129,-1.88,-1.8651,0.0,0.0,0.0,0.0,-1.8284,-1.8163,-1.8093,-1.8319,-1.8374,-1.8371,-1.8612,-1.8637,-1.8585,-1.8585,-1.8566,-1.8547,-1.8547,-1.8535,-1.8519,-1.8512,-1.8498,-1.851,-1.8511,-1.851,-1.8508,-1.8547,-1.8001,-1.7451,-1.7176,-1.6856,-1.6468,-1.6034,-1.5894,-1.5564,-1.4854,0.0,0.0,-1.4634,-1.3967,-1.3794,-1.4334,-1.3013,-1.2262,-1.2326,-1.2493,-1.2575,-1.2547,-1.2668,-1.3391,-1.4717,-1.486,-1.5277,-1.585,-1.3094,-1.2614,0.0,0.0,0.0,0.0,0.0,0.0,0.0,0.0,0.0,0.0,0.0,0.0,0.0,0.0,0.0,-1.0331,-1.0723,-1.1181,-1.1897,-1.2635,-1.3115,-1.315,-1.3279,-1.3614,-1.4198,-1.4213,-1.4411,-1.4948,-1.5015,-1.5345,-1.6018,-1.5993,-1.6325,-1.7135,-1.6939,-1.7219,-1.8044,-1.7928,-1.8189,-1.8767,0.0,0.0,-1.9981,-2.021,-2.034,-2.0365,-2.0365,-2.0403,-2.0445,-2.0403,-2.0403,-2.0413,-1.9834,-1.9835,-2.0048,-1.9399,-1.9021,-1.8751,-1.8154,-1.8319,-1.8767,-1.8767,-1.9144,-1.9587,-1.9636,-1.9384,0.0,-1.9152,-1.8904,-1.8585,-1.8585,-1.843,-1.827,-1.827,-1.8107,-1.7941,-1.7954,-1.7944,-1.7934,-1.7957,-1.7934,-1.8035,-1.8229,-1.8327,-1.8431,-1.8568,-1.7954,-1.7514,-1.7628,-1.7055,-1.6615,-1.645,-1.6431,-1.6175,-1.5527,-1.5325,-1.4749,-1.3611,-1.3243,-1.307,-1.309,-1.4331,-1.4717,-1.4095,-1.5331,-1.5827,-1.549,-1.6152,-1.6544,-1.6691,-1.6284,-1.5903,0.0,0.0,0.0,0.0,0.0,0.0,0.0,0.0,0.0,0.0,0.0,-0.8565,-0.9136,0.0,-1.0302,-1.1201,-1.1772,-1.2214,-1.256,-1.3322,-1.3756,-1.3532,-1.3803,-1.4074,-1.4277,-1.4486,-1.4713,-1.498,-1.554,-1.6077,-1.6568,-1.6758,-1.7075,-1.7579,-1.7365,-1.7657,-1.8523,-1.8421,-1.8724,-1.9452,-1.9597,-1.9833,-2.0191,-2.0343,-2.0413,-2.0413,-2.0413,-2.0483,-2.0603,-2.0603,-2.0755,-2.0967,-2.0586,-2.0431,-2.0332,-1.9853,-1.9573,-1.9401,-1.9022,-1.9123,-1.9452,-1.9452,-1.9697,-2.0002,-2.0002,-1.9855,-1.9651,-1.9651,-1.9218,-1.8741,-1.8741,-1.8396,-1.8014,-1.8014,-1.79,-1.7811,-1.7811,-1.7811,-1.7811,-1.7811,-1.7811,-1.7839,-1.7971,-1.8103,-1.8391,-1.8914,-1.8623,-1.829,-1.8122,-1.7752,-1.7348,-1.6945,-1.6908,-1.6743,-1.6321,-1.6298,-1.5967,-1.516,-1.5105,-1.5105,-1.5105,-1.5876,-1.6101,-1.5716,-1.6487,-1.689,-1.6903,-1.7293,-1.7697,-1.8096,-1.8249,-1.7919,0.0,0.0,0.0,0.0,0.0,0.0,0.0,-0.6822,-0.7446,-0.7704,-0.8264,-0.9005,-0.9983,-1.0301,-1.0784,-1.181,-1.2658,-1.3175,-1.3172,-1.3723,-1.3973,-1.3555,-1.4087,-1.4458,-1.4329,-1.4732,-1.5107,-1.5311,-1.6184,-1.6812,-1.715,-1.756,-1.7811,-1.7811,-1.7811,-1.8149,-1.8894,-1.8894,-1.935,-2.0221,-2.0221,-2.0306,-2.0441,-2.0441,-2.0441,-2.0441,-2.0441,-2.0552,-2.0759,-2.0759,-2.096,-2.1271,-2.1271,-2.0974,-2.0484,-2.0187,-2.0101,-2.0084,-1.9855,-1.9863,-1.9997,-1.9997,-2.0133,-2.0293,-2.0224,-2.0219,-2.0221,-2.0127,-1.9614,-1.9113,-1.9113,-1.8674,-1.8177,-1.8065,-1.802,-1.7952,-1.7828,-1.7811,-1.7811,-1.7811,-1.7811,-1.7811,-1.7811,-1.7839,-1.8121,-1.8807,-1.8931,-1.8783,-1.8379,-1.8335,-1.8078,-1.744,-1.7367,-1.7293,-1.7147,-1.7,-1.6908,-1.6908,-1.6908,-1.6908,-1.6908,-1.7055,-1.7128,-1.7128,-1.7293,-1.7679,-1.8335,-1.8335,-1.8665,-1.9289,-1.9455,-1.9269,-0.3879,-0.4245,-0.4643,-0.5547,-0.6063,-0.6516,0.0,-0.7673,-0.8062,-0.8259,-0.853,-0.8981,-0.9869,-1.0139,-1.0755,-1.2327,-1.2697,-1.301,-1.3697,-1.3888,-1.392,-1.3859,-1.4488,-1.4894,-1.4741,-1.5367,-1.5983,-1.6475,-1.6618,-1.7004,-1.7664,-1.776,-1.7811,-1.7811,-1.7811,-1.8149,-1.8894,-1.8894,-1.9621,-2.1085,-2.1085,-2.1397,-2.2057,-2.2057,-2.2057,-2.2057,-2.2057,-2.2057,-2.2084,-2.2084,-2.1888,-2.1573,-2.1573,-2.1297,-2.0889,-2.0553,-2.0421,-2.0311,-1.9292,-1.9356,-1.9915,-1.9915,-2.0606,-2.1335,-2.1017,-2.0982,-2.0988,-2.055,-2.0171,-1.9866,-1.9866,-1.9816,-1.9579,-1.8927,-1.8773,-1.8603,-1.7935,-1.7811,-1.7811,-1.7811,-1.7811,-1.7811,-1.7811,-1.7992,-1.827,-1.8603,-1.8642,-1.8771,-1.9115,-1.9161,-1.9124,-1.9032,-1.9032,-1.8739,-1.8041,-1.7312,-1.6908,-1.6908,-1.6908,-1.6908,-1.6908,-1.7587,-1.7968,-1.7968,-1.8665,-1.9069,-1.9161,-1.9161,-1.9198,-1.9323,-2.0042,-2.0335,-0.4445,-0.4933,-0.5342,-0.59,-0.6359,-0.677,-0.7073,-0.7772,-0.8393,-0.859,-0.9109,-0.9794,-1.0717,-1.1015,-1.1513,0.0,-1.2913,-1.3062,-1.3292,-1.331,-1.326,-1.316,-1.378,-1.4304,-1.4448,-1.505,-1.5625,-1.6092,-1.6528,-1.6888,-1.7199,-1.7216,-1.751,-1.8135,-1.8152,-1.8817,-2.0213,-2.023,-2.0771,-2.1837,-2.1563,-2.1582,-2.1899,-2.1645,-2.1554,-2.1554,-2.1554,-2.1554,-2.1554,-2.1554,-2.1415,-2.1244,-2.1244,-2.115,-2.0991,-2.0842,-2.0791,-2.0712,-2.0254,-2.0288,-2.0543,-2.0543,-2.0861,-2.1244,-2.1337,-2.1384,-2.1461,-2.1535,-2.1154,-2.0703,-2.0703,-2.0339,-1.9917,-1.9621,-1.9199,-1.8813,-1.8517,-1.8115,-1.7811,-1.7811,-1.7811,-1.7811,-1.7811,-1.7883,-1.8057,-1.833,-1.8623,-1.8948,-1.9259,-1.9305,-1.9305,-1.9305,-1.9305,-1.9161,-1.8831,-1.8482,-1.8298,-1.8298,-1.8298,-1.8298,-1.8298,-1.861,-1.8794,-1.8794,-1.9124,-1.9305,-1.9305,-1.9305,-1.9305,-1.9323,-2.0134,-2.0776,-0.4846,-0.5401,-0.5782,-0.6058,-0.6456,-0.6815,-0.6862,-0.7641,-0.8424,-0.8642,-0.9369,-1.0244,-1.1122,-1.1519,-1.1972,-1.2709,-1.3082,-1.3186,-1.2858,-1.2969,-1.3024,-1.2899,-1.3364,-1.388,-1.4427,-1.4983,-1.5486,-1.5975,-1.6502,-1.6789,-1.6789,-1.6981,-1.7432,-1.8212,-1.8424,-1.9262,-2.0844,-2.0844,-2.1211,-2.1945,-2.1598,-2.143,-2.143,-2.1118,-2.0991,-2.0991,-2.0991,-2.0991,-2.0991,-2.0991,-2.0926,-2.0797,-2.0797,-2.0731,-2.0632,-2.0632,-2.0698,-2.0797,-2.0665,-2.0632,-2.0632,-2.0632,-2.0731,-2.0829,-2.1007,-2.1228,-2.1507,-2.1857,-2.1647,-2.1356,-2.1454,-2.1075,-2.0576,-2.0373,-1.9924,-1.9481,-1.9256,-1.8792,-1.8397,-1.8397,-1.8251,-1.8115,-1.8115,-1.7929,-1.7883,-1.8146,-1.8528,-1.8896,-1.9182,-1.9277,-1.9305,-1.9305,-1.9305,-1.9305,-1.9305,-1.9305,-1.9305,-1.9305,-1.9305,-1.9305,-1.9305,-1.9305,-1.9305,-1.9305,-1.9305,-1.9305,-1.9305,-1.9305,-1.9399,-1.9656,-2.0482,-2.1327,-0.4953,-0.5309,-0.5576,-0.5837,-0.622,-0.6576,-0.6765,-0.7431,-0.8097,-0.8363,-0.9049,-0.9836,-1.0593,-1.1141,-1.1755,-1.2498,-1.3151,-1.3359,-1.2707,-1.3167,-1.3578,-1.3557,-1.3589,-1.4022,0.0,-1.5534,-1.6048,-1.6735,-1.6773,-1.6789,-1.6789,-1.7417,-1.7784,-1.7816,-1.8442,-1.9172,-1.9936,-1.9952,-2.0319,-2.1039,-2.1039,-2.1023,-2.1023,-2.1007,-2.0991,-2.0991,-2.0991,-2.0991,-2.0991,-2.0991,-2.0715,-2.0314,-2.0314,-2.0089,-1.9762,-1.9762,-1.998,-2.0246,-1.9874,-1.9762,-1.9762,-1.9762,-2.0,-2.0246,-1.9874,-2.0345,-2.1023,-2.1039,-2.129,-2.1685,-2.2147,-2.226,-2.2057,-2.1312,-2.1143,-2.0927,-2.0145,-1.9951,-1.9934,-1.9934,-1.9367,-1.886,-1.886,-1.8268,-1.7883,-1.8146,-1.8208,-1.841,-1.8949,-1.9182,-1.9305,-1.9305,-1.9305,-1.9305,-1.9305,-1.9305,-1.9305,-1.9305,-1.9305,-1.9305,-1.9305,-1.9305,-1.9305,-1.9305,-1.9305,-1.9305,-1.9305,-1.9305,-1.9693,-2.0484,-2.1363,-2.2189,-0.4962,-0.5392,-0.5755,-0.6023,-0.6393,-0.6767,-0.7014,-0.7714,-0.8272,-0.8041,-0.8817,-0.9633,-0.9975,-1.0462,-1.0977,-1.1403,-1.2154,-1.2509,-1.2062,-1.2756,-1.3332,-1.3332,-1.3567,0.0,0.0,0.0,0.0,-1.609,-1.6136,-1.6307,-1.6707,-1.6951,-1.7607,-1.8811,-1.9077,-1.9673,-2.0623,-2.0623,-2.0735,-2.0991,-2.0682,-2.0398,-2.0139,-2.0139,-2.0139,-2.0139,-2.0139,-2.0139,-2.0139,-2.0139,-2.0035,-1.9909,-1.9909,-1.9818,-1.969,-1.969,-1.9782,-1.9874,-1.9747,-1.969,-1.969,-1.969,-1.9782,-1.9945,-2.0054,-2.028,-2.0649,-2.1244,-2.1491,-2.1718,-2.218,-2.231,-2.2243,-2.1989,-2.1563,-2.1122,-2.0843,-2.0394,-2.0009,-2.0018,-1.9799,-1.9638,-1.9638,-1.941,-1.929,-1.9386,-1.9017,-1.8789,-1.8984,-1.9182,-1.9305,-1.9305,-1.9305,-1.9305,-1.9305,-1.9305,-1.9305,-1.9305,-1.9305,-1.9305,-1.9305,-1.9305,-1.9305,-1.9305,-1.9305,-1.9565,-2.0097,-2.0097,-2.0537,-2.1382,-2.2208,-2.274,-0.4968,-0.5281,-0.5545,-0.5944,-0.6376,-0.6766,-0.7097,-0.7695,-0.8102,-0.7794,-0.8453,-0.9179,-0.9466,-0.9973,-1.0449,-1.0847,-1.1848,-1.2365,-1.177,-1.2889,-1.3702,-1.3538,-1.3903,-1.4423,0.0,0.0,0.0,-1.5797,-1.5994,-1.6293,-1.6697,-1.716,-1.7949,-1.9094,-1.9403,-1.986,-2.0532,-2.0548,-2.0548,-2.0532,-2.0227,-1.9929,-1.969,-1.969,-1.969,-1.969,-1.969,-1.969,-1.969,-1.969,-1.969,-1.969,-1.969,-1.969,-1.969,-1.969,-1.969,-1.969,-1.969,-1.969,-1.969,-1.969,-1.969,-1.9747,-2.0,-2.0089,-2.0261,-2.1134,-2.1399,-2.1538,-2.2135,-2.231,-2.231,-2.231,-2.1928,-2.1591,-2.1591,-2.1183,-2.0817,-2.0829,-2.0593,-2.0433,-2.0433,-2.0187,-2.0002,-2.0002,-1.9695,-1.9534,-1.9648,-1.9884,-1.9945,-1.9751,-1.973,-1.9601,-1.9308,-1.9305,-1.9305,-1.9305,-1.9305,-1.9305,-1.9305,-1.9305,-1.9436,-1.9711,-1.973,-2.0134,-2.096,-2.096,-2.14,-2.2244,-2.2758,-2.3162,-0.4957,-0.5017,-0.5019,-0.5647,-0.6162,-0.6593,-0.6982,-0.7309,-0.7551,-0.7524,-0.7935,-0.8461,-0.8975,-0.9533,-1.0123,-1.0739,-1.2198,-1.2872,-1.1881,-1.3491,-1.4621,-1.417,-1.4551,-1.5124,-1.5784,-1.5858,0.0,-1.5888,0.0,-1.6741,-1.6816,-1.7996,-1.8717,-1.8747,-1.9361,-1.969,-1.969,-1.969,-1.969,-1.969,-1.969,-1.969,-1.969,-1.969,-1.969,-1.969,-1.969,-1.969,-1.969,-1.969,-1.969,-1.969,-1.969,-1.969,-1.969,-1.969,-1.969,-1.969,-1.969,-1.969,-1.969,-1.969,-1.969,-1.969,-1.969,-1.969,-1.9889,-2.0731,-2.0991,-2.1197,-2.2049,-2.2282,-2.231,-2.231,-2.231,-2.231,-2.231,-2.231,-2.231,-2.231,-2.1735,-2.1271,-2.1271,-2.0619,-2.012,-2.012,-2.0335,-2.0593,-2.0845,-2.1113,-2.1078,-2.0564,-2.0541,-2.0211,-1.9442,-1.9366,-1.9347,-1.9387,-1.9366,-1.9347,-1.9402,-1.9402,-1.9769,-2.0539,-2.0541,-2.0963,-2.1823,-2.1823,-2.2227,-2.3033,-2.3033,-2.3455,-0.4785,-0.5242,-0.565,-0.5849,-0.6197,-0.6516,-0.6639,-0.6729,-0.6683,-0.6324,-0.6641,-0.7043,-0.7299,-0.8274,-0.9276,-1.0043,-1.1375,-1.2321,-1.2234,-1.3585,-1.4544,-1.4421,-1.5081,-1.5785,-1.6398,-1.6458,0.0,0.0,-1.6891,-1.7145,-1.8149,-1.8523,-1.8927,-1.942,-1.96,-1.969,-1.969,-1.969,-1.969,-1.969,-1.969,-1.969,-1.969,-1.969,-1.969,-1.969,-1.969,-1.969,-1.969,-1.969,-1.969,-1.969,-1.969,-1.969,-1.969,-1.969,-1.969,-1.969,-1.969,-1.969,-1.969,-1.969,-1.969,-1.969,-1.969,-1.969,-1.9818,-2.0314,-2.0731,-2.1134,-2.1628,-2.2032,-2.231,-2.231,-2.231,-2.231,-2.231,-2.231,-2.231,-2.231,-2.2158,-2.2023,-2.2023,-2.1854,-2.1691,-2.1691,-2.1773,-2.1507,-2.0639,-2.0758,-2.088,-2.0749,-2.0946,-2.0913,-2.0466,-2.0137,-2.0102,-2.0392,-2.0137,-2.0209,-2.0771,-2.0789,-2.1007,-2.1455,-2.0966,-2.1263,-2.2328,-2.207,-2.2485,-2.3526,-2.3526,-2.3775,-0.4844,-0.5201,-0.5483,-0.581,-0.6079,-0.6247,-0.6315,-0.626,-0.6095,-0.5706,-0.5951,-0.6332,-0.6637,-0.7707,-0.8735,-0.9452,-1.0988,-1.2069,-1.2064,-1.3623,-1.469,-1.4533,-1.5502,-1.6338,-1.6682,-1.698,-1.7302,0.0,-1.7673,-1.7924,-1.8672,-1.8972,-1.9301,-1.9675,-1.969,-1.969,-1.969,-1.969,-1.969,-1.969,-1.9442,-1.9369,-1.9369,-1.9369,-1.9369,-1.9369,0.0,-1.969,-1.969,-1.969,-1.969,-1.969,-1.969,-1.969,-1.969,-1.969,-1.969,-1.969,-1.969,-1.969,-1.969,-1.969,-1.969,-1.969,-1.969,-1.969,-1.9782,-2.0193,-2.0616,-2.1086,-2.1491,-2.1957,-2.231,-2.231,-2.231,-2.231,-2.231,-2.231,-2.231,-2.231,-2.231,-2.231,-2.231,-2.231,-2.231,-2.231,-2.231,-2.2044,-2.1336,-2.1472,-2.1552,-2.1348,-2.1487,-2.1387,-2.0841,-2.0601,-2.0568,-2.0784,-2.0581,-2.0646,-2.1057,-2.1075,-2.1335,-2.1872,-2.1508,-2.1834,-2.2811,-2.262,-2.2919,-2.3692,-2.3692,-2.3795,-0.4969,-0.5002,-0.5009,-0.5662,-0.5828,-0.5846,-0.592,-0.5822,-0.5635,-0.5361,-0.5623,-0.6057,-0.6592,-0.7585,-0.8524,-0.9214,-1.0897,-1.2059,-1.1837,-1.3625,-1.4814,-1.447,-1.5713,-1.6618,-1.6629,-1.7364,-1.787,-1.792,-1.8423,-1.8718,-1.8718,-1.9289,-1.9639,-1.969,-1.969,-1.969,-1.969,-1.9639,-1.9639,-1.969,-1.908,-1.8817,-1.8893,-1.8817,-1.8817,-1.8907,0.0,0.0,-1.969,-1.9617,-1.9617,-1.969,-1.9603,-1.9639,-1.969,-1.969,-1.969,-1.969,-1.969,-1.969,-1.969,-1.969,-1.969,-1.969,-1.969,-1.969,-1.9782,-2.0124,-2.055,-2.0991,-2.1399,-2.1869,-2.2225,-2.2282,-2.231,-2.231,-2.231,-2.231,-2.231,-2.231,-2.231,-2.231,-2.231,-2.231,-2.231,-2.231,-2.231,-2.231,-2.231,-2.25,-2.2478,-2.2078,-2.206,-2.1796,-2.1061,-2.0947,-2.093,-2.1003,-2.0943,-2.0947,-2.1057,-2.1057,-2.1396,-2.2134,-2.2078,-2.2394,-2.3141,-2.3141,-2.3323,-2.3631,-2.3631,-2.3671,-0.4838,-0.5047,-0.5248,-0.5358,-0.5404,-0.5345,-0.5081,-0.5174,-0.5217,-0.4895,-0.5398,-0.6057,-0.6592,-0.7585,-0.8776,-1.0207,-1.113,-1.1994,-1.2818,-1.3618,-1.4084,-1.4032,-1.53,-1.6239,-1.6382,-1.768,0.0,0.0,-1.8569,-1.8883,-1.8883,-1.8985,-1.9244,-1.969,-1.969,-1.969,-1.969,-1.9244,-1.9244,-1.969,-1.8688,-1.8458,-1.8893,-1.8458,-1.8461,-1.8908,-1.8984,0.0,-1.9654,-1.922,-1.9294,-1.9639,-1.9207,-1.9332,-1.969,-1.969,-1.969,-1.969,-1.969,-1.969,-1.969,-1.969,-1.969,-1.969,-1.969,-1.969,-1.9711,-1.9782,-2.0089,-2.0516,-2.0991,-2.1402,-2.1834,-2.2197,-2.231,-2.231,-2.231,-2.231,-2.231,-2.231,-2.231,-2.231,-2.231,-2.231,-2.231,-2.231,-2.231,-2.231,-2.231,-2.2349,-2.2337,-2.2272,-2.2436,-2.2418,-2.2051,-2.1677,-2.1623,-2.2017,-2.1677,-2.1729,-2.2355,-2.2372,-2.2566,-2.2994,-2.2479,-2.2434,-2.2797,-2.2797,-2.2972,-2.33,-2.33,-2.3455,-0.4983,-0.517,-0.5309,-0.5309,-0.5309,-0.5185,-0.4692,-0.4911,-0.5062,-0.4578,-0.5136,-0.581,-0.6214,-0.7277,-0.8403,-0.9304,-1.0408,-1.1425,-1.2266,-1.2981,-1.365,-1.4251,-1.5428,-1.6347,-1.6674,-1.7729,-1.8172,-1.772,-1.7907,-1.8185,-1.8458,-1.8727,-1.9006,-1.9281,-1.9281,-1.9169,-1.8855,-1.8612,-1.8612,-1.8855,-1.8066,-1.7827,-1.8066,-1.7787,-1.7814,-1.8092,-1.8377,0.0,-1.8838,-1.8565,-1.8812,-1.9244,-1.9006,-1.9244,-1.969,-1.969,-1.969,-1.969,-1.969,-1.969,-1.969,-1.969,-1.969,-1.969,-1.969,-1.969,-1.969,-1.969,-2.0,-2.0333,-2.0586,-2.1103,-2.165,-2.1876,-2.2119,-2.231,-2.231,-2.231,-2.231,-2.231,-2.231,-2.231,-2.231,-2.231,-2.231,-2.231,-2.231,-2.231,-2.231,-2.231,-2.231,-2.231,-2.2426,-2.2453,-2.231,-2.2102,-2.2078,-2.2293,-2.2102,-2.2114,-2.2483,-2.25,-2.2581,-2.2738,-2.2443,-2.236,-2.25,-2.25,-2.273,-2.3189,-2.3021,-2.3117,-0.5038,-0.5151,-0.5119,-0.5055,-0.5087,-0.5001,-0.44,-0.4703,-0.4964,-0.4419,-0.4883,-0.5541,-0.5989,-0.6985,-0.7918,-0.8453,-0.9666,-1.0806,-1.1547,-1.234,-1.3239,-1.425,-1.5434,-1.6309,-1.6585,-1.7509,0.0,-1.7188,-1.7105,0.0,-1.7907,-1.8458,-1.8727,-1.8727,-1.8727,-1.8535,-1.8106,-1.7987,-1.7987,-1.8106,-1.7422,-1.7188,-1.7312,-1.7188,-1.7175,-1.7313,-1.7746,0.0,0.0,-1.797,-1.831,-1.8893,-1.8765,-1.9132,-1.969,-1.969,-1.969,-1.969,-1.969,-1.969,-1.969,-1.969,-1.969,-1.969,-1.969,-1.969,-1.969,-1.969,-1.9945,-2.0196,-2.0258,-2.0797,-2.1356,-2.1578,-2.1888,-2.2168,-2.2282,-2.231,-2.2282,-2.218,-2.2135,-2.2135,-2.2135,-2.2135,-2.218,-2.2282,-2.231,-2.231,-2.231,-2.231,-2.231,-2.231,-2.231,-2.231,-2.231,-2.231,-2.231,-2.231,-2.231,-2.231,-2.231,-2.231,-2.231,-2.231,-2.231,-2.231,-2.231,-2.2377,-2.2634,-2.3093,-2.2822,-2.2848,-0.4684,-0.4666,-0.457,-0.4215,-0.4409,-0.4499,-0.3899,-0.433,-0.4749,-0.4377,-0.4747,-0.5449,-0.6444,-0.6927,-0.7626,-0.9077,-0.9673,-1.0411,-1.16,-1.216,-1.2663,-1.3267,-1.4781,-1.5573,-1.512,-1.6928,-1.7666,-1.6637,-1.6552,0.0,-1.7353,-1.7867,-1.8185,-1.8185,-1.8185,-1.8145,-1.8106,-1.7626,-1.7626,-1.8106,-1.7076,-1.6837,-1.7271,-1.6795,-1.6837,-1.7286,-1.7359,0.0,0.0,-1.7565,-1.7991,-1.8855,-1.838,-1.8817,-1.969,-1.969,-1.969,-1.969,-1.969,-1.969,-1.969,-1.969,-1.969,-1.969,-1.969,-1.969,-1.969,-1.969,-1.9726,-1.9859,-2.0206,-2.0369,-2.0631,-2.1404,-2.1628,-2.1774,-2.2197,-2.231,-2.2163,-2.1764,-2.1658,-2.1658,-2.1658,-2.1658,-2.1794,-2.2237,-2.231,-2.231,-2.231,-2.231,-2.231,-2.231,-2.231,-2.231,-2.231,-2.231,-2.231,-2.231,-2.231,-2.231,-2.231,-2.231,-2.231,-2.231,-2.231,-2.231,-2.231,-2.2537,-2.2695,-2.2746,-2.2721,-2.2738,-0.4693,-0.4672,-0.457,-0.4409,-0.4312,-0.4155,-0.3789,-0.4092,-0.4417,-0.4314,-0.4598,-0.5137,-0.6062,-0.6448,-0.7018,-0.8193,-0.8839,-0.9571,-1.0684,-1.1474,-1.2241,-1.3098,-1.437,-1.5248,-1.5369,0.0,-1.6951,-1.6522,0.0,0.0,-1.6795,-1.7353,-1.7626,-1.7626,-1.7626,-1.7463,-1.7146,-1.6909,-1.6909,-1.7105,-1.671,-1.6595,-1.6795,-1.6595,-1.6615,-1.682,-1.682,0.0,0.0,-1.6901,-1.7238,-1.7947,-1.8066,-1.8574,-1.9244,-1.9566,-1.969,-1.969,-1.969,-1.969,-1.969,-1.969,-1.969,-1.969,-1.969,-1.969,-1.969,-1.969,-1.969,-1.9747,-1.9899,-2.0096,-2.0452,-2.1079,-2.1407,-2.1575,-2.154,-2.1705,-2.1764,-2.1306,-2.1244,-2.1306,-2.1552,-2.1582,-2.1764,-2.2237,-2.231,-2.231,-2.231,-2.231,-2.231,-2.231,-2.231,-2.231,-2.231,-2.231,-2.231,-2.231,-2.231,-2.231,-2.231,-2.231,-2.231,-2.231,-2.231,-2.231,-2.231,-2.2415,-2.2537,-2.2695,-2.2537,-2.2554,-0.4585,-0.4624,-0.457,-0.4441,-0.4226,-0.4007,-0.3744,-0.3931,-0.4164,-0.4269,-0.4446,-0.4824,-0.5622,-0.5929,-0.636,-0.7271,-0.8016,-0.8834,-0.9886,-1.0955,-1.1896,-1.2704,-1.3902,-1.4801,-1.5178,-1.6011,-1.6522,-1.6522,0.0,0.0,-1.6522,-1.6879,-1.7076,-1.7076,-1.7076,-1.6879,-1.6522,-1.6522,-1.6522,-1.6522,-1.6522,-1.6522,-1.6522,-1.6522,-1.6522,-1.6522,0.0,0.0,0.0,-1.6522,-1.6824,-1.7341,-1.7894,-1.8454,-1.8979,-1.9485,-1.969,-1.969,-1.969,-1.969,-1.969,-1.969,-1.969,-1.969,-1.969,-1.969,-1.969,-1.969,-1.969,-1.969,-1.969,-1.9918,-2.0222,-2.0676,-2.1025,-2.1183,-2.1039,-2.1213,-2.1306,-2.0878,-2.0797,-2.0926,-2.1337,-2.143,-2.1628,-2.2209,-2.231,-2.231,-2.231,-2.231,-2.231,-2.231,-2.231,-2.231,-2.231,-2.231,-2.231,-2.231,-2.231,-2.231,-2.231,-2.2388,-2.2388,-2.231,-2.2388,-2.2388,-2.231,-2.231,-2.2415,-2.259,-2.2388,-2.2398,-0.424,-0.4409,-0.4505,-0.4118,-0.4106,-0.4101,-0.3787,-0.3848,-0.405,-0.4263,-0.4313,-0.4547,-0.5349,-0.5511,-0.5795,-0.6655,-0.7417,-0.8341,-0.9531,-1.0802,-1.1663,-1.1807,-1.3192,-1.4101,-1.4141,-1.5553,-1.6522,-1.6522,0.0,0.0,-1.6522,-1.6522,-1.6522,-1.6522,-1.6522,-1.6522,-1.6522,-1.6522,-1.6522,-1.6522,-1.6522,-1.6522,-1.6522,-1.6522,-1.6522,0.0,0.0,0.0,0.0,-1.6522,-1.6828,-1.733,-1.7906,-1.8442,-1.8971,-1.9498,-1.969,-1.969,-1.969,-1.969,-1.969,-1.969,-1.969,-1.969,-1.969,-1.969,-1.969,-1.969,-1.969,-1.969,-1.969,-1.969,-1.9822,-2.0207,-2.0323,-2.0449,-2.0894,-2.0991,-2.0862,-2.0416,-2.0314,-2.0449,-2.0926,-2.1007,-2.1291,-2.218,-2.231,-2.231,-2.231,-2.231,-2.231,-2.231,-2.231,-2.231,-2.231,-2.231,-2.231,-2.231,-2.231,-2.231,-2.231,-2.2563,-2.2573,-2.231,-2.2563,-2.2563,-2.231,-2.231,-2.231,-2.231,-2.231,-2.231,-0.372,-0.3852,-0.3963,-0.382,-0.3614,-0.3444,-0.343,-0.3609,-0.3884,-0.4234,-0.4446,-0.4765,-0.5387,-0.5349,-0.5653,-0.6995,-0.7482,-0.8133,-0.9434,-1.0816,-1.156,-1.1214,-1.2544,-1.4097,0.0,0.0,-1.5864,0.0,0.0,0.0,-1.5287,-1.5644,-1.5864,-1.5864,-1.6281,-1.6281,-1.5908,-1.6281,-1.6522,-1.6522,-1.6522,-1.6522,-1.6522,-1.6522,0.0,0.0,0.0,0.0,0.0,-1.6522,-1.6625,-1.6811,-1.7329,-1.7652,-1.7871,-1.8427,-1.8829,-1.9169,-1.9169,-1.9406,-1.969,-1.969,-1.969,-1.969,-1.969,-1.969,-1.969,-1.969,-1.969,-1.969,-1.969,-1.969,-1.9741,-1.9852,-2.0096,-2.0246,-2.0139,-2.033,-2.0382,-1.9965,-1.9874,-2.0139,-2.0862,-2.0991,-2.1291,-2.218,-2.231,-2.231,-2.231,-2.231,-2.231,-2.231,-2.231,-2.231,-2.231,-2.231,-2.231,-2.231,-2.231,-2.231,-2.231,-2.2388,-2.2388,-2.231,-2.2388,-2.2388,-2.231,-2.231,-2.231,-2.231,-2.231,-2.231,-0.3418,-0.3665,-0.3838,-0.3945,-0.3704,-0.3461,-0.3542,-0.3588,-0.3727,-0.4065,-0.4293,-0.4567,-0.5088,-0.5069,-0.5357,-0.6609,-0.711,-0.7791,-0.8992,-1.0321,-1.1228,-1.1433,-1.2351,0.0,0.0,-1.5348,0.0,0.0,0.0,0.0,-1.4744,-1.505,-1.5141,-1.4903,-1.5732,-1.5964,-1.5588,-1.6194,-1.6522,-1.6522,-1.6522,-1.6522,-1.6522,-1.6522,0.0,0.0,0.0,0.0,0.0,-1.6522,-1.6522,-1.6534,-1.7106,-1.7323,-1.7352,-1.7906,-1.8299,-1.8612,-1.8817,-1.9132,-1.9442,-1.9639,-1.969,-1.969,-1.969,-1.969,-1.969,-1.969,-1.969,-1.969,-1.969,-1.969,-1.969,-1.969,-1.9909,-2.0,-1.9747,-1.9909,-2.0,-1.9747,-1.969,-1.998,-2.0829,-2.0991,-2.1291,-2.218,-2.231,-2.231,-2.231,-2.231,-2.231,-2.231,-2.231,-2.231,-2.231,-2.231,-2.231,-2.231,-2.231,-2.231,-2.231,-2.2415,-2.2398,-2.231,-2.2415,-2.2398,-2.231,-2.231,-2.231,-2.231,-2.231,-2.2462,0.0,-0.3674,-0.399,-0.4264,-0.4142,-0.3965,-0.3965,-0.375,0.0,-0.3848,-0.3931,-0.4117,-0.465,-0.4733,-0.499,-0.5808,-0.6544,-0.7359,-0.8344,-0.953,-1.0831,-1.2302,-1.2421,0.0,-1.3839,-1.4395,0.0,0.0,0.0,0.0,-1.4571,-1.4606,-1.4376,-1.3779,-1.4858,-1.5487,-1.5487,-1.6051,-1.638,-1.6423,-1.6423,-1.6479,-1.6522,-1.6522,0.0,0.0,0.0,0.0,0.0,-1.6522,-1.6522,-1.6534,-1.705,-1.7256,-1.7286,-1.7799,-1.8003,-1.812,-1.8612,-1.8817,-1.893,-1.9479,-1.969,-1.969,-1.969,-1.969,-1.969,-1.969,-1.969,-1.969,-1.969,-1.969,-1.969,-1.969,-1.969,-1.969,-1.969,-1.969,-1.969,-1.969,-1.969,-1.998,-2.0829,-2.0991,-2.1291,-2.218,-2.231,-2.231,-2.231,-2.231,-2.231,-2.231,-2.231,-2.231,-2.231,-2.231,-2.231,-2.231,-2.231,-2.231,-2.231,-2.2537,-2.2563,-2.231,-2.2537,-2.2537,-2.231,-2.231,-2.2344,-2.2395,-2.2395,-2.2738,-0.2448,0.0,-0.3384,-0.3638,-0.3659,-0.3612,0.0,-0.3716,-0.3828,-0.389,-0.4232,-0.4662,-0.5153,-0.5107,-0.549,-0.7005,-0.716,-0.7585,-0.9111,-0.989,-1.0968,-1.2807,-1.2288,-1.25,-1.4361,-1.4218,0.0,0.0,0.0,-1.4294,-1.3382,-1.3779,-1.3732,-1.3152,-1.3826,-1.4226,-1.4226,-1.4835,-1.5332,-1.582,-1.582,-1.6051,-1.6522,-1.6522,0.0,0.0,0.0,0.0,-1.6522,-1.6522,-1.6522,-1.6522,-1.6615,-1.6683,-1.6726,-1.6816,-1.7148,-1.7492,-1.7611,-1.7947,-1.838,-1.8893,-1.9369,-1.969,-1.969,-1.969,-1.969,-1.969,-1.969,-1.969,-1.969,-1.969,-1.969,-1.969,-1.969,-1.969,-1.969,-1.969,-1.969,-1.969,-1.969,-1.998,-2.0829,-2.0991,-2.1291,-2.218,-2.231,-2.231,-2.231,-2.231,-2.231,-2.231,-2.231,-2.231,-2.231,-2.231,-2.231,-2.231,-2.231,-2.231,-2.231,-2.236,-2.236,-2.231,-2.236,-2.236,-2.231,-2.231,-2.2598,-2.3139,-2.3139,-2.3315,-0.2394,-0.2762,-0.3132,-0.3287,-0.3421,-0.3506,-0.3506,-0.3605,-0.371,-0.371,-0.4048,-0.4453,-0.4824,-0.5086,-0.558,-0.6654,-0.7148,-0.788,-0.9378,-1.0,-1.0835,-1.2289,-1.1933,-1.2208,0.0,0.0,0.0,0.0,0.0,-1.361,-1.292,-1.319,-1.3238,-1.2929,-1.3238,-1.3505,-1.3815,-1.4376,-1.488,-1.5186,-1.5186,-1.5508,-1.6089,-1.6089,-1.6237,0.0,0.0,0.0,-1.6522,-1.6522,-1.6522,-1.6522,-1.6522,-1.6522,-1.6522,-1.6522,-1.6683,-1.6974,-1.7199,-1.7827,-1.8496,-1.8822,-1.925,-1.969,-1.969,-1.969,-1.969,-1.969,-1.969,-1.969,-1.969,-1.969,-1.969,-1.969,-1.969,-1.969,-1.969,-1.969,-1.969,-1.969,-1.969,-1.9909,-2.0565,-2.0862,-2.1213,-2.1869,-2.2163,-2.231,-2.231,-2.231,-2.231,-2.231,-2.231,-2.231,-2.231,-2.231,-2.231,-2.231,-2.231,-2.231,-2.231,-2.231,-2.231,-2.231,-2.231,-2.231,-2.231,-2.2649,-2.3004,-2.3393,-2.3486,-2.3783,-0.2546,-0.2853,-0.3089,-0.3089,-0.3309,-0.3485,-0.3442,-0.3464,-0.3506,-0.3506,-0.371,-0.4003,-0.4348,-0.4902,-0.5447,-0.5881,-0.7043,0.0,-0.9447,-1.0,-1.0616,-1.141,-1.1567,0.0,0.0,0.0,0.0,0.0,0.0,-1.2881,-1.2881,-1.2881,-1.2881,-1.2881,-1.2881,-1.3152,-1.3637,-1.4154,-1.4468,-1.456,-1.456,-1.488,-1.5468,-1.5452,-1.5807,0.0,0.0,0.0,-1.6522,-1.6522,-1.6522,-1.6522,-1.6522,-1.6522,-1.6522,-1.6522,-1.6522,-1.6552,-1.7034,-1.7827,-1.8679,-1.8754,-1.9153,-1.9579,-1.9675,-1.969,-1.969,-1.969,-1.969,-1.969,-1.969,-1.969,-1.969,-1.969,-1.969,-1.969,-1.969,-1.969,-1.969,-1.969,-1.969,-1.9854,-2.0212,-2.0616,-2.1055,-2.1521,-2.1928,-2.2209,-2.2282,-2.231,-2.231,-2.231,-2.231,-2.231,-2.231,-2.231,-2.231,-2.231,-2.231,-2.231,-2.231,-2.231,-2.231,-2.231,-2.2412,-2.2479,-2.2479,-2.3207,-2.3583,-2.3611,-2.3785,-2.4161,-0.2259,-0.2676,-0.3089,-0.3089,-0.3309,-0.3442,-0.3223,-0.333,-0.3506,-0.3506,-0.371,-0.4096,-0.4771,-0.4901,-0.5299,-0.6518,-0.7799,-0.8857,0.0,0.0,-1.0469,-1.0947,0.0,0.0,0.0,0.0,0.0,0.0,0.0,-1.2881,-1.2881,-1.2881,-1.2881,-1.2881,-1.2881,-1.2929,-1.3065,-1.3104,-1.342,-1.3956,-1.3956,-1.4261,-1.4824,-1.4836,-1.5179,0.0,0.0,-1.6022,-1.6522,-1.6522,-1.6522,-1.6522,-1.6522,-1.6522,-1.6522,-1.6522,-1.6522,-1.6522,-1.6595,-1.7034,-1.7612,-1.8085,-1.8584,-1.9131,-1.9564,-1.969,-1.969,-1.969,-1.969,-1.969,-1.969,-1.969,-1.969,-1.969,-1.969,-1.969,-1.969,-1.969,-1.969,-1.969,-1.969,-1.9854,-2.0212,-2.0348,-2.0667,-2.1491,-2.1658,-2.1853,-2.2254,-2.231,-2.231,-2.231,-2.231,-2.231,-2.231,-2.231,-2.231,-2.231,-2.231,-2.231,-2.231,-2.231,-2.231,-2.231,-2.2919,-2.3224,-2.3224,-2.3951,-2.4423,-2.4595,-2.4626,-2.4576,-0.215,-0.2632,-0.3068,-0.2918,-0.3129,-0.3375,-0.3324,-0.3477,-0.3682,-0.3929,-0.4209,-0.448,-0.4825,-0.5158,-0.5896,-0.7455,0.0,-0.9412,-0.9914,-1.0156,-1.0439,0.0,0.0,0.0,0.0,0.0,0.0,0.0,0.0,0.0,-1.2881,-1.2881,-1.2881,-1.2881,-1.2881,-1.2881,-1.2881,-1.2881,-1.3065,-1.3334,-1.3334,-1.3614,-1.4221,-1.4226,-1.456,-1.5143,0.0,-1.5752,-1.6034,-1.6373,-1.6522,-1.6522,-1.6522,-1.6522,-1.6522,-1.6522,-1.6522,-1.6522,-1.6522,-1.6841,-1.7381,-1.7946,-1.8453,-1.8986,-1.9549,-1.969,-1.969,-1.969,-1.969,-1.969,-1.969,-1.969,-1.969,-1.969,-1.969,-1.969,-1.969,-1.969,-1.969,-1.969,-1.969,-1.9747,-1.9929,-2.0158,-2.0449,-2.083,-2.1424,-2.1986,-2.2452,-2.2815,-2.3173,-2.3448,-2.3477,-2.3477,-2.3477,-2.3477,-2.3325,-2.2919,-2.2618,-2.2635,-2.3048,-2.3065,-2.3065,-2.3065,-2.3381,-2.3689,-2.3985,-2.4426,-2.4713,-2.4822,-2.4951,-2.477,-0.2106,-0.2541,-0.2848,-0.274,-0.3017,-0.3383,-0.3483,-0.3655,-0.3899,-0.431,-0.4553,-0.4724,-0.4803,-0.5447,-0.6425,-0.7835,-0.8703,-0.9393,-1.0031,-1.0118,-1.0233,-1.056,0.0,0.0,0.0,0.0,0.0,0.0,0.0,0.0,-1.2725,-1.2832,-1.2881,-1.2881,-1.2881,-1.2881,-1.2881,-1.2881,-1.2881,-1.2881,-1.2881,-1.3135,-1.3596,-1.3596,-1.3931,-1.4505,-1.512,-1.5477,-1.566,-1.625,-1.6522,-1.6522,-1.6522,-1.6522,-1.6522,-1.6522,-1.6522,-1.6522,-1.6522,-1.6786,-1.7203,-1.7728,-1.8276,-1.8815,-1.9339,-1.9594,-1.969,-1.969,-1.969,-1.969,-1.969,-1.969,-1.969,-1.969,-1.969,-1.969,-1.969,-1.969,-1.969,-1.969,-1.969,-1.9735,-1.9899,-2.0188,-2.0485,-2.0744,-2.1629,-2.2388,-2.272,-2.3407,-2.3998,-2.4286,-2.4444,-2.4444,-2.4334,-2.4303,-2.4104,-2.3594,-2.3109,-2.3047,-2.3503,-2.3519,-2.3519,-2.3519,-2.3716,-2.3983,-2.4395,-2.4724,-2.4841,-2.4713,-2.4926,-2.4752,-0.2044,-0.2237,-0.2324,-0.2632,-0.3107,-0.3497,-0.3489,-0.3759,-0.405,-0.4349,-0.4402,-0.4509,-0.4756,-0.5557,-0.6362,-0.699,-0.7602,-0.8366,-0.939,0.0,-0.9567,0.0,0.0,0.0,0.0,0.0,0.0,0.0,0.0,0.0,-1.2229,-1.2656,-1.2881,-1.2881,-1.2881,-1.2881,-1.2881,-1.2881,-1.2881,-1.2881,-1.2881,-1.2939,-1.2949,-1.2949,-1.3272,-1.3921,-1.4473,-1.5107,-1.566,-1.625,-1.6522,-1.6522,-1.6522,-1.6522,-1.6522,-1.6522,-1.6522,-1.6522,-1.6522,-1.6522,-1.6633,-1.7188,-1.7725,-1.8274,-1.8809,-1.9307,-1.969,-1.969,-1.969,-1.969,-1.969,-1.969,-1.969,-1.969,-1.969,-1.969,-1.969,-1.969,-1.969,-1.969,-1.969,-1.9884,-2.0528,-2.0632,-2.1016,-2.2009,-2.2634,-2.3003,-2.2984,-2.3836,-2.4255,-2.3819,-2.4191,-2.4303,-2.3786,-2.3753,-2.3849,-2.404,-2.3779,-2.3437,-2.3064,-2.3064,-2.3064,-2.3064,-2.3722,-2.4079,-2.4115,-2.4842,-2.4909,-2.4433,-2.444,-2.4158,-0.1471,-0.1803,-0.2022,-0.2328,-0.276,-0.3164,-0.3349,-0.3761,-0.4202,-0.4471,-0.4765,-0.4983,-0.509,-0.5976,-0.676,-0.697,-0.7772,-0.8561,-0.8958,-0.8999,0.0,0.0,0.0,0.0,0.0,0.0,0.0,0.0,0.0,0.0,0.0,-1.2646,-1.2881,-1.2881,-1.2881,-1.2881,-1.2881,-1.2881,-1.2881,-1.2881,-1.2881,-1.2881,-1.2881,-1.2881,-1.3213,-1.3813,-1.4418,-1.5049,-1.566,-1.625,-1.6522,-1.6522,-1.6522,-1.6522,-1.6522,-1.6522,-1.6522,-1.6522,-1.6522,-1.6522,-1.6602,-1.7132,-1.7665,-1.8215,-1.8734,-1.9256,-1.969,-1.969,-1.969,-1.969,-1.969,-1.969,-1.969,-1.969,-1.969,-1.969,-1.969,-1.969,-1.969,-1.969,-1.969,-1.9899,-2.0602,-2.0722,-2.097,-2.1795,-2.243,-2.2964,-2.3202,-2.3962,-2.4478,-2.4624,-2.4821,-2.4857,-2.464,-2.4624,-2.4516,-2.4304,-2.3752,-2.3601,-2.385,-2.3865,-2.3865,-2.3865,-2.4155,-2.4437,-2.4782,-2.4744,-2.4592,-2.4389,-2.4389,-2.4116,-0.087,-0.1316,-0.1718,-0.2,-0.241,-0.2799,-0.3052,-0.3573,-0.4047,-0.4359,-0.4762,-0.5113,-0.5203,-0.6048,0.0,0.0,-0.7607,-0.8226,-0.8439,0.0,0.0,0.0,0.0,0.0,0.0,0.0,0.0,0.0,0.0,0.0,0.0,-1.2227,-1.2529,-1.2666,-1.2676,-1.2744,-1.2881,-1.2881,-1.2881,-1.2881,-1.2881,-1.2881,-1.2881,-1.2881,-1.3213,-1.3841,-1.4439,-1.504,-1.566,-1.625,-1.6522,-1.6522,-1.6522,-1.6522,-1.6522,-1.6522,-1.6522,-1.6522,-1.6522,-1.6522,-1.6547,-1.6913,-1.742,-1.7927,-1.8478,-1.9,-1.9483,-1.966,-1.969,-1.969,-1.969,-1.969,-1.969,-1.969,-1.969,-1.969,-1.969,-1.9854,-2.0004,-2.0004,-2.0183,-2.0528,-2.1216,-2.1335,-2.156,-2.2203,-2.2832,-2.331,-2.3427,-2.4175,-2.4776,-2.5182,-2.5221,-2.5128,-2.495,-2.495,-2.4712,-2.4184,-2.3646,-2.36,-2.4142,-2.4158,-2.4158,-2.4158,-2.4158,-2.4307,-2.4712,-2.4307,-2.4158,-2.4158,-2.4158,-2.3948,-0.0312,-0.0825,-0.1363,-0.1718,-0.2083,-0.2449,-0.265,-0.3108,-0.3585,-0.3943,-0.4312,-0.471,-0.5037,-0.5702,0.0,-0.654,-0.6827,-0.7189,0.0,0.0,0.0,0.0,0.0,0.0,0.0,0.0,0.0,0.0,0.0,0.0,0.0,-1.1318,-1.1768,-1.2161,-1.218,-1.2432,-1.2861,-1.2871,-1.2871,-1.2871,-1.2881,-1.2881,-1.2881,-1.2881,-1.3213,-1.381,-1.4462,-1.5045,-1.5672,-1.625,-1.6522,-1.6522,-1.6522,-1.6522,-1.6522,-1.6522,-1.6522,-1.6522,-1.6522,-1.6522,-1.6522,-1.6522,-1.6845,-1.7382,-1.7932,-1.8477,-1.9,-1.9564,-1.969,-1.969,-1.969,-1.969,-1.969,-1.969,-1.969,-1.969,-1.969,-2.0228,-2.0722,-2.0722,-2.1246,-2.1904,-2.2562,-2.2724,-2.2877,-2.3505,-2.4032,-2.4184,-2.3681,-2.4552,-2.5182,-2.5182,-2.5182,-2.4989,-2.443,-2.4389,-2.4158,-2.3638,-2.3595,-2.3595,-2.3595,-2.3595,-2.3595,-2.3595,-2.3595,-2.3595,-2.3595,-2.3595,-2.3595,-2.3595,-2.361,-2.361,0.0022,-0.0245,-0.0519,-0.103,-0.1335,-0.16,-0.1969,-0.2824,-0.3585,-0.3943,-0.4091,-0.4204,-0.4306,-0.4923,0.0,-0.5776,-0.6324,0.0,0.0,0.0,0.0,0.0,0.0,0.0,0.0,0.0,0.0,0.0,0.0,0.0,0.0,-1.0575,-1.1072,0.0,-1.157,-1.1816,-1.1998,-1.2266,-1.243,-1.2398,-1.2743,-1.2881,-1.2881,-1.2881,-1.3213,-1.3831,-1.4446,-1.5038,-1.5641,-1.6231,-1.6522,-1.6522,-1.6522,-1.6522,-1.6522,-1.6522,-1.6522,-1.6522,-1.6522,-1.6522,-1.6522,-1.6522,-1.6845,-1.7382,-1.7932,-1.8477,-1.9,-1.9564,-1.969,-1.969,-1.969,-1.969,-1.969,-1.969,-1.969,-1.969,-1.969,-2.0228,-2.0722,-2.0722,-2.1246,-2.1904,-2.2562,-2.2724,-2.2877,-2.3505,-2.3767,-2.3794,-2.3638,-2.3879,-2.4074,-2.4074,-2.4074,-2.3991,-2.3837,-2.3837,-2.3752,-2.3595,-2.3595,-2.3595,-2.3595,-2.3595,-2.3595,-2.3595,-2.3595,-2.3595,-2.3595,-2.3595,-2.3595,-2.361,-2.36,-2.36,0.0446,0.0111,-0.025,-0.0615,-0.0903,-0.1233,-0.1749,-0.2565,-0.3254,-0.344,-0.3597,-0.3752,-0.3899,-0.4398,0.0,-0.5436,-0.597,0.0,0.0,0.0,0.0,0.0,0.0,0.0,0.0,0.0,0.0,0.0,0.0,0.0,0.0,-0.9632,0.0,0.0,-1.0817,-1.1205,-1.1606,-1.1826,-1.1973,-1.1957,-1.2225,-1.2378,-1.242,-1.2725,-1.3213,-1.3831,-1.4709,-1.5285,-1.5671,-1.6262,-1.6522,-1.6522,-1.6522,-1.6522,-1.6522,-1.6522,-1.6522,-1.6522,-1.6522,-1.6522,-1.6522,-1.6522,-1.6739,-1.7138,-1.7852,-1.8332,-1.8731,-1.9483,-1.969,-1.969,-1.969,-1.969,-1.969,-1.969,-1.969,-1.969,-1.969,-2.0438,-2.1111,-2.1111,-2.1829,-2.2577,-2.2981,-2.3041,-2.3176,-2.355,-2.3595,-2.3595,-2.3595,-2.3595,-2.3595,-2.3595,-2.3595,-2.3595,-2.3595,-2.3595,-2.3595,-2.3595,-2.3595,-2.3595,-2.3595,-2.3595,-2.3595,-2.3595,-2.3595,-2.3595,-2.3595,-2.3595,-2.3595,-2.361,-2.36,-2.3598,0.0936,0.0334,-0.0296,-0.0323,-0.07,-0.1204,-0.1803,-0.2314,-0.2646,-0.2679,-0.3003,-0.3344,-0.3651,-0.4037,-0.4535,-0.5247,0.0,0.0,0.0,0.0,0.0,0.0,0.0,0.0,0.0,0.0,0.0,0.0,0.0,0.0,0.0,0.0,0.0,-0.9951,-1.0002,-1.0479,-1.1392,-1.1484,-1.1494,0.0,-1.1546,-1.1612,-1.1634,-1.241,-1.3123,-1.3741,-1.4902,-1.5444,-1.5593,-1.617,-1.6454,-1.6522,-1.6522,-1.6522,-1.6522,-1.6522,-1.6522,-1.6522,-1.6522,-1.6522,-1.6522,-1.6522,-1.6534,-1.6786,-1.7791,-1.8115,-1.8397,-1.9403,-1.969,-1.969,-1.969,-1.969,-1.969,-1.969,-1.969,-1.9705,-1.9765,-2.0782,-2.171,-2.1769,-2.2772,-2.3595,-2.3595,-2.3595,-2.3595,-2.3595,-2.3595,-2.3595,-2.3595,-2.3595,-2.3595,-2.3595,-2.3595,-2.3595,-2.3595,-2.3595,-2.3595,-2.3595,-2.3595,-2.3595,-2.3595,-2.3595,-2.3595,-2.3595,-2.3595,-2.3595,-2.3595,-2.3581,-2.3596,-2.3611,-2.3614,-2.3745,0.1274,0.0914,0.0554,0.0291,-0.0269,-0.0912,-0.1333,-0.1809,-0.2247,-0.2613,-0.2779,-0.2852,-0.2922,-0.3257,-0.3682,0.0,0.0,0.0,0.0,0.0,0.0,0.0,0.0,0.0,0.0,0.0,0.0,0.0,0.0,0.0,-0.7349,0.0,0.0,-0.8987,-0.9403,-0.9731,-0.9944,-1.0673,-1.0857,0.0,-1.1224,-1.1608,-1.1609,-1.1794,-1.2217,-1.2803,-1.3409,-1.4211,-1.5179,-1.5605,-1.6089,-1.6522,-1.6522,-1.6522,-1.6522,-1.6522,-1.6522,-1.6522,-1.6522,-1.6522,-1.6522,-1.6522,-1.6764,-1.7225,-1.7905,-1.8398,-1.8876,-1.9513,-1.969,-1.969,-1.969,-1.969,-1.969,-1.969,-1.969,-1.9824,-2.0378,-2.1126,-2.1844,-2.2368,-2.3071,-2.3595,-2.3595,-2.3595,-2.3595,-2.3595,-2.3595,-2.3595,-2.3595,-2.3595,-2.3595,-2.3595,-2.3595,-2.3595,-2.3595,-2.3595,-2.3595,-2.3595,-2.3595,-2.3595,-2.3595,-2.3595,-2.3595,-2.3595,-2.3595,-2.3595,-2.3595,-2.3615,-2.3599,-2.3614,-2.3591,-2.4717,0.1582,0.1114,0.058,0.0298,-0.0241,-0.0747,-0.0967,-0.1509,-0.2081,-0.2314,-0.2547,-0.2712,-0.2712,-0.2874,-0.3129,0.0,0.0,0.0,0.0,0.0,0.0,0.0,0.0,0.0,0.0,0.0,0.0,0.0,0.0,-0.6979,0.0,-0.728,-0.7739,-0.8316,-0.8837,-0.9239,-0.9478,-1.0259,-1.0488,-1.0186,-1.0732,-1.0974,-1.0989,-1.139,-1.1783,-1.2106,-1.26,-1.329,-1.4148,-1.4962,-1.5605,-1.6102,-1.6386,-1.6522,-1.6522,-1.6522,-1.6522,-1.6522,-1.6522,-1.6522,-1.6522,-1.6522,-1.6845,-1.7392,-1.7963,-1.8475,-1.9,-1.9564,-1.969,-1.969,-1.969,-1.969,-1.969,-1.969,-1.9944,-2.0273,-2.0632,-2.1485,-2.2263,-2.2607,-2.3176,-2.3595,-2.3595,-2.3595,-2.3595,-2.3595,-2.3595,-2.3595,-2.3595,-2.3595,-2.3595,-2.3595,-2.3595,-2.3595,-2.3595,-2.3595,-2.3595,-2.3595,-2.3909,-2.3939,-2.361,-2.4223,-2.4268,-2.361,-2.3595,-2.3583,-2.3585,-2.3614,-2.4267,-2.5499,-2.5527,-2.6247,0.1869,0.119,0.0401,0.0082,-0.0294,-0.0594,-0.0697,-0.1243,-0.1778,-0.1878,-0.2314,-0.2712,-0.2712,-0.2712,0.0,0.0,0.0,0.0,0.0,0.0,0.0,0.0,0.0,0.0,0.0,0.0,0.0,0.0,0.0,-0.6979,-0.6979,-0.6979,-0.728,-0.7878,-0.8316,-0.8805,-0.9377,-0.9892,-1.0156,-1.0165,-1.0264,-1.0283,-1.0303,-1.1057,-1.1377,-1.1386,-1.1965,-1.2494,-1.2981,-1.4195,-1.4926,-1.5425,-1.5971,-1.6231,-1.6349,-1.6343,-1.6398,-1.6522,-1.6522,-1.6522,-1.6522,-1.6522,-1.6845,-1.7382,-1.7932,-1.8477,-1.9,-1.9564,-1.969,-1.969,-1.969,-1.969,-1.969,-1.969,-2.0303,-2.0887,-2.0887,-2.1829,-2.2753,-2.2858,-2.3251,-2.3595,-2.3595,-2.3595,-2.3595,-2.3595,-2.3595,-2.3595,-2.3595,-2.3595,-2.3595,-2.3595,-2.3699,-2.3774,-2.3774,-2.3879,-2.3954,-2.3954,-2.4477,-2.4477,-2.3865,-2.491,-2.5,-2.3969,-2.3865,-2.3733,-2.358,-2.3579,-2.4953,-2.7595,-2.7616,-2.7591,0.215,0.1498,0.0708,0.0138,-0.0059,-0.0188,-0.0597,-0.0807,-0.0974,0.0,-0.2075,-0.2712,-0.2712,-0.2712,0.0,0.0,0.0,0.0,0.0,0.0,0.0,0.0,0.0,0.0,0.0,0.0,0.0,0.0,-0.6979,0.0,-0.6979,-0.6979,-0.728,-0.7878,-0.7953,-0.8258,-0.8782,-0.9323,-0.9591,-0.9617,-1.0094,-1.0283,-1.0283,-1.044,-1.0479,-1.0499,-1.0923,-1.146,-1.2121,-1.302,-1.3716,-1.4337,-1.4765,-1.5257,-1.5727,-1.5738,-1.6034,-1.6522,-1.6522,-1.6522,-1.6522,-1.6522,-1.6845,-1.7382,-1.7932,-1.8477,-1.9,-1.9564,-1.969,-1.969,-1.969,-1.969,-1.969,-1.969,-2.0647,-2.156,-2.156,-2.2143,-2.2832,-2.337,-2.3535,-2.3595,-2.3595,-2.3595,-2.3595,-2.3595,-2.3595,-2.3595,-2.3595,-2.3595,-2.3595,-2.3595,-2.4133,-2.4448,-2.4448,-2.5016,-2.533,-2.533,-2.5435,-2.5252,-2.4815,-2.4978,-2.5176,-2.5345,-2.4997,-2.4408,-2.358,-2.3622,-2.4985,-2.7583,-2.7595,-2.7615,0.211,0.1556,0.0986,0.0363,0.0223,0.0119,-0.0221,-0.0526,-0.0739,-0.094,-0.1676,-0.2314,-0.2314,0.0,0.0,0.0,0.0,0.0,0.0,0.0,0.0,0.0,0.0,0.0,0.0,0.0,0.0,0.0,-0.6979,-0.6979,-0.6979,-0.6979,-0.7105,-0.7405,-0.7724,-0.8152,-0.8717,-0.9222,-0.9655,-0.996,-1.0185,-1.0283,-1.0283,-1.0283,-1.0283,-1.0322,-1.0488,-1.086,-1.1428,-1.2389,-1.3088,-1.3627,-1.4414,-1.5085,-1.5617,-1.5616,-1.5966,-1.6522,-1.6522,-1.6522,-1.6522,-1.6522,-1.6845,-1.7346,-1.7572,-1.8228,-1.8964,-1.9207,-1.9479,-1.969,-1.969,-1.969,-1.9779,-2.0168,-2.1006,-2.1799,-2.2158,-2.2742,-2.3266,-2.355,-2.3595,-2.3595,-2.3595,-2.3595,-2.3595,-2.3595,-2.3595,-2.3595,-2.3595,-2.3939,-2.4178,-2.4178,-2.4777,-2.5181,-2.5181,-2.5435,-2.5508,-2.528,-2.5729,-2.5774,-2.5325,-2.6072,-2.6188,-2.5601,-2.5444,-2.4776,-2.3617,-2.3587,-2.4965,-2.7595,-2.7615,-2.7625,0.2124,0.167,0.1298,0.0763,0.0575,0.0444,0.0178,-0.0157,-0.0428,0.0,-0.113,-0.168,-0.168,0.0,0.0,0.0,0.0,0.0,0.0,0.0,0.0,0.0,0.0,0.0,0.0,0.0,0.0,0.0,-0.6979,-0.6979,-0.6979,-0.6979,-0.6979,-0.6979,-0.7599,-0.8175,-0.8683,-0.9363,-0.9915,-1.0283,-1.0283,-1.0283,-1.0283,-1.0283,-1.0283,-1.0283,-1.0283,-1.0478,-1.0842,-1.1706,-1.2324,-1.2835,-1.3721,-1.4525,-1.5142,-1.5299,-1.574,-1.6305,-1.6454,-1.6522,-1.6522,-1.6522,-1.6764,-1.7119,-1.7269,-1.7869,-1.8555,-1.8812,-1.9207,-1.9479,-1.9479,-1.9603,-1.9781,-2.0171,-2.0991,-2.1919,-2.2742,-2.3266,-2.3595,-2.3595,-2.3595,-2.3595,-2.3595,-2.3595,-2.3595,-2.3595,-2.3744,-2.3864,-2.3864,-2.4462,-2.4821,-2.4821,-2.5465,-2.5839,-2.5762,-2.5989,-2.5986,-2.5664,-2.6296,-2.6479,-2.6123,-2.7051,-2.7151,-2.613,-2.6117,-2.5627,-2.4644,-2.4644,-2.5658,-2.7625,-2.7625,-2.7625,0.2349,0.1989,0.168,0.1349,0.1056,0.08,0.0442,0.0,0.0278,0.0031,-0.042,-0.0773,-0.0773,0.0,0.0,0.0,0.0,0.0,0.0,0.0,0.0,0.0,0.0,0.0,0.0,0.0,0.0,0.0,-0.6979,-0.6979,-0.6979,-0.6979,-0.6979,-0.6979,-0.7595,-0.8173,-0.868,-0.9729,-1.0273,-1.0283,-1.0283,-1.0283,-1.0283,-1.0283,-1.0283,-1.0283,-1.0283,-1.0322,-1.0361,-1.0802,-1.1253,-1.1714,-1.2145,-1.2959,-1.3956,-1.4514,-1.5126,-1.574,-1.6305,-1.6522,-1.6522,-1.6522,-1.6522,-1.6615,-1.7132,-1.7355,-1.7602,-1.8606,-1.893,-1.893,-1.893,-1.9332,-1.9568,-1.9111,-2.0388,-2.2039,-2.3281,-2.358,-2.3595,-2.3595,-2.3595,-2.3595,-2.3595,-2.3595,-2.3595,-2.3595,-2.4163,-2.4522,-2.4522,-2.5151,-2.5555,-2.5555,-2.6153,-2.6497,-2.6281,-2.7036,-2.747,-2.7455,-2.7485,-2.75,-2.752,-2.758,-2.7545,-2.75,-2.7485,-2.7455,-2.7375,-2.7375,-2.747,-2.7625,-2.7625,-2.7625,0.3081,0.2703,0.2298,0.1967,0.1798,0.1604,0.1085,0.0853,0.0642,0.0336,-0.0251,-0.0708,-0.0701,0.0,0.0,0.0,0.0,0.0,0.0,0.0,0.0,0.0,0.0,0.0,0.0,0.0,0.0,0.0,0.0,0.0,-0.6046,-0.6311,-0.65,-0.65,-0.6693,-0.7335,-0.8359,-0.9661,-1.0283,-1.0283,-1.0283,-1.0283,-1.0283,-1.0283,-1.0283,-1.0283,-1.0283,-1.0283,-1.0312,-1.0732,-1.1006,-1.1211,-1.1943,-1.2939,-1.406,-1.454,-1.5342,-1.6225,-1.6441,-1.6522,-1.6522,-1.6522,-1.6522,-1.6534,-1.6739,-1.7054,-1.7393,-1.7747,-1.8145,-1.838,-1.838,-1.8535,-1.8921,-1.9918,-2.1606,-2.3041,-2.3505,-2.3595,-2.3595,-2.3595,-2.3595,-2.3595,-2.3595,-2.3595,-2.3744,-2.4193,-2.4477,-2.4777,-2.5211,-2.5839,-2.6243,-2.6243,-2.6826,-2.72,-2.7156,-2.741,-2.7625,-2.7625,-2.7625,-2.7625,-2.7625,-2.7625,-2.7625,-2.7625,-2.7625,-2.7625,-2.7625,-2.7625,-2.7625,-2.7625,-2.7625,-2.7625,0.3542,0.3247,0.2885,0.2574,0.2431,0.2243,0.1723,0.1398,0.112,0.082,0.0182,-0.0314,-0.0233,0.0,0.0,0.0,0.0,0.0,0.0,0.0,0.0,0.0,0.0,0.0,0.0,0.0,0.0,0.0,0.0,0.0,-0.5734,-0.6031,-0.629,-0.6453,-0.6454,-0.7045,-0.8199,-0.9304,-0.9904,-1.0019,-1.0205,-1.0283,-1.0283,-1.0283,-1.0283,-1.0283,-1.0283,-1.0283,-1.0303,-1.0586,-1.0781,-1.0986,-1.1719,-1.2624,-1.3563,-1.4394,-1.5197,-1.5964,-1.638,-1.6522,-1.6522,-1.6522,-1.6522,-1.6522,-1.6522,-1.6756,-1.7068,-1.7258,-1.7544,-1.7827,-1.7827,-1.8113,-1.8921,-2.0744,-2.226,-2.3363,-2.3551,-2.3595,-2.3595,-2.3595,-2.3595,-2.3595,-2.3595,-2.3789,-2.4103,-2.4507,-2.4955,-2.545,-2.5884,-2.6512,-2.6916,-2.6916,-2.7305,-2.7625,-2.7625,-2.7625,-2.7625,-2.7625,-2.7625,-2.7625,-2.7625,-2.7625,-2.7625,-2.7625,-2.7625,-2.7625,-2.7625,-2.7625,-2.7625,-2.7625,-2.7625,-2.7625,0.0,0.0,0.0,0.3196,0.2939,0.0,0.2306,0.0,0.1771,0.1548,0.0933,0.0468,0.0662,0.0,0.0,0.0,0.0,0.0,0.0,0.0,0.0,0.0,0.0,0.0,0.0,0.0,0.0,0.0,0.0,-0.6155,-0.6139,-0.6169,-0.6408,-0.693,-0.6984,-0.7391,-0.8135,-0.8742,-0.9181,-0.9506,-1.0049,-1.0283,-1.0283,-1.0283,-1.0283,-1.0283,-1.0283,-1.0283,-1.0283,-1.0283,-1.0518,-1.0937,-1.141,-1.1861,-1.2395,-1.4052,-1.4687,-1.4892,-1.6107,-1.6522,-1.6522,-1.6522,-1.6522,-1.6522,-1.6522,-1.6522,-1.6595,-1.7105,-1.7271,-1.7271,-1.7312,-1.8213,-1.9564,-2.1289,-2.2189,-2.2875,-2.3465,-2.361,-2.3595,-2.3595,-2.3595,-2.3595,-2.3551,-2.4119,-2.4597,-2.4612,-2.5702,-2.6587,-2.6617,-2.7186,-2.7625,-2.7625,-2.7625,-2.7625,-2.7625,-2.7625,-2.7625,-2.7625,-2.7625,-2.7625,-2.7625,-2.7625,-2.7625,-2.7625,-2.7625,-2.7625,-2.7625,-2.7625,-2.7625,-2.7625,-2.7625,-2.7625,0.4406,0.0,0.0,0.0,0.0,0.0,0.0,0.0,0.2184,0.1492,0.1045,0.0705,0.0524,0.0,0.0,0.0,0.0,0.0,0.0,0.0,0.0,0.0,0.0,0.0,0.0,0.0,0.0,0.0,-0.4418,-0.474,-0.5022,-0.5364,-0.5611,-0.5758,-0.6609,-0.7049,-0.6962,-0.8594,-0.9337,-0.9139,-0.9935,-1.0283,-1.0283,-1.0283,-1.0283,-1.0283,-1.0283,-1.0283,-1.0283,-1.0283,-1.0352,-1.0498,-1.0928,-1.1646,-1.2569,-1.3828,-1.4708,-1.5454,-1.6238,-1.6522,-1.6522,-1.6522,-1.6522,-1.6522,-1.6522,-1.6522,-1.6522,-1.668,-1.671,-1.6795,-1.7188,-1.8555,-2.0016,-2.0905,-2.226,-2.3377,-2.3551,-2.3246,-2.3054,-2.3508,-2.3595,-2.3465,-2.3009,-2.3412,-2.3992,-2.4601,-2.5325,-2.6161,-2.7181,-2.7505,-2.7625,-2.7625,-2.7625,-2.7625,-2.7625,-2.7625,-2.7625,-2.7625,-2.7625,-2.7625,-2.7625,-2.7625,-2.7625,-2.7625,-2.7625,-2.7625,-2.7625,-2.7625,-2.7625,-2.7625,-2.7625,-2.7625,0.4587,0.4507,0.4406,0.413,0.0,0.0,0.3514,0.3114,0.2677,0.0,0.1766,0.1373,0.1125,0.0,0.0,0.0,0.0,0.0,0.0,0.0,0.0,0.0,0.0,0.0,0.0,-0.3163,0.0,-0.3811,-0.4082,-0.4445,-0.4856,-0.5164,-0.5309,-0.5309,-0.6141,-0.6526,-0.6405,-0.8011,-0.8739,-0.8685,-0.9582,-1.001,-1.002,-1.0195,-1.0283,-1.0283,-1.0283,-1.0283,-1.0283,-1.0283,-1.0283,-1.0322,-1.0742,-1.1382,-1.2242,-1.3314,-1.4317,-1.532,-1.592,-1.6281,-1.6522,-1.6522,-1.6522,-1.6522,-1.6522,-1.6522,-1.6522,-1.6522,-1.6522,-1.6637,-1.7146,-1.847,-1.9798,-2.0359,-2.1657,-2.2786,-2.2786,-2.2515,-2.2483,-2.3098,-2.2995,-2.2797,-2.2654,-2.3138,-2.3759,-2.4453,-2.5363,-2.622,-2.7041,-2.7408,-2.7625,-2.7625,-2.7625,-2.7625,-2.7625,-2.7625,-2.7625,-2.7625,-2.7625,-2.7625,-2.7625,-2.7625,-2.7625,-2.7625,-2.7625,-2.7625,-2.7625,-2.7625,-2.7625,-2.7575,-2.7586,-2.7609,0.4507,0.4567,0.4686,0.4406,0.4171,0.0,0.3952,0.3549,0.3197,0.0,0.2717,0.2195,0.2057,0.0,0.0,0.0,0.0,0.0,0.0,0.0,0.0,0.0,0.0,0.0,-0.3196,-0.3229,-0.3584,-0.4403,-0.4529,-0.4815,-0.5277,-0.5309,-0.5309,-0.5309,-0.5725,-0.606,-0.6267,-0.7263,-0.7909,-0.8174,-0.9035,-0.9471,-0.9529,-0.9953,-1.0196,-1.0196,-1.0283,-1.0283,-1.0283,-1.0283,-1.0283,-1.0322,-1.0742,-1.1172,-1.1743,-1.2819,-1.3824,-1.4789,-1.5454,-1.6051,-1.6522,-1.6522,-1.6522,-1.6522,-1.6522,-1.6522,-1.6522,-1.6522,-1.6522,-1.6637,-1.7146,-1.8213,-1.9253,-1.977,-2.0826,-2.1697,-2.1697,-2.1663,-2.1758,-2.236,-2.2053,-2.1828,-2.2309,-2.2981,-2.3612,-2.412,-2.5388,-2.6283,-2.6457,-2.7086,-2.7524,-2.7575,-2.7625,-2.7625,-2.7625,-2.7625,-2.7625,-2.7625,-2.7625,-2.7625,-2.7625,-2.7625,-2.7625,-2.7625,-2.7625,-2.7625,-2.7625,-2.7625,-2.7625,-2.7575,-2.7269,-2.7108,0.4971,0.4991,0.4952,0.4686,0.4587,0.0,0.4273,0.3965,0.3619,0.0,0.2772,0.2439,0.2205,0.1917,0.0,0.0,0.0,0.0,0.0,0.0,0.0,0.0,0.0,0.0,-0.2765,-0.2808,-0.3035,-0.3519,-0.4205,-0.4815,-0.5277,-0.5309,-0.5309,-0.5309,-0.5998,-0.6263,-0.5982,-0.7499,-0.813,-0.787,-0.8406,-0.8765,-0.8958,-0.9152,-0.9411,-0.9677,-1.0118,-1.0283,-1.0283,-1.0283,-1.0283,-1.0322,-1.0742,-1.1172,-1.1786,-1.3358,-1.4239,-1.4846,-1.5964,-1.638,-1.6522,-1.6522,-1.6522,-1.6522,-1.6522,-1.6522,-1.6522,-1.6522,-1.6522,-1.6637,-1.7146,-1.8213,-1.9253,-1.977,-2.0826,-2.1697,-2.1697,-2.1342,-2.1028,-2.1126,-2.1438,-2.1609,-2.1225,-2.1993,-2.2724,-2.2938,-2.3983,-2.5175,-2.6336,-2.6616,-2.693,-2.7524,-2.7625,-2.7625,-2.7625,-2.7625,-2.7625,-2.7625,-2.7625,-2.7625,-2.7625,-2.7625,-2.7625,-2.7625,-2.7625,-2.7625,-2.7625,-2.7625,-2.7625,-2.7545,-2.5109,-2.3982,0.5108,0.5108,0.5069,0.4932,0.0,0.0,0.0,0.4293,0.4019,0.3715,0.3529,0.3327,0.2927,0.0,0.0,0.0,0.0,0.0,0.0,0.0,0.0,0.0,0.0,0.0,-0.2301,-0.2345,-0.2723,-0.3584,-0.4226,-0.4808,-0.5277,-0.5309,-0.5309,-0.5309,-0.5883,-0.6195,-0.6191,-0.7033,-0.7439,-0.7444,-0.767,-0.806,-0.8595,-0.8867,-0.9328,-0.9922,-1.0166,-1.0283,-1.0283,-1.0283,-1.0283,-1.0303,-1.0518,-1.0996,-1.1757,-1.2883,-1.3895,-1.4835,-1.5732,-1.6238,-1.6522,-1.6522,-1.6522,-1.6522,-1.6522,-1.6522,-1.6522,-1.6522,-1.6522,-1.6552,-1.6837,-1.7759,-1.8701,-1.9008,-1.9925,-2.0756,-2.0756,-2.0521,-2.0295,-2.0295,-2.0534,-2.0762,-2.0733,-2.1388,-2.2043,-2.2382,-2.3498,-2.4567,-2.5287,-2.6068,-2.6794,-2.7536,-2.7144,-2.7063,-2.756,-2.7601,-2.758,-2.759,-2.7601,-2.7631,-2.7575,-2.7616,-2.7616,-2.7575,-2.6112,-2.5383,-2.5383,-2.6141,-2.65,-2.6468,-2.4969,-2.3819,0.5331,0.5351,0.5331,0.5253,0.0,0.4885,0.0,0.0,0.0,0.4366,0.4333,0.0,0.0,0.0,0.0,0.0,0.0,0.0,0.0,0.0,0.0,0.0,0.0,0.0,0.0,-0.184,-0.2395,-0.369,-0.4151,-0.4583,-0.5097,-0.53,-0.5428,-0.5428,-0.5876,-0.6263,-0.6502,-0.6589,-0.6738,-0.6969,-0.6903,-0.7282,-0.8096,-0.8549,-0.9216,-1.0,-1.0196,-1.0283,-1.0283,-1.0283,-1.0283,-1.0332,-1.0371,-1.0961,-1.1867,-1.2541,-1.3674,-1.4971,-1.5543,-1.6095,-1.6522,-1.6522,-1.6522,-1.6522,-1.6522,-1.6522,-1.6522,-1.6522,-1.6522,-1.6547,-1.666,-1.7438,-1.8229,-1.8342,-1.9095,-1.9798,-1.9798,-1.9798,-1.9798,-1.9798,-1.9798,-1.9949,-2.0413,-2.1054,-2.1644,-2.2083,-2.3225,-2.4176,-2.4452,-2.5453,-2.6397,-2.7234,-2.6558,-2.6246,-2.6696,-2.7281,-2.7577,-2.7607,-2.7579,-2.7328,-2.6745,-2.7306,-2.7319,-2.6733,-2.4371,-2.3178,-2.338,-2.4463,-2.5039,-2.521,-2.5075,-2.439,0.0,0.0,0.0,0.0,0.5703,0.0,0.0,0.0,0.4646,0.4646,0.0,0.0,0.0,0.0,0.0,0.0,0.0,0.0,0.0,0.0,0.0,0.0,0.0,0.0,0.0,0.0,-0.1833,-0.2948,-0.3297,-0.376,-0.4459,-0.5341,-0.5829,-0.5829,-0.6572,-0.6822,-0.6503,-0.6845,-0.6871,-0.6579,-0.6191,-0.6362,-0.7013,-0.7635,-0.8293,-0.8918,-0.9883,-1.0283,-1.0283,-1.0283,-1.0283,-1.0361,-1.0693,-1.1458,-1.2531,-1.352,-1.458,-1.5588,-1.6194,-1.6423,-1.6522,-1.6522,-1.6522,-1.6522,-1.6522,-1.6522,-1.6522,-1.6522,-1.6522,-1.6635,-1.7149,-1.7739,-1.8329,-1.8819,-1.9384,-1.9798,-1.9798,-1.9798,-1.9798,-1.9798,-1.9798,-1.9823,-1.9886,-2.0778,-2.1506,-2.1568,-2.2518,-2.3695,-2.5119,-2.4851,-2.498,-2.613,-2.6196,-2.5439,-2.3755,-2.609,-2.7596,-2.7607,-2.7621,-2.6385,-2.3727,-2.6174,-2.634,-2.3647,-2.3239,-2.3564,-2.4422,-2.3721,-2.3817,-2.4654,-2.3813,-2.3754,0.0,0.0,0.0,0.0,0.0,0.0,0.5205,0.0,0.4932,0.0,0.0,0.0,0.0,0.0,0.0,0.0,0.35,0.0,0.0,0.0,0.0,0.0,0.0,0.0,0.0,0.0,0.0,0.0,0.0,-0.3303,-0.4129,-0.5009,-0.5519,-0.554,-0.6121,-0.6318,-0.6166,-0.6075,-0.6091,-0.6136,-0.5758,-0.6036,-0.6934,-0.7515,-0.8288,-0.9199,-0.9961,-1.0283,-1.0283,-1.0283,-1.0283,-1.0303,-1.0478,-1.1122,-1.2093,-1.2883,-1.3762,-1.4641,-1.5242,-1.5688,-1.6051,-1.638,-1.6522,-1.6522,-1.6522,-1.6522,-1.6522,-1.6522,-1.6522,-1.6647,-1.7237,-1.779,-1.8342,-1.8845,-1.9422,-1.9798,-1.9798,-1.9798,-1.9798,-1.9798,-1.9798,-1.9798,-1.9798,-2.074,-2.1594,-2.192,-2.2636,-2.3305,-2.3989,-2.4221,-2.4302,-2.4334,-2.4757,-2.4536,-2.3208,-2.4262,-2.4983,-2.5001,-2.6635,-2.7026,-2.5756,-2.5228,-2.4409,-2.3142,-2.3128,-2.3324,-2.3747,-2.3295,-2.3339,-2.3716,-2.328,-2.3297,0.665,0.0,0.0,0.0,0.0,0.0,0.0,0.0,0.0,0.0,0.0,0.0,0.0,0.0,0.0,0.0,0.0,0.3542,0.0,0.0,0.0,0.0,0.0,0.0,0.0,0.0,0.0,0.0,0.0,0.0,-0.3523,-0.461,-0.5219,-0.5264,-0.5891,-0.6129,-0.5914,-0.5602,-0.5547,-0.5743,-0.5504,-0.5895,-0.6796,-0.7396,-0.8269,-0.9319,-0.9853,-1.0166,-1.0283,-1.0283,-1.0283,-1.0293,-1.041,-1.0949,-1.1683,-1.2276,-1.3159,-1.4097,-1.456,-1.4971,-1.5454,-1.6051,-1.6238,-1.6281,-1.6466,-1.6522,-1.6522,-1.6522,-1.6522,-1.6685,-1.7413,-1.7903,-1.838,-1.9083,-1.9522,-1.9798,-1.9798,-1.9798,-1.9798,-1.9798,-1.9798,-1.9849,-2.0012,-2.084,-2.1631,-2.202,-2.2686,-2.3198,-2.3424,-2.3767,-2.3839,-2.3463,-2.3729,-2.3722,-2.3145,-2.3122,-2.3449,-2.4259,-2.6386,-2.7216,-2.6372,-2.4265,-2.3115,-2.3106,-2.3077,-2.3102,-2.3102,-2.3132,-2.3078,-2.3078,-2.3078,-2.3078,0.0,0.0,0.0,0.6602,0.0,0.0,0.0,0.0,0.5635,0.0,0.0,0.0,0.0,0.0,0.0,0.4666,0.0,0.0,0.0,0.0,0.0,0.0,0.0,0.0,0.0,0.0,0.0,0.0,0.0,0.0,-0.2399,-0.4192,-0.521,-0.5192,-0.6403,-0.6683,-0.5914,-0.5875,-0.5703,-0.5316,-0.5564,-0.5858,-0.624,-0.7038,-0.7913,-0.8765,-0.9306,-0.9823,-1.0283,-1.0283,-1.0283,-1.0322,-1.0732,-1.1162,-1.1683,-1.2276,-1.3423,-1.4652,-1.4698,-1.4698,-1.4835,-1.541,-1.5632,-1.5732,-1.6337,-1.6522,-1.6522,-1.6522,-1.6522,-1.6773,-1.789,-1.8191,-1.848,-1.9522,-1.9798,-1.9798,-1.9798,-1.9798,-1.9798,-1.9798,-1.9798,-1.9987,-2.0592,-2.1104,-2.1493,-2.1506,-2.2435,-2.3365,-2.4176,-2.359,-2.3424,-2.4163,-2.359,-2.3125,-2.31,-2.3113,-2.4333,-2.7283,-2.7527,-2.6274,-2.3373,-2.3122,-2.3102,-2.31,-2.3113,-2.3113,-2.3113,-2.3125,-2.3078,-2.3078,-2.3078,-2.3078,0.0,0.0,0.7559,0.7012,0.0,0.0,0.0,0.0,0.0,0.0,0.0,0.0,0.0,0.0,0.4912,0.4726,0.4386,0.0,0.0,0.0,0.0,0.0,0.0,0.0,0.0,0.0,0.0,0.0,-0.0751,0.0,0.0,-0.3836,-0.4822,-0.4808,-0.5791,-0.6045,-0.5508,-0.5491,-0.5428,-0.5316,-0.5578,-0.5865,-0.624,-0.7048,-0.7679,-0.8187,-0.8738,-0.9279,-0.977,-0.9767,-0.9961,-1.0322,-1.0742,-1.1172,-1.1645,-1.2109,-1.2817,-1.3573,-1.3967,-1.4376,-1.4744,-1.4926,-1.5555,-1.6151,-1.5952,-1.6194,-1.6522,-1.6522,-1.6798,-1.7262,-1.8016,-1.848,-1.8932,-1.9635,-1.9798,-1.9798,-1.9798,-1.9798,-1.9798,-1.9798,-1.9798,-1.9861,-2.0062,-2.0564,-2.1192,-2.192,-2.2661,-2.3198,-2.3484,-2.3245,-2.3185,-2.3484,-2.3245,-2.3078,-2.3078,-2.309,-2.356,-2.454,-2.4607,-2.4152,-2.3135,-2.3119,-2.3072,-2.3078,-2.3078,-2.3078,-2.3078,-2.3078,-2.3078,-2.3078,-2.3078,-2.3078,0.7627,0.7695,0.0,0.7207,0.6875,0.0,0.5931,0.0,0.0,0.0,0.0,0.0,0.0,0.0,0.0,0.5088,0.4724,0.0,0.0,0.3668,0.0,0.0,0.0,0.0,0.0,0.0,0.0863,0.06,-0.0262,0.0,0.0,0.0,-0.4191,-0.4371,-0.5363,-0.5712,-0.5316,-0.5309,-0.5344,-0.5451,-0.5745,-0.6025,-0.6357,-0.6994,-0.7484,-0.7915,-0.8472,-0.901,-0.9497,-0.9688,-1.0,-1.0342,-1.0918,-1.1309,-1.1655,-1.2061,-1.251,-1.2978,-1.3324,-1.3742,-1.4107,-1.4294,-1.5062,-1.5832,-1.5632,-1.6008,-1.6522,-1.6522,-1.6936,-1.7501,-1.8066,-1.8618,-1.9158,-1.9673,-1.9798,-1.9798,-1.9798,-1.9798,-1.9798,-1.9798,-1.9798,-1.9798,-1.9798,-2.0439,-2.1204,-2.1907,-2.2485,-2.2852,-2.3053,-2.3078,-2.3078,-2.3078,-2.3078,-2.3078,-2.3078,-2.3103,-2.3081,-2.3081,-2.3081,-2.3081,-2.3081,-2.3072,-2.3078,-2.3078,-2.3078,-2.3078,-2.3078,-2.3078,-2.3078,-2.3078,-2.3078,-2.3078]}]]